<?xml version="1.0" encoding="UTF-8" standalone="no" ?>
<gpx xmlns="http://www.topografix.com/GPX/1/1" xmlns:xsi="http://www.w3.org/2001/XMLSchema-instance" xsi:schemaLocation="http://www.topografix.com/GPX/1/1 http://www.topografix.com/GPX/1/1/gpx.xsd" version="1.1" creator="VisuGPX - https://www.visugpx.com">
  <metadata>
    <name>Col de stroppia Ubaye 6 avril 2015</name>
    <desc><![CDATA[Sortie les amis du Vieux Lyon: Christo, Thierry, Franck, Olivier, Pierrot, Sophie, Hélène, MH]]></desc>
  </metadata>
  <trk>
    <name><![CDATA[A015-04-06 13:17:17]]></name>
    <trkseg>
      <trkpt lat="44.52487" lon="6.79626">
        <ele>1866.06</ele>
        <time>2015-04-06T05:24:13Z</time>
      </trkpt>
      <trkpt lat="44.52488" lon="6.79626">
        <ele>1868.94</ele>
        <time>2015-04-06T05:24:20Z</time>
      </trkpt>
      <trkpt lat="44.52488" lon="6.79626">
        <ele>1872.3</ele>
        <time>2015-04-06T05:24:28Z</time>
      </trkpt>
      <trkpt lat="44.52488" lon="6.79626">
        <ele>1875.19</ele>
        <time>2015-04-06T05:24:38Z</time>
      </trkpt>
      <trkpt lat="44.52488" lon="6.79627">
        <ele>1875.67</ele>
        <time>2015-04-06T05:24:39Z</time>
      </trkpt>
      <trkpt lat="44.52488" lon="6.79628">
        <ele>1879.03</ele>
        <time>2015-04-06T05:24:57Z</time>
      </trkpt>
      <trkpt lat="44.52489" lon="6.79627">
        <ele>1881.44</ele>
        <time>2015-04-06T05:25:19Z</time>
      </trkpt>
      <trkpt lat="44.52491" lon="6.79628">
        <ele>1882.88</ele>
        <time>2015-04-06T05:26:09Z</time>
      </trkpt>
      <trkpt lat="44.52493" lon="6.79627">
        <ele>1882.88</ele>
        <time>2015-04-06T05:26:21Z</time>
      </trkpt>
      <trkpt lat="44.52491" lon="6.79627">
        <ele>1882.88</ele>
        <time>2015-04-06T05:26:46Z</time>
      </trkpt>
      <trkpt lat="44.5249" lon="6.79628">
        <ele>1883.84</ele>
        <time>2015-04-06T05:27:07Z</time>
      </trkpt>
      <trkpt lat="44.52489" lon="6.79625">
        <ele>1883.84</ele>
        <time>2015-04-06T05:27:28Z</time>
      </trkpt>
      <trkpt lat="44.52488" lon="6.79624">
        <ele>1883.84</ele>
        <time>2015-04-06T05:27:49Z</time>
      </trkpt>
      <trkpt lat="44.52486" lon="6.7962">
        <ele>1883.84</ele>
        <time>2015-04-06T05:27:56Z</time>
      </trkpt>
      <trkpt lat="44.52482" lon="6.79621">
        <ele>1883.84</ele>
        <time>2015-04-06T05:28:00Z</time>
      </trkpt>
      <trkpt lat="44.52476" lon="6.79637">
        <ele>1883.84</ele>
        <time>2015-04-06T05:28:16Z</time>
      </trkpt>
      <trkpt lat="44.52474" lon="6.79652">
        <ele>1884.32</ele>
        <time>2015-04-06T05:28:30Z</time>
      </trkpt>
      <trkpt lat="44.52471" lon="6.79672">
        <ele>1881.92</ele>
        <time>2015-04-06T05:28:44Z</time>
      </trkpt>
      <trkpt lat="44.52469" lon="6.79678">
        <ele>1881.44</ele>
        <time>2015-04-06T05:28:48Z</time>
      </trkpt>
      <trkpt lat="44.52471" lon="6.797">
        <ele>1882.88</ele>
        <time>2015-04-06T05:29:04Z</time>
      </trkpt>
      <trkpt lat="44.52481" lon="6.79723">
        <ele>1884.8</ele>
        <time>2015-04-06T05:29:22Z</time>
      </trkpt>
      <trkpt lat="44.5249" lon="6.79746">
        <ele>1886.24</ele>
        <time>2015-04-06T05:29:38Z</time>
      </trkpt>
      <trkpt lat="44.52496" lon="6.79766">
        <ele>1888.17</ele>
        <time>2015-04-06T05:29:53Z</time>
      </trkpt>
      <trkpt lat="44.52503" lon="6.79794">
        <ele>1890.09</ele>
        <time>2015-04-06T05:30:11Z</time>
      </trkpt>
      <trkpt lat="44.52508" lon="6.79819">
        <ele>1891.53</ele>
        <time>2015-04-06T05:30:29Z</time>
      </trkpt>
      <trkpt lat="44.52511" lon="6.79847">
        <ele>1893.45</ele>
        <time>2015-04-06T05:30:47Z</time>
      </trkpt>
      <trkpt lat="44.52517" lon="6.79872">
        <ele>1895.38</ele>
        <time>2015-04-06T05:31:05Z</time>
      </trkpt>
      <trkpt lat="44.52522" lon="6.79891">
        <ele>1896.82</ele>
        <time>2015-04-06T05:31:20Z</time>
      </trkpt>
      <trkpt lat="44.52528" lon="6.79917">
        <ele>1896.34</ele>
        <time>2015-04-06T05:31:36Z</time>
      </trkpt>
      <trkpt lat="44.52532" lon="6.79939">
        <ele>1895.86</ele>
        <time>2015-04-06T05:31:51Z</time>
      </trkpt>
      <trkpt lat="44.52537" lon="6.79971">
        <ele>1896.82</ele>
        <time>2015-04-06T05:32:11Z</time>
      </trkpt>
      <trkpt lat="44.52543" lon="6.79998">
        <ele>1896.34</ele>
        <time>2015-04-06T05:32:28Z</time>
      </trkpt>
      <trkpt lat="44.5255" lon="6.80024">
        <ele>1895.86</ele>
        <time>2015-04-06T05:32:45Z</time>
      </trkpt>
      <trkpt lat="44.5255" lon="6.80052">
        <ele>1896.34</ele>
        <time>2015-04-06T05:33:03Z</time>
      </trkpt>
      <trkpt lat="44.52549" lon="6.8008">
        <ele>1896.34</ele>
        <time>2015-04-06T05:33:19Z</time>
      </trkpt>
      <trkpt lat="44.52548" lon="6.80089">
        <ele>1896.34</ele>
        <time>2015-04-06T05:33:24Z</time>
      </trkpt>
      <trkpt lat="44.52548" lon="6.80105">
        <ele>1897.3</ele>
        <time>2015-04-06T05:33:34Z</time>
      </trkpt>
      <trkpt lat="44.52551" lon="6.80132">
        <ele>1899.22</ele>
        <time>2015-04-06T05:33:53Z</time>
      </trkpt>
      <trkpt lat="44.52553" lon="6.80161">
        <ele>1900.66</ele>
        <time>2015-04-06T05:34:11Z</time>
      </trkpt>
      <trkpt lat="44.52562" lon="6.80176">
        <ele>1902.11</ele>
        <time>2015-04-06T05:34:25Z</time>
      </trkpt>
      <trkpt lat="44.52568" lon="6.80195">
        <ele>1902.59</ele>
        <time>2015-04-06T05:34:41Z</time>
      </trkpt>
      <trkpt lat="44.52575" lon="6.80223">
        <ele>1903.07</ele>
        <time>2015-04-06T05:34:59Z</time>
      </trkpt>
      <trkpt lat="44.52584" lon="6.80246">
        <ele>1903.55</ele>
        <time>2015-04-06T05:35:17Z</time>
      </trkpt>
      <trkpt lat="44.52588" lon="6.8026">
        <ele>1903.55</ele>
        <time>2015-04-06T05:35:26Z</time>
      </trkpt>
      <trkpt lat="44.5259" lon="6.80266">
        <ele>1903.07</ele>
        <time>2015-04-06T05:35:30Z</time>
      </trkpt>
      <trkpt lat="44.52598" lon="6.80302">
        <ele>1903.55</ele>
        <time>2015-04-06T05:35:52Z</time>
      </trkpt>
      <trkpt lat="44.52599" lon="6.80327">
        <ele>1904.99</ele>
        <time>2015-04-06T05:36:10Z</time>
      </trkpt>
      <trkpt lat="44.52598" lon="6.8035">
        <ele>1907.39</ele>
        <time>2015-04-06T05:36:27Z</time>
      </trkpt>
      <trkpt lat="44.52597" lon="6.80375">
        <ele>1907.39</ele>
        <time>2015-04-06T05:36:44Z</time>
      </trkpt>
      <trkpt lat="44.52599" lon="6.80407">
        <ele>1906.91</ele>
        <time>2015-04-06T05:37:03Z</time>
      </trkpt>
      <trkpt lat="44.52602" lon="6.80433">
        <ele>1907.87</ele>
        <time>2015-04-06T05:37:18Z</time>
      </trkpt>
      <trkpt lat="44.526" lon="6.80454">
        <ele>1909.32</ele>
        <time>2015-04-06T05:37:35Z</time>
      </trkpt>
      <trkpt lat="44.52594" lon="6.80472">
        <ele>1910.76</ele>
        <time>2015-04-06T05:37:51Z</time>
      </trkpt>
      <trkpt lat="44.52588" lon="6.80495">
        <ele>1913.64</ele>
        <time>2015-04-06T05:38:11Z</time>
      </trkpt>
      <trkpt lat="44.52583" lon="6.80514">
        <ele>1916.53</ele>
        <time>2015-04-06T05:38:31Z</time>
      </trkpt>
      <trkpt lat="44.52575" lon="6.80534">
        <ele>1917.01</ele>
        <time>2015-04-06T05:38:48Z</time>
      </trkpt>
      <trkpt lat="44.52574" lon="6.80539">
        <ele>1917.49</ele>
        <time>2015-04-06T05:38:50Z</time>
      </trkpt>
      <trkpt lat="44.52569" lon="6.80564">
        <ele>1918.93</ele>
        <time>2015-04-06T05:39:06Z</time>
      </trkpt>
      <trkpt lat="44.52564" lon="6.80594">
        <ele>1918.93</ele>
        <time>2015-04-06T05:39:25Z</time>
      </trkpt>
      <trkpt lat="44.52563" lon="6.80618">
        <ele>1920.37</ele>
        <time>2015-04-06T05:39:42Z</time>
      </trkpt>
      <trkpt lat="44.5256" lon="6.80645">
        <ele>1919.89</ele>
        <time>2015-04-06T05:39:59Z</time>
      </trkpt>
      <trkpt lat="44.52554" lon="6.80671">
        <ele>1919.41</ele>
        <time>2015-04-06T05:40:15Z</time>
      </trkpt>
      <trkpt lat="44.52546" lon="6.80698">
        <ele>1919.41</ele>
        <time>2015-04-06T05:40:34Z</time>
      </trkpt>
      <trkpt lat="44.52534" lon="6.80725">
        <ele>1919.41</ele>
        <time>2015-04-06T05:40:54Z</time>
      </trkpt>
      <trkpt lat="44.5252" lon="6.80748">
        <ele>1919.89</ele>
        <time>2015-04-06T05:41:13Z</time>
      </trkpt>
      <trkpt lat="44.52514" lon="6.80757">
        <ele>1920.85</ele>
        <time>2015-04-06T05:41:22Z</time>
      </trkpt>
      <trkpt lat="44.52493" lon="6.80771">
        <ele>1921.81</ele>
        <time>2015-04-06T05:41:40Z</time>
      </trkpt>
      <trkpt lat="44.52477" lon="6.80784">
        <ele>1923.74</ele>
        <time>2015-04-06T05:41:57Z</time>
      </trkpt>
      <trkpt lat="44.52468" lon="6.80798">
        <ele>1925.66</ele>
        <time>2015-04-06T05:42:14Z</time>
      </trkpt>
      <trkpt lat="44.52463" lon="6.80813">
        <ele>1927.58</ele>
        <time>2015-04-06T05:42:30Z</time>
      </trkpt>
      <trkpt lat="44.52455" lon="6.80825">
        <ele>1929.02</ele>
        <time>2015-04-06T05:42:44Z</time>
      </trkpt>
      <trkpt lat="44.52441" lon="6.80832">
        <ele>1930.46</ele>
        <time>2015-04-06T05:43:01Z</time>
      </trkpt>
      <trkpt lat="44.52431" lon="6.8084">
        <ele>1931.91</ele>
        <time>2015-04-06T05:43:18Z</time>
      </trkpt>
      <trkpt lat="44.52428" lon="6.80853">
        <ele>1934.79</ele>
        <time>2015-04-06T05:43:35Z</time>
      </trkpt>
      <trkpt lat="44.52425" lon="6.80867">
        <ele>1937.19</ele>
        <time>2015-04-06T05:43:51Z</time>
      </trkpt>
      <trkpt lat="44.52418" lon="6.80877">
        <ele>1939.12</ele>
        <time>2015-04-06T05:44:06Z</time>
      </trkpt>
      <trkpt lat="44.52424" lon="6.80881">
        <ele>1941.04</ele>
        <time>2015-04-06T05:44:20Z</time>
      </trkpt>
      <trkpt lat="44.5243" lon="6.8088">
        <ele>1941.52</ele>
        <time>2015-04-06T05:44:28Z</time>
      </trkpt>
      <trkpt lat="44.52434" lon="6.80884">
        <ele>1941.52</ele>
        <time>2015-04-06T05:44:33Z</time>
      </trkpt>
      <trkpt lat="44.52431" lon="6.80903">
        <ele>1943.44</ele>
        <time>2015-04-06T05:44:49Z</time>
      </trkpt>
      <trkpt lat="44.5243" lon="6.80908">
        <ele>1943.92</ele>
        <time>2015-04-06T05:44:55Z</time>
      </trkpt>
      <trkpt lat="44.52427" lon="6.80927">
        <ele>1945.36</ele>
        <time>2015-04-06T05:45:11Z</time>
      </trkpt>
      <trkpt lat="44.52425" lon="6.80929">
        <ele>1945.36</ele>
        <time>2015-04-06T05:45:13Z</time>
      </trkpt>
      <trkpt lat="44.52411" lon="6.80946">
        <ele>1946.33</ele>
        <time>2015-04-06T05:45:31Z</time>
      </trkpt>
      <trkpt lat="44.52398" lon="6.80964">
        <ele>1947.29</ele>
        <time>2015-04-06T05:45:49Z</time>
      </trkpt>
      <trkpt lat="44.52398" lon="6.80982">
        <ele>1947.77</ele>
        <time>2015-04-06T05:46:05Z</time>
      </trkpt>
      <trkpt lat="44.52397" lon="6.81007">
        <ele>1949.69</ele>
        <time>2015-04-06T05:46:24Z</time>
      </trkpt>
      <trkpt lat="44.52403" lon="6.81019">
        <ele>1951.61</ele>
        <time>2015-04-06T05:46:40Z</time>
      </trkpt>
      <trkpt lat="44.52397" lon="6.81027">
        <ele>1953.54</ele>
        <time>2015-04-06T05:46:55Z</time>
      </trkpt>
      <trkpt lat="44.52389" lon="6.81036">
        <ele>1955.46</ele>
        <time>2015-04-06T05:47:10Z</time>
      </trkpt>
      <trkpt lat="44.5238" lon="6.81042">
        <ele>1957.38</ele>
        <time>2015-04-06T05:47:25Z</time>
      </trkpt>
      <trkpt lat="44.52372" lon="6.81045">
        <ele>1958.82</ele>
        <time>2015-04-06T05:47:40Z</time>
      </trkpt>
      <trkpt lat="44.52373" lon="6.81046">
        <ele>1957.38</ele>
        <time>2015-04-06T05:47:59Z</time>
      </trkpt>
      <trkpt lat="44.52373" lon="6.81049">
        <ele>1957.38</ele>
        <time>2015-04-06T05:48:28Z</time>
      </trkpt>
      <trkpt lat="44.52373" lon="6.81046">
        <ele>1957.38</ele>
        <time>2015-04-06T05:48:49Z</time>
      </trkpt>
      <trkpt lat="44.52374" lon="6.81044">
        <ele>1957.38</ele>
        <time>2015-04-06T05:49:24Z</time>
      </trkpt>
      <trkpt lat="44.52374" lon="6.81042">
        <ele>1956.9</ele>
        <time>2015-04-06T05:49:52Z</time>
      </trkpt>
      <trkpt lat="44.52375" lon="6.81044">
        <ele>1957.38</ele>
        <time>2015-04-06T05:50:23Z</time>
      </trkpt>
      <trkpt lat="44.52374" lon="6.81046">
        <ele>1957.38</ele>
        <time>2015-04-06T05:50:54Z</time>
      </trkpt>
      <trkpt lat="44.52374" lon="6.81047">
        <ele>1957.38</ele>
        <time>2015-04-06T05:51:26Z</time>
      </trkpt>
      <trkpt lat="44.52375" lon="6.81043">
        <ele>1957.38</ele>
        <time>2015-04-06T05:52:05Z</time>
      </trkpt>
      <trkpt lat="44.52373" lon="6.81047">
        <ele>1957.38</ele>
        <time>2015-04-06T05:52:30Z</time>
      </trkpt>
      <trkpt lat="44.52373" lon="6.81045">
        <ele>1957.38</ele>
        <time>2015-04-06T05:52:43Z</time>
      </trkpt>
      <trkpt lat="44.52375" lon="6.81048">
        <ele>1958.34</ele>
        <time>2015-04-06T05:52:52Z</time>
      </trkpt>
      <trkpt lat="44.5237" lon="6.81042">
        <ele>1958.34</ele>
        <time>2015-04-06T05:53:20Z</time>
      </trkpt>
      <trkpt lat="44.52369" lon="6.81046">
        <ele>1958.82</ele>
        <time>2015-04-06T05:53:37Z</time>
      </trkpt>
      <trkpt lat="44.52368" lon="6.81049">
        <ele>1959.3</ele>
        <time>2015-04-06T05:53:40Z</time>
      </trkpt>
      <trkpt lat="44.52365" lon="6.81053">
        <ele>1959.78</ele>
        <time>2015-04-06T05:53:44Z</time>
      </trkpt>
      <trkpt lat="44.52361" lon="6.81062">
        <ele>1960.27</ele>
        <time>2015-04-06T05:54:00Z</time>
      </trkpt>
      <trkpt lat="44.52362" lon="6.81066">
        <ele>1960.75</ele>
        <time>2015-04-06T05:54:20Z</time>
      </trkpt>
      <trkpt lat="44.5236" lon="6.81071">
        <ele>1960.27</ele>
        <time>2015-04-06T05:54:45Z</time>
      </trkpt>
      <trkpt lat="44.5236" lon="6.81074">
        <ele>1960.75</ele>
        <time>2015-04-06T05:55:00Z</time>
      </trkpt>
      <trkpt lat="44.52361" lon="6.81073">
        <ele>1961.23</ele>
        <time>2015-04-06T05:55:22Z</time>
      </trkpt>
      <trkpt lat="44.5236" lon="6.81075">
        <ele>1961.23</ele>
        <time>2015-04-06T05:55:35Z</time>
      </trkpt>
      <trkpt lat="44.52353" lon="6.81092">
        <ele>1963.15</ele>
        <time>2015-04-06T05:55:50Z</time>
      </trkpt>
      <trkpt lat="44.52344" lon="6.81102">
        <ele>1965.07</ele>
        <time>2015-04-06T05:56:05Z</time>
      </trkpt>
      <trkpt lat="44.52336" lon="6.81109">
        <ele>1967.48</ele>
        <time>2015-04-06T05:56:18Z</time>
      </trkpt>
      <trkpt lat="44.52335" lon="6.81109">
        <ele>1967.96</ele>
        <time>2015-04-06T05:56:20Z</time>
      </trkpt>
      <trkpt lat="44.52328" lon="6.81118">
        <ele>1968.92</ele>
        <time>2015-04-06T05:56:33Z</time>
      </trkpt>
      <trkpt lat="44.52321" lon="6.81131">
        <ele>1969.4</ele>
        <time>2015-04-06T05:56:49Z</time>
      </trkpt>
      <trkpt lat="44.52314" lon="6.81142">
        <ele>1971.32</ele>
        <time>2015-04-06T05:57:03Z</time>
      </trkpt>
      <trkpt lat="44.52307" lon="6.81156">
        <ele>1972.76</ele>
        <time>2015-04-06T05:57:19Z</time>
      </trkpt>
      <trkpt lat="44.523" lon="6.81161">
        <ele>1975.17</ele>
        <time>2015-04-06T05:57:34Z</time>
      </trkpt>
      <trkpt lat="44.52293" lon="6.81168">
        <ele>1976.61</ele>
        <time>2015-04-06T05:57:48Z</time>
      </trkpt>
      <trkpt lat="44.52286" lon="6.81177">
        <ele>1979.49</ele>
        <time>2015-04-06T05:58:07Z</time>
      </trkpt>
      <trkpt lat="44.52282" lon="6.81185">
        <ele>1979.97</ele>
        <time>2015-04-06T05:58:22Z</time>
      </trkpt>
      <trkpt lat="44.52277" lon="6.81193">
        <ele>1980.45</ele>
        <time>2015-04-06T05:58:35Z</time>
      </trkpt>
      <trkpt lat="44.52274" lon="6.81206">
        <ele>1979.97</ele>
        <time>2015-04-06T05:58:50Z</time>
      </trkpt>
      <trkpt lat="44.5227" lon="6.81223">
        <ele>1980.45</ele>
        <time>2015-04-06T05:59:04Z</time>
      </trkpt>
      <trkpt lat="44.52263" lon="6.81242">
        <ele>1981.41</ele>
        <time>2015-04-06T05:59:20Z</time>
      </trkpt>
      <trkpt lat="44.52258" lon="6.81264">
        <ele>1980.93</ele>
        <time>2015-04-06T05:59:35Z</time>
      </trkpt>
      <trkpt lat="44.52256" lon="6.81277">
        <ele>1983.34</ele>
        <time>2015-04-06T05:59:50Z</time>
      </trkpt>
      <trkpt lat="44.52248" lon="6.81287">
        <ele>1985.74</ele>
        <time>2015-04-06T06:00:06Z</time>
      </trkpt>
      <trkpt lat="44.5224" lon="6.81298">
        <ele>1988.14</ele>
        <time>2015-04-06T06:00:21Z</time>
      </trkpt>
      <trkpt lat="44.52235" lon="6.81296">
        <ele>1991.03</ele>
        <time>2015-04-06T06:00:33Z</time>
      </trkpt>
      <trkpt lat="44.52231" lon="6.81288">
        <ele>1992.95</ele>
        <time>2015-04-06T06:00:46Z</time>
      </trkpt>
      <trkpt lat="44.52227" lon="6.81274">
        <ele>1995.83</ele>
        <time>2015-04-06T06:01:03Z</time>
      </trkpt>
      <trkpt lat="44.5222" lon="6.8128">
        <ele>1997.76</ele>
        <time>2015-04-06T06:01:16Z</time>
      </trkpt>
      <trkpt lat="44.52214" lon="6.8129">
        <ele>1999.68</ele>
        <time>2015-04-06T06:01:31Z</time>
      </trkpt>
      <trkpt lat="44.52208" lon="6.81302">
        <ele>2000.64</ele>
        <time>2015-04-06T06:01:45Z</time>
      </trkpt>
      <trkpt lat="44.52202" lon="6.81313">
        <ele>2002.08</ele>
        <time>2015-04-06T06:01:57Z</time>
      </trkpt>
      <trkpt lat="44.52198" lon="6.81318">
        <ele>2003.52</ele>
        <time>2015-04-06T06:02:09Z</time>
      </trkpt>
      <trkpt lat="44.52191" lon="6.81327">
        <ele>2005.45</ele>
        <time>2015-04-06T06:02:24Z</time>
      </trkpt>
      <trkpt lat="44.52181" lon="6.81343">
        <ele>2005.93</ele>
        <time>2015-04-06T06:02:41Z</time>
      </trkpt>
      <trkpt lat="44.52176" lon="6.81356">
        <ele>2005.93</ele>
        <time>2015-04-06T06:02:56Z</time>
      </trkpt>
      <trkpt lat="44.52168" lon="6.81369">
        <ele>2007.85</ele>
        <time>2015-04-06T06:03:13Z</time>
      </trkpt>
      <trkpt lat="44.52162" lon="6.81374">
        <ele>2009.77</ele>
        <time>2015-04-06T06:03:26Z</time>
      </trkpt>
      <trkpt lat="44.52158" lon="6.81377">
        <ele>2010.73</ele>
        <time>2015-04-06T06:03:39Z</time>
      </trkpt>
      <trkpt lat="44.5216" lon="6.81369">
        <ele>2011.7</ele>
        <time>2015-04-06T06:03:53Z</time>
      </trkpt>
      <trkpt lat="44.52154" lon="6.81363">
        <ele>2014.1</ele>
        <time>2015-04-06T06:04:05Z</time>
      </trkpt>
      <trkpt lat="44.52147" lon="6.81369">
        <ele>2016.5</ele>
        <time>2015-04-06T06:04:18Z</time>
      </trkpt>
      <trkpt lat="44.52139" lon="6.81372">
        <ele>2017.94</ele>
        <time>2015-04-06T06:04:30Z</time>
      </trkpt>
      <trkpt lat="44.52135" lon="6.81372">
        <ele>2017.94</ele>
        <time>2015-04-06T06:04:34Z</time>
      </trkpt>
      <trkpt lat="44.52124" lon="6.8138">
        <ele>2018.43</ele>
        <time>2015-04-06T06:04:49Z</time>
      </trkpt>
      <trkpt lat="44.52112" lon="6.81388">
        <ele>2019.87</ele>
        <time>2015-04-06T06:05:04Z</time>
      </trkpt>
      <trkpt lat="44.52106" lon="6.81392">
        <ele>2021.31</ele>
        <time>2015-04-06T06:05:13Z</time>
      </trkpt>
      <trkpt lat="44.52098" lon="6.81395">
        <ele>2021.79</ele>
        <time>2015-04-06T06:05:22Z</time>
      </trkpt>
      <trkpt lat="44.52093" lon="6.81397">
        <ele>2021.79</ele>
        <time>2015-04-06T06:05:27Z</time>
      </trkpt>
      <trkpt lat="44.52091" lon="6.81399">
        <ele>2021.79</ele>
        <time>2015-04-06T06:05:30Z</time>
      </trkpt>
      <trkpt lat="44.52079" lon="6.81408">
        <ele>2021.79</ele>
        <time>2015-04-06T06:05:43Z</time>
      </trkpt>
      <trkpt lat="44.52069" lon="6.81419">
        <ele>2023.71</ele>
        <time>2015-04-06T06:05:58Z</time>
      </trkpt>
      <trkpt lat="44.52061" lon="6.81427">
        <ele>2025.64</ele>
        <time>2015-04-06T06:06:12Z</time>
      </trkpt>
      <trkpt lat="44.5205" lon="6.81444">
        <ele>2025.64</ele>
        <time>2015-04-06T06:06:27Z</time>
      </trkpt>
      <trkpt lat="44.52046" lon="6.81464">
        <ele>2026.6</ele>
        <time>2015-04-06T06:06:42Z</time>
      </trkpt>
      <trkpt lat="44.52041" lon="6.81482">
        <ele>2028.04</ele>
        <time>2015-04-06T06:06:57Z</time>
      </trkpt>
      <trkpt lat="44.52038" lon="6.81499">
        <ele>2029</ele>
        <time>2015-04-06T06:07:12Z</time>
      </trkpt>
      <trkpt lat="44.52036" lon="6.81518">
        <ele>2029</ele>
        <time>2015-04-06T06:07:27Z</time>
      </trkpt>
      <trkpt lat="44.52036" lon="6.81521">
        <ele>2029</ele>
        <time>2015-04-06T06:07:44Z</time>
      </trkpt>
      <trkpt lat="44.52034" lon="6.81525">
        <ele>2029.48</ele>
        <time>2015-04-06T06:08:05Z</time>
      </trkpt>
      <trkpt lat="44.52033" lon="6.81527">
        <ele>2029.48</ele>
        <time>2015-04-06T06:08:30Z</time>
      </trkpt>
      <trkpt lat="44.52032" lon="6.81536">
        <ele>2029.96</ele>
        <time>2015-04-06T06:08:43Z</time>
      </trkpt>
      <trkpt lat="44.52034" lon="6.81536">
        <ele>2029.96</ele>
        <time>2015-04-06T06:09:03Z</time>
      </trkpt>
      <trkpt lat="44.52035" lon="6.81534">
        <ele>2029.96</ele>
        <time>2015-04-06T06:09:30Z</time>
      </trkpt>
      <trkpt lat="44.52033" lon="6.81541">
        <ele>2029.96</ele>
        <time>2015-04-06T06:09:58Z</time>
      </trkpt>
      <trkpt lat="44.52029" lon="6.81554">
        <ele>2031.4</ele>
        <time>2015-04-06T06:10:14Z</time>
      </trkpt>
      <trkpt lat="44.52025" lon="6.81568">
        <ele>2031.88</ele>
        <time>2015-04-06T06:10:30Z</time>
      </trkpt>
      <trkpt lat="44.5202" lon="6.81578">
        <ele>2033.81</ele>
        <time>2015-04-06T06:10:44Z</time>
      </trkpt>
      <trkpt lat="44.52012" lon="6.81587">
        <ele>2035.73</ele>
        <time>2015-04-06T06:11:00Z</time>
      </trkpt>
      <trkpt lat="44.52004" lon="6.81593">
        <ele>2037.65</ele>
        <time>2015-04-06T06:11:15Z</time>
      </trkpt>
      <trkpt lat="44.51998" lon="6.81602">
        <ele>2039.57</ele>
        <time>2015-04-06T06:11:29Z</time>
      </trkpt>
      <trkpt lat="44.51991" lon="6.8161">
        <ele>2041.98</ele>
        <time>2015-04-06T06:11:44Z</time>
      </trkpt>
      <trkpt lat="44.51987" lon="6.81614">
        <ele>2043.9</ele>
        <time>2015-04-06T06:11:56Z</time>
      </trkpt>
      <trkpt lat="44.51983" lon="6.8162">
        <ele>2046.78</ele>
        <time>2015-04-06T06:12:11Z</time>
      </trkpt>
      <trkpt lat="44.51979" lon="6.81625">
        <ele>2048.71</ele>
        <time>2015-04-06T06:12:23Z</time>
      </trkpt>
      <trkpt lat="44.51971" lon="6.81624">
        <ele>2050.63</ele>
        <time>2015-04-06T06:12:39Z</time>
      </trkpt>
      <trkpt lat="44.51964" lon="6.81627">
        <ele>2052.55</ele>
        <time>2015-04-06T06:12:52Z</time>
      </trkpt>
      <trkpt lat="44.51956" lon="6.81634">
        <ele>2055.44</ele>
        <time>2015-04-06T06:13:08Z</time>
      </trkpt>
      <trkpt lat="44.51952" lon="6.81641">
        <ele>2057.36</ele>
        <time>2015-04-06T06:13:23Z</time>
      </trkpt>
      <trkpt lat="44.51947" lon="6.81641">
        <ele>2059.28</ele>
        <time>2015-04-06T06:13:34Z</time>
      </trkpt>
      <trkpt lat="44.51938" lon="6.81642">
        <ele>2061.2</ele>
        <time>2015-04-06T06:13:49Z</time>
      </trkpt>
      <trkpt lat="44.5193" lon="6.81643">
        <ele>2063.61</ele>
        <time>2015-04-06T06:14:05Z</time>
      </trkpt>
      <trkpt lat="44.51923" lon="6.81651">
        <ele>2065.53</ele>
        <time>2015-04-06T06:14:19Z</time>
      </trkpt>
      <trkpt lat="44.51919" lon="6.81658">
        <ele>2067.45</ele>
        <time>2015-04-06T06:14:32Z</time>
      </trkpt>
      <trkpt lat="44.51919" lon="6.81674">
        <ele>2068.89</ele>
        <time>2015-04-06T06:14:46Z</time>
      </trkpt>
      <trkpt lat="44.5192" lon="6.8168">
        <ele>2068.89</ele>
        <time>2015-04-06T06:14:52Z</time>
      </trkpt>
      <trkpt lat="44.51918" lon="6.81692">
        <ele>2071.3</ele>
        <time>2015-04-06T06:15:08Z</time>
      </trkpt>
      <trkpt lat="44.51914" lon="6.81698">
        <ele>2073.22</ele>
        <time>2015-04-06T06:15:22Z</time>
      </trkpt>
      <trkpt lat="44.5191" lon="6.81706">
        <ele>2075.62</ele>
        <time>2015-04-06T06:15:37Z</time>
      </trkpt>
      <trkpt lat="44.51905" lon="6.81716">
        <ele>2078.03</ele>
        <time>2015-04-06T06:15:51Z</time>
      </trkpt>
      <trkpt lat="44.51899" lon="6.81722">
        <ele>2079.47</ele>
        <time>2015-04-06T06:16:05Z</time>
      </trkpt>
      <trkpt lat="44.51895" lon="6.81729">
        <ele>2081.39</ele>
        <time>2015-04-06T06:16:17Z</time>
      </trkpt>
      <trkpt lat="44.51889" lon="6.8174">
        <ele>2083.31</ele>
        <time>2015-04-06T06:16:32Z</time>
      </trkpt>
      <trkpt lat="44.51883" lon="6.81746">
        <ele>2084.76</ele>
        <time>2015-04-06T06:16:45Z</time>
      </trkpt>
      <trkpt lat="44.51879" lon="6.81754">
        <ele>2086.68</ele>
        <time>2015-04-06T06:16:56Z</time>
      </trkpt>
      <trkpt lat="44.51872" lon="6.8177">
        <ele>2088.12</ele>
        <time>2015-04-06T06:17:12Z</time>
      </trkpt>
      <trkpt lat="44.51866" lon="6.81777">
        <ele>2090.04</ele>
        <time>2015-04-06T06:17:26Z</time>
      </trkpt>
      <trkpt lat="44.5186" lon="6.81784">
        <ele>2091.97</ele>
        <time>2015-04-06T06:17:39Z</time>
      </trkpt>
      <trkpt lat="44.51856" lon="6.81796">
        <ele>2094.37</ele>
        <time>2015-04-06T06:17:53Z</time>
      </trkpt>
      <trkpt lat="44.51857" lon="6.81808">
        <ele>2096.29</ele>
        <time>2015-04-06T06:18:08Z</time>
      </trkpt>
      <trkpt lat="44.51856" lon="6.81817">
        <ele>2098.7</ele>
        <time>2015-04-06T06:18:21Z</time>
      </trkpt>
      <trkpt lat="44.51854" lon="6.8183">
        <ele>2100.14</ele>
        <time>2015-04-06T06:18:35Z</time>
      </trkpt>
      <trkpt lat="44.51852" lon="6.81843">
        <ele>2102.54</ele>
        <time>2015-04-06T06:18:51Z</time>
      </trkpt>
      <trkpt lat="44.51849" lon="6.81855">
        <ele>2104.94</ele>
        <time>2015-04-06T06:19:06Z</time>
      </trkpt>
      <trkpt lat="44.51845" lon="6.81866">
        <ele>2106.39</ele>
        <time>2015-04-06T06:19:20Z</time>
      </trkpt>
      <trkpt lat="44.5184" lon="6.81878">
        <ele>2108.31</ele>
        <time>2015-04-06T06:19:34Z</time>
      </trkpt>
      <trkpt lat="44.51834" lon="6.8189">
        <ele>2109.75</ele>
        <time>2015-04-06T06:19:49Z</time>
      </trkpt>
      <trkpt lat="44.51828" lon="6.81898">
        <ele>2111.67</ele>
        <time>2015-04-06T06:20:04Z</time>
      </trkpt>
      <trkpt lat="44.51823" lon="6.81908">
        <ele>2113.12</ele>
        <time>2015-04-06T06:20:17Z</time>
      </trkpt>
      <trkpt lat="44.51817" lon="6.8192">
        <ele>2115.04</ele>
        <time>2015-04-06T06:20:31Z</time>
      </trkpt>
      <trkpt lat="44.51811" lon="6.81935">
        <ele>2116.48</ele>
        <time>2015-04-06T06:20:47Z</time>
      </trkpt>
      <trkpt lat="44.51805" lon="6.81948">
        <ele>2118.4</ele>
        <time>2015-04-06T06:21:02Z</time>
      </trkpt>
      <trkpt lat="44.51801" lon="6.81959">
        <ele>2120.32</ele>
        <time>2015-04-06T06:21:16Z</time>
      </trkpt>
      <trkpt lat="44.51795" lon="6.8197">
        <ele>2121.77</ele>
        <time>2015-04-06T06:21:29Z</time>
      </trkpt>
      <trkpt lat="44.51791" lon="6.81982">
        <ele>2123.69</ele>
        <time>2015-04-06T06:21:44Z</time>
      </trkpt>
      <trkpt lat="44.51786" lon="6.81992">
        <ele>2126.09</ele>
        <time>2015-04-06T06:21:57Z</time>
      </trkpt>
      <trkpt lat="44.51779" lon="6.82006">
        <ele>2127.05</ele>
        <time>2015-04-06T06:22:12Z</time>
      </trkpt>
      <trkpt lat="44.51773" lon="6.82019">
        <ele>2128.02</ele>
        <time>2015-04-06T06:22:27Z</time>
      </trkpt>
      <trkpt lat="44.51767" lon="6.82031">
        <ele>2130.42</ele>
        <time>2015-04-06T06:22:41Z</time>
      </trkpt>
      <trkpt lat="44.51767" lon="6.82044">
        <ele>2132.34</ele>
        <time>2015-04-06T06:22:55Z</time>
      </trkpt>
      <trkpt lat="44.51767" lon="6.82058">
        <ele>2134.26</ele>
        <time>2015-04-06T06:23:10Z</time>
      </trkpt>
      <trkpt lat="44.51766" lon="6.8207">
        <ele>2136.67</ele>
        <time>2015-04-06T06:23:25Z</time>
      </trkpt>
      <trkpt lat="44.51764" lon="6.82079">
        <ele>2138.59</ele>
        <time>2015-04-06T06:23:37Z</time>
      </trkpt>
      <trkpt lat="44.51761" lon="6.82089">
        <ele>2140.03</ele>
        <time>2015-04-06T06:23:51Z</time>
      </trkpt>
      <trkpt lat="44.51756" lon="6.82098">
        <ele>2142.44</ele>
        <time>2015-04-06T06:24:04Z</time>
      </trkpt>
      <trkpt lat="44.51751" lon="6.82104">
        <ele>2144.84</ele>
        <time>2015-04-06T06:24:18Z</time>
      </trkpt>
      <trkpt lat="44.51746" lon="6.82111">
        <ele>2146.76</ele>
        <time>2015-04-06T06:24:31Z</time>
      </trkpt>
      <trkpt lat="44.5174" lon="6.82115">
        <ele>2149.16</ele>
        <time>2015-04-06T06:24:46Z</time>
      </trkpt>
      <trkpt lat="44.51734" lon="6.82124">
        <ele>2151.09</ele>
        <time>2015-04-06T06:25:00Z</time>
      </trkpt>
      <trkpt lat="44.51728" lon="6.82133">
        <ele>2153.01</ele>
        <time>2015-04-06T06:25:14Z</time>
      </trkpt>
      <trkpt lat="44.51722" lon="6.82141">
        <ele>2154.93</ele>
        <time>2015-04-06T06:25:28Z</time>
      </trkpt>
      <trkpt lat="44.51718" lon="6.82149">
        <ele>2156.86</ele>
        <time>2015-04-06T06:25:39Z</time>
      </trkpt>
      <trkpt lat="44.51713" lon="6.82155">
        <ele>2158.3</ele>
        <time>2015-04-06T06:25:53Z</time>
      </trkpt>
      <trkpt lat="44.51707" lon="6.82164">
        <ele>2160.22</ele>
        <time>2015-04-06T06:26:07Z</time>
      </trkpt>
      <trkpt lat="44.51701" lon="6.82173">
        <ele>2162.62</ele>
        <time>2015-04-06T06:26:22Z</time>
      </trkpt>
      <trkpt lat="44.51698" lon="6.82184">
        <ele>2165.03</ele>
        <time>2015-04-06T06:26:38Z</time>
      </trkpt>
      <trkpt lat="44.51695" lon="6.82196">
        <ele>2167.43</ele>
        <time>2015-04-06T06:26:54Z</time>
      </trkpt>
      <trkpt lat="44.5169" lon="6.82209">
        <ele>2169.35</ele>
        <time>2015-04-06T06:27:09Z</time>
      </trkpt>
      <trkpt lat="44.51688" lon="6.82221">
        <ele>2170.79</ele>
        <time>2015-04-06T06:27:23Z</time>
      </trkpt>
      <trkpt lat="44.51684" lon="6.82233">
        <ele>2173.2</ele>
        <time>2015-04-06T06:27:39Z</time>
      </trkpt>
      <trkpt lat="44.51678" lon="6.82242">
        <ele>2175.12</ele>
        <time>2015-04-06T06:27:54Z</time>
      </trkpt>
      <trkpt lat="44.51672" lon="6.82255">
        <ele>2177.04</ele>
        <time>2015-04-06T06:28:10Z</time>
      </trkpt>
      <trkpt lat="44.51668" lon="6.82262">
        <ele>2178.48</ele>
        <time>2015-04-06T06:28:24Z</time>
      </trkpt>
      <trkpt lat="44.5166" lon="6.82272">
        <ele>2179.93</ele>
        <time>2015-04-06T06:28:39Z</time>
      </trkpt>
      <trkpt lat="44.5165" lon="6.82284">
        <ele>2182.33</ele>
        <time>2015-04-06T06:28:55Z</time>
      </trkpt>
      <trkpt lat="44.51645" lon="6.82296">
        <ele>2184.25</ele>
        <time>2015-04-06T06:29:10Z</time>
      </trkpt>
      <trkpt lat="44.51645" lon="6.82311">
        <ele>2186.66</ele>
        <time>2015-04-06T06:29:27Z</time>
      </trkpt>
      <trkpt lat="44.51651" lon="6.82314">
        <ele>2188.58</ele>
        <time>2015-04-06T06:29:41Z</time>
      </trkpt>
      <trkpt lat="44.51657" lon="6.82314">
        <ele>2190.02</ele>
        <time>2015-04-06T06:29:53Z</time>
      </trkpt>
      <trkpt lat="44.51662" lon="6.82316">
        <ele>2191.46</ele>
        <time>2015-04-06T06:30:07Z</time>
      </trkpt>
      <trkpt lat="44.51668" lon="6.82319">
        <ele>2193.39</ele>
        <time>2015-04-06T06:30:19Z</time>
      </trkpt>
      <trkpt lat="44.51669" lon="6.82325">
        <ele>2194.83</ele>
        <time>2015-04-06T06:30:30Z</time>
      </trkpt>
      <trkpt lat="44.51667" lon="6.82328">
        <ele>2196.27</ele>
        <time>2015-04-06T06:30:42Z</time>
      </trkpt>
      <trkpt lat="44.51662" lon="6.82337">
        <ele>2198.67</ele>
        <time>2015-04-06T06:30:57Z</time>
      </trkpt>
      <trkpt lat="44.51656" lon="6.82346">
        <ele>2200.59</ele>
        <time>2015-04-06T06:31:12Z</time>
      </trkpt>
      <trkpt lat="44.51648" lon="6.82359">
        <ele>2202.04</ele>
        <time>2015-04-06T06:31:28Z</time>
      </trkpt>
      <trkpt lat="44.51641" lon="6.82372">
        <ele>2203.48</ele>
        <time>2015-04-06T06:31:43Z</time>
      </trkpt>
      <trkpt lat="44.51634" lon="6.82383">
        <ele>2205.4</ele>
        <time>2015-04-06T06:31:58Z</time>
      </trkpt>
      <trkpt lat="44.51626" lon="6.82394">
        <ele>2206.84</ele>
        <time>2015-04-06T06:32:13Z</time>
      </trkpt>
      <trkpt lat="44.51619" lon="6.82404">
        <ele>2208.29</ele>
        <time>2015-04-06T06:32:27Z</time>
      </trkpt>
      <trkpt lat="44.51611" lon="6.82415">
        <ele>2210.21</ele>
        <time>2015-04-06T06:32:42Z</time>
      </trkpt>
      <trkpt lat="44.51605" lon="6.82426">
        <ele>2211.65</ele>
        <time>2015-04-06T06:32:56Z</time>
      </trkpt>
      <trkpt lat="44.51597" lon="6.82441">
        <ele>2212.13</ele>
        <time>2015-04-06T06:33:10Z</time>
      </trkpt>
      <trkpt lat="44.51589" lon="6.82457">
        <ele>2212.61</ele>
        <time>2015-04-06T06:33:25Z</time>
      </trkpt>
      <trkpt lat="44.51581" lon="6.82468">
        <ele>2214.05</ele>
        <time>2015-04-06T06:33:39Z</time>
      </trkpt>
      <trkpt lat="44.51572" lon="6.82479">
        <ele>2215.5</ele>
        <time>2015-04-06T06:33:54Z</time>
      </trkpt>
      <trkpt lat="44.51562" lon="6.82489">
        <ele>2216.94</ele>
        <time>2015-04-06T06:34:10Z</time>
      </trkpt>
      <trkpt lat="44.51555" lon="6.82501">
        <ele>2217.9</ele>
        <time>2015-04-06T06:34:23Z</time>
      </trkpt>
      <trkpt lat="44.51544" lon="6.82516">
        <ele>2218.38</ele>
        <time>2015-04-06T06:34:38Z</time>
      </trkpt>
      <trkpt lat="44.51533" lon="6.82524">
        <ele>2219.82</ele>
        <time>2015-04-06T06:34:53Z</time>
      </trkpt>
      <trkpt lat="44.51522" lon="6.8254">
        <ele>2220.3</ele>
        <time>2015-04-06T06:35:08Z</time>
      </trkpt>
      <trkpt lat="44.51517" lon="6.82548">
        <ele>2220.3</ele>
        <time>2015-04-06T06:35:16Z</time>
      </trkpt>
      <trkpt lat="44.51509" lon="6.82564">
        <ele>2221.74</ele>
        <time>2015-04-06T06:35:31Z</time>
      </trkpt>
      <trkpt lat="44.51504" lon="6.82576">
        <ele>2223.19</ele>
        <time>2015-04-06T06:35:45Z</time>
      </trkpt>
      <trkpt lat="44.51499" lon="6.82584">
        <ele>2224.15</ele>
        <time>2015-04-06T06:36:00Z</time>
      </trkpt>
      <trkpt lat="44.51492" lon="6.82601">
        <ele>2225.59</ele>
        <time>2015-04-06T06:36:15Z</time>
      </trkpt>
      <trkpt lat="44.51488" lon="6.82612">
        <ele>2226.07</ele>
        <time>2015-04-06T06:36:25Z</time>
      </trkpt>
      <trkpt lat="44.51482" lon="6.82627">
        <ele>2227.51</ele>
        <time>2015-04-06T06:36:39Z</time>
      </trkpt>
      <trkpt lat="44.51476" lon="6.82642">
        <ele>2228.47</ele>
        <time>2015-04-06T06:36:53Z</time>
      </trkpt>
      <trkpt lat="44.51474" lon="6.82647">
        <ele>2228.47</ele>
        <time>2015-04-06T06:36:58Z</time>
      </trkpt>
      <trkpt lat="44.51466" lon="6.82661">
        <ele>2229.43</ele>
        <time>2015-04-06T06:37:12Z</time>
      </trkpt>
      <trkpt lat="44.51461" lon="6.82675">
        <ele>2230.88</ele>
        <time>2015-04-06T06:37:25Z</time>
      </trkpt>
      <trkpt lat="44.51455" lon="6.82687">
        <ele>2232.32</ele>
        <time>2015-04-06T06:37:39Z</time>
      </trkpt>
      <trkpt lat="44.51451" lon="6.82697">
        <ele>2233.76</ele>
        <time>2015-04-06T06:37:52Z</time>
      </trkpt>
      <trkpt lat="44.51446" lon="6.82707">
        <ele>2235.2</ele>
        <time>2015-04-06T06:38:05Z</time>
      </trkpt>
      <trkpt lat="44.51441" lon="6.82719">
        <ele>2236.16</ele>
        <time>2015-04-06T06:38:18Z</time>
      </trkpt>
      <trkpt lat="44.51437" lon="6.82728">
        <ele>2237.13</ele>
        <time>2015-04-06T06:38:27Z</time>
      </trkpt>
      <trkpt lat="44.51431" lon="6.82738">
        <ele>2237.13</ele>
        <time>2015-04-06T06:38:38Z</time>
      </trkpt>
      <trkpt lat="44.51424" lon="6.82754">
        <ele>2237.61</ele>
        <time>2015-04-06T06:38:53Z</time>
      </trkpt>
      <trkpt lat="44.5142" lon="6.82762">
        <ele>2238.09</ele>
        <time>2015-04-06T06:39:02Z</time>
      </trkpt>
      <trkpt lat="44.51415" lon="6.82778">
        <ele>2239.05</ele>
        <time>2015-04-06T06:39:17Z</time>
      </trkpt>
      <trkpt lat="44.51411" lon="6.82793">
        <ele>2240.01</ele>
        <time>2015-04-06T06:39:30Z</time>
      </trkpt>
      <trkpt lat="44.51406" lon="6.82803">
        <ele>2240.01</ele>
        <time>2015-04-06T06:39:39Z</time>
      </trkpt>
      <trkpt lat="44.51404" lon="6.82807">
        <ele>2240.49</ele>
        <time>2015-04-06T06:39:43Z</time>
      </trkpt>
      <trkpt lat="44.51394" lon="6.8282">
        <ele>2241.45</ele>
        <time>2015-04-06T06:39:58Z</time>
      </trkpt>
      <trkpt lat="44.51386" lon="6.82829">
        <ele>2243.85</ele>
        <time>2015-04-06T06:40:13Z</time>
      </trkpt>
      <trkpt lat="44.51379" lon="6.82838">
        <ele>2246.26</ele>
        <time>2015-04-06T06:40:27Z</time>
      </trkpt>
      <trkpt lat="44.5138" lon="6.82853">
        <ele>2248.18</ele>
        <time>2015-04-06T06:40:41Z</time>
      </trkpt>
      <trkpt lat="44.51384" lon="6.82868">
        <ele>2250.58</ele>
        <time>2015-04-06T06:40:56Z</time>
      </trkpt>
      <trkpt lat="44.51382" lon="6.8288">
        <ele>2252.51</ele>
        <time>2015-04-06T06:41:11Z</time>
      </trkpt>
      <trkpt lat="44.51379" lon="6.82891">
        <ele>2254.91</ele>
        <time>2015-04-06T06:41:25Z</time>
      </trkpt>
      <trkpt lat="44.51376" lon="6.829">
        <ele>2255.87</ele>
        <time>2015-04-06T06:41:38Z</time>
      </trkpt>
      <trkpt lat="44.51372" lon="6.8291">
        <ele>2257.79</ele>
        <time>2015-04-06T06:41:51Z</time>
      </trkpt>
      <trkpt lat="44.51372" lon="6.82922">
        <ele>2259.72</ele>
        <time>2015-04-06T06:42:04Z</time>
      </trkpt>
      <trkpt lat="44.51371" lon="6.82937">
        <ele>2260.68</ele>
        <time>2015-04-06T06:42:19Z</time>
      </trkpt>
      <trkpt lat="44.51371" lon="6.82938">
        <ele>2260.68</ele>
        <time>2015-04-06T06:42:20Z</time>
      </trkpt>
      <trkpt lat="44.51367" lon="6.82952">
        <ele>2261.64</ele>
        <time>2015-04-06T06:42:35Z</time>
      </trkpt>
      <trkpt lat="44.51363" lon="6.82962">
        <ele>2263.08</ele>
        <time>2015-04-06T06:42:48Z</time>
      </trkpt>
      <trkpt lat="44.51358" lon="6.82975">
        <ele>2265</ele>
        <time>2015-04-06T06:43:03Z</time>
      </trkpt>
      <trkpt lat="44.51354" lon="6.82988">
        <ele>2265.96</ele>
        <time>2015-04-06T06:43:16Z</time>
      </trkpt>
      <trkpt lat="44.51348" lon="6.83">
        <ele>2267.41</ele>
        <time>2015-04-06T06:43:31Z</time>
      </trkpt>
      <trkpt lat="44.51346" lon="6.83013">
        <ele>2268.85</ele>
        <time>2015-04-06T06:43:45Z</time>
      </trkpt>
      <trkpt lat="44.5134" lon="6.83026">
        <ele>2270.29</ele>
        <time>2015-04-06T06:43:59Z</time>
      </trkpt>
      <trkpt lat="44.51336" lon="6.83039">
        <ele>2272.21</ele>
        <time>2015-04-06T06:44:15Z</time>
      </trkpt>
      <trkpt lat="44.51333" lon="6.83051">
        <ele>2273.17</ele>
        <time>2015-04-06T06:44:27Z</time>
      </trkpt>
      <trkpt lat="44.51327" lon="6.83065">
        <ele>2274.14</ele>
        <time>2015-04-06T06:44:41Z</time>
      </trkpt>
      <trkpt lat="44.51319" lon="6.83078">
        <ele>2274.62</ele>
        <time>2015-04-06T06:44:55Z</time>
      </trkpt>
      <trkpt lat="44.51313" lon="6.83095">
        <ele>2277.02</ele>
        <time>2015-04-06T06:45:10Z</time>
      </trkpt>
      <trkpt lat="44.51314" lon="6.83098">
        <ele>2277.02</ele>
        <time>2015-04-06T06:45:12Z</time>
      </trkpt>
      <trkpt lat="44.51312" lon="6.8311">
        <ele>2277.98</ele>
        <time>2015-04-06T06:45:23Z</time>
      </trkpt>
      <trkpt lat="44.5131" lon="6.83122">
        <ele>2278.46</ele>
        <time>2015-04-06T06:45:33Z</time>
      </trkpt>
      <trkpt lat="44.51306" lon="6.8314">
        <ele>2279.42</ele>
        <time>2015-04-06T06:45:47Z</time>
      </trkpt>
      <trkpt lat="44.51306" lon="6.83141">
        <ele>2279.42</ele>
        <time>2015-04-06T06:45:48Z</time>
      </trkpt>
      <trkpt lat="44.51305" lon="6.83147">
        <ele>2279.42</ele>
        <time>2015-04-06T06:45:53Z</time>
      </trkpt>
      <trkpt lat="44.51298" lon="6.83163">
        <ele>2280.38</ele>
        <time>2015-04-06T06:46:08Z</time>
      </trkpt>
      <trkpt lat="44.51291" lon="6.83176">
        <ele>2281.83</ele>
        <time>2015-04-06T06:46:21Z</time>
      </trkpt>
      <trkpt lat="44.51285" lon="6.8319">
        <ele>2282.79</ele>
        <time>2015-04-06T06:46:35Z</time>
      </trkpt>
      <trkpt lat="44.51285" lon="6.8319">
        <ele>2282.79</ele>
        <time>2015-04-06T06:46:36Z</time>
      </trkpt>
      <trkpt lat="44.51275" lon="6.83205">
        <ele>2284.23</ele>
        <time>2015-04-06T06:46:52Z</time>
      </trkpt>
      <trkpt lat="44.51268" lon="6.83219">
        <ele>2285.67</ele>
        <time>2015-04-06T06:47:06Z</time>
      </trkpt>
      <trkpt lat="44.51261" lon="6.83235">
        <ele>2286.15</ele>
        <time>2015-04-06T06:47:20Z</time>
      </trkpt>
      <trkpt lat="44.51255" lon="6.83249">
        <ele>2288.08</ele>
        <time>2015-04-06T06:47:34Z</time>
      </trkpt>
      <trkpt lat="44.51248" lon="6.83261">
        <ele>2289.52</ele>
        <time>2015-04-06T06:47:47Z</time>
      </trkpt>
      <trkpt lat="44.51242" lon="6.83274">
        <ele>2291.44</ele>
        <time>2015-04-06T06:48:01Z</time>
      </trkpt>
      <trkpt lat="44.51235" lon="6.83289">
        <ele>2292.4</ele>
        <time>2015-04-06T06:48:16Z</time>
      </trkpt>
      <trkpt lat="44.51229" lon="6.83303">
        <ele>2293.84</ele>
        <time>2015-04-06T06:48:30Z</time>
      </trkpt>
      <trkpt lat="44.51224" lon="6.83313">
        <ele>2294.32</ele>
        <time>2015-04-06T06:48:45Z</time>
      </trkpt>
      <trkpt lat="44.51221" lon="6.83321">
        <ele>2294.32</ele>
        <time>2015-04-06T06:48:58Z</time>
      </trkpt>
      <trkpt lat="44.5122" lon="6.83321">
        <ele>2293.84</ele>
        <time>2015-04-06T06:49:12Z</time>
      </trkpt>
      <trkpt lat="44.51219" lon="6.83308">
        <ele>2290.48</ele>
        <time>2015-04-06T06:49:20Z</time>
      </trkpt>
      <trkpt lat="44.51218" lon="6.83307">
        <ele>2290</ele>
        <time>2015-04-06T06:49:29Z</time>
      </trkpt>
      <trkpt lat="44.51206" lon="6.83316">
        <ele>2288.08</ele>
        <time>2015-04-06T06:49:41Z</time>
      </trkpt>
      <trkpt lat="44.51203" lon="6.83328">
        <ele>2289.52</ele>
        <time>2015-04-06T06:49:53Z</time>
      </trkpt>
      <trkpt lat="44.51201" lon="6.83334">
        <ele>2290</ele>
        <time>2015-04-06T06:49:58Z</time>
      </trkpt>
      <trkpt lat="44.51202" lon="6.83351">
        <ele>2290.48</ele>
        <time>2015-04-06T06:50:13Z</time>
      </trkpt>
      <trkpt lat="44.51199" lon="6.83363">
        <ele>2291.92</ele>
        <time>2015-04-06T06:50:27Z</time>
      </trkpt>
      <trkpt lat="44.51194" lon="6.83375">
        <ele>2293.36</ele>
        <time>2015-04-06T06:50:41Z</time>
      </trkpt>
      <trkpt lat="44.51188" lon="6.83385">
        <ele>2294.8</ele>
        <time>2015-04-06T06:50:55Z</time>
      </trkpt>
      <trkpt lat="44.51188" lon="6.83385">
        <ele>2294.8</ele>
        <time>2015-04-06T06:50:56Z</time>
      </trkpt>
      <trkpt lat="44.51183" lon="6.83392">
        <ele>2294.8</ele>
        <time>2015-04-06T06:51:10Z</time>
      </trkpt>
      <trkpt lat="44.51173" lon="6.83402">
        <ele>2294.8</ele>
        <time>2015-04-06T06:51:23Z</time>
      </trkpt>
      <trkpt lat="44.51172" lon="6.83403">
        <ele>2294.8</ele>
        <time>2015-04-06T06:51:24Z</time>
      </trkpt>
      <trkpt lat="44.51164" lon="6.83415">
        <ele>2296.73</ele>
        <time>2015-04-06T06:51:39Z</time>
      </trkpt>
      <trkpt lat="44.51157" lon="6.83427">
        <ele>2298.17</ele>
        <time>2015-04-06T06:51:54Z</time>
      </trkpt>
      <trkpt lat="44.51148" lon="6.83438">
        <ele>2300.09</ele>
        <time>2015-04-06T06:52:08Z</time>
      </trkpt>
      <trkpt lat="44.51145" lon="6.83451">
        <ele>2301.53</ele>
        <time>2015-04-06T06:52:22Z</time>
      </trkpt>
      <trkpt lat="44.51141" lon="6.83464">
        <ele>2302.98</ele>
        <time>2015-04-06T06:52:36Z</time>
      </trkpt>
      <trkpt lat="44.51134" lon="6.83476">
        <ele>2303.94</ele>
        <time>2015-04-06T06:52:50Z</time>
      </trkpt>
      <trkpt lat="44.51134" lon="6.83476">
        <ele>2303.94</ele>
        <time>2015-04-06T06:52:51Z</time>
      </trkpt>
      <trkpt lat="44.51129" lon="6.83491">
        <ele>2305.86</ele>
        <time>2015-04-06T06:53:06Z</time>
      </trkpt>
      <trkpt lat="44.51124" lon="6.835">
        <ele>2307.3</ele>
        <time>2015-04-06T06:53:19Z</time>
      </trkpt>
      <trkpt lat="44.5112" lon="6.8351">
        <ele>2308.74</ele>
        <time>2015-04-06T06:53:33Z</time>
      </trkpt>
      <trkpt lat="44.51114" lon="6.83518">
        <ele>2311.15</ele>
        <time>2015-04-06T06:53:47Z</time>
      </trkpt>
      <trkpt lat="44.51108" lon="6.83529">
        <ele>2313.07</ele>
        <time>2015-04-06T06:54:01Z</time>
      </trkpt>
      <trkpt lat="44.51104" lon="6.83541">
        <ele>2314.99</ele>
        <time>2015-04-06T06:54:15Z</time>
      </trkpt>
      <trkpt lat="44.51098" lon="6.83551">
        <ele>2316.43</ele>
        <time>2015-04-06T06:54:29Z</time>
      </trkpt>
      <trkpt lat="44.51095" lon="6.83561">
        <ele>2318.36</ele>
        <time>2015-04-06T06:54:41Z</time>
      </trkpt>
      <trkpt lat="44.51091" lon="6.83571">
        <ele>2320.28</ele>
        <time>2015-04-06T06:54:56Z</time>
      </trkpt>
      <trkpt lat="44.51085" lon="6.8358">
        <ele>2321.72</ele>
        <time>2015-04-06T06:55:09Z</time>
      </trkpt>
      <trkpt lat="44.5108" lon="6.83594">
        <ele>2324.12</ele>
        <time>2015-04-06T06:55:25Z</time>
      </trkpt>
      <trkpt lat="44.51079" lon="6.8361">
        <ele>2325.57</ele>
        <time>2015-04-06T06:55:40Z</time>
      </trkpt>
      <trkpt lat="44.51078" lon="6.83618">
        <ele>2325.57</ele>
        <time>2015-04-06T06:55:48Z</time>
      </trkpt>
      <trkpt lat="44.5108" lon="6.83639">
        <ele>2325.57</ele>
        <time>2015-04-06T06:56:05Z</time>
      </trkpt>
      <trkpt lat="44.51078" lon="6.83649">
        <ele>2326.05</ele>
        <time>2015-04-06T06:56:19Z</time>
      </trkpt>
      <trkpt lat="44.51072" lon="6.83659">
        <ele>2326.05</ele>
        <time>2015-04-06T06:56:32Z</time>
      </trkpt>
      <trkpt lat="44.51063" lon="6.83671">
        <ele>2327.97</ele>
        <time>2015-04-06T06:56:48Z</time>
      </trkpt>
      <trkpt lat="44.51058" lon="6.83686">
        <ele>2329.89</ele>
        <time>2015-04-06T06:57:02Z</time>
      </trkpt>
      <trkpt lat="44.51063" lon="6.83698">
        <ele>2332.3</ele>
        <time>2015-04-06T06:57:18Z</time>
      </trkpt>
      <trkpt lat="44.5106" lon="6.83707">
        <ele>2334.22</ele>
        <time>2015-04-06T06:57:33Z</time>
      </trkpt>
      <trkpt lat="44.51063" lon="6.8371">
        <ele>2336.14</ele>
        <time>2015-04-06T06:57:47Z</time>
      </trkpt>
      <trkpt lat="44.51071" lon="6.83709">
        <ele>2337.1</ele>
        <time>2015-04-06T06:57:59Z</time>
      </trkpt>
      <trkpt lat="44.5107" lon="6.83707">
        <ele>2338.06</ele>
        <time>2015-04-06T06:58:14Z</time>
      </trkpt>
      <trkpt lat="44.51069" lon="6.83718">
        <ele>2339.99</ele>
        <time>2015-04-06T06:58:29Z</time>
      </trkpt>
      <trkpt lat="44.51074" lon="6.83729">
        <ele>2341.91</ele>
        <time>2015-04-06T06:58:42Z</time>
      </trkpt>
      <trkpt lat="44.51081" lon="6.83741">
        <ele>2344.31</ele>
        <time>2015-04-06T06:58:57Z</time>
      </trkpt>
      <trkpt lat="44.51087" lon="6.8375">
        <ele>2347.2</ele>
        <time>2015-04-06T06:59:14Z</time>
      </trkpt>
      <trkpt lat="44.5109" lon="6.83757">
        <ele>2349.12</ele>
        <time>2015-04-06T06:59:27Z</time>
      </trkpt>
      <trkpt lat="44.51091" lon="6.83761">
        <ele>2350.56</ele>
        <time>2015-04-06T06:59:40Z</time>
      </trkpt>
      <trkpt lat="44.51093" lon="6.83764">
        <ele>2351.04</ele>
        <time>2015-04-06T06:59:52Z</time>
      </trkpt>
      <trkpt lat="44.51096" lon="6.83779">
        <ele>2352.48</ele>
        <time>2015-04-06T07:00:07Z</time>
      </trkpt>
      <trkpt lat="44.51099" lon="6.83792">
        <ele>2353.44</ele>
        <time>2015-04-06T07:00:19Z</time>
      </trkpt>
      <trkpt lat="44.51102" lon="6.83807">
        <ele>2353.93</ele>
        <time>2015-04-06T07:00:33Z</time>
      </trkpt>
      <trkpt lat="44.51099" lon="6.83824">
        <ele>2354.41</ele>
        <time>2015-04-06T07:00:48Z</time>
      </trkpt>
      <trkpt lat="44.51092" lon="6.83838">
        <ele>2355.85</ele>
        <time>2015-04-06T07:01:03Z</time>
      </trkpt>
      <trkpt lat="44.51085" lon="6.83848">
        <ele>2356.33</ele>
        <time>2015-04-06T07:01:13Z</time>
      </trkpt>
      <trkpt lat="44.51083" lon="6.83854">
        <ele>2356.33</ele>
        <time>2015-04-06T07:01:18Z</time>
      </trkpt>
      <trkpt lat="44.51075" lon="6.83874">
        <ele>2355.85</ele>
        <time>2015-04-06T07:01:33Z</time>
      </trkpt>
      <trkpt lat="44.51069" lon="6.83887">
        <ele>2356.81</ele>
        <time>2015-04-06T07:01:47Z</time>
      </trkpt>
      <trkpt lat="44.51064" lon="6.83897">
        <ele>2358.25</ele>
        <time>2015-04-06T07:02:00Z</time>
      </trkpt>
      <trkpt lat="44.51056" lon="6.83911">
        <ele>2360.17</ele>
        <time>2015-04-06T07:02:14Z</time>
      </trkpt>
      <trkpt lat="44.5105" lon="6.83923">
        <ele>2361.14</ele>
        <time>2015-04-06T07:02:27Z</time>
      </trkpt>
      <trkpt lat="44.51045" lon="6.83939">
        <ele>2362.1</ele>
        <time>2015-04-06T07:02:42Z</time>
      </trkpt>
      <trkpt lat="44.5104" lon="6.83954">
        <ele>2363.06</ele>
        <time>2015-04-06T07:02:56Z</time>
      </trkpt>
      <trkpt lat="44.51039" lon="6.83957">
        <ele>2363.54</ele>
        <time>2015-04-06T07:02:59Z</time>
      </trkpt>
      <trkpt lat="44.51036" lon="6.83972">
        <ele>2364.5</ele>
        <time>2015-04-06T07:03:14Z</time>
      </trkpt>
      <trkpt lat="44.51036" lon="6.83989">
        <ele>2366.42</ele>
        <time>2015-04-06T07:03:30Z</time>
      </trkpt>
      <trkpt lat="44.51035" lon="6.84003">
        <ele>2366.42</ele>
        <time>2015-04-06T07:03:45Z</time>
      </trkpt>
      <trkpt lat="44.51033" lon="6.84011">
        <ele>2366.9</ele>
        <time>2015-04-06T07:03:53Z</time>
      </trkpt>
      <trkpt lat="44.51027" lon="6.84022">
        <ele>2367.38</ele>
        <time>2015-04-06T07:04:06Z</time>
      </trkpt>
      <trkpt lat="44.51025" lon="6.84025">
        <ele>2367.38</ele>
        <time>2015-04-06T07:04:10Z</time>
      </trkpt>
      <trkpt lat="44.51016" lon="6.84034">
        <ele>2368.35</ele>
        <time>2015-04-06T07:04:24Z</time>
      </trkpt>
      <trkpt lat="44.51006" lon="6.84041">
        <ele>2368.35</ele>
        <time>2015-04-06T07:04:37Z</time>
      </trkpt>
      <trkpt lat="44.51002" lon="6.84043">
        <ele>2367.86</ele>
        <time>2015-04-06T07:04:42Z</time>
      </trkpt>
      <trkpt lat="44.50996" lon="6.84047">
        <ele>2366.9</ele>
        <time>2015-04-06T07:04:48Z</time>
      </trkpt>
      <trkpt lat="44.50992" lon="6.84054">
        <ele>2366.9</ele>
        <time>2015-04-06T07:04:55Z</time>
      </trkpt>
      <trkpt lat="44.50988" lon="6.84059">
        <ele>2366.9</ele>
        <time>2015-04-06T07:05:00Z</time>
      </trkpt>
      <trkpt lat="44.5098" lon="6.8407">
        <ele>2367.38</ele>
        <time>2015-04-06T07:05:13Z</time>
      </trkpt>
      <trkpt lat="44.50968" lon="6.84079">
        <ele>2367.86</ele>
        <time>2015-04-06T07:05:27Z</time>
      </trkpt>
      <trkpt lat="44.50956" lon="6.8409">
        <ele>2368.35</ele>
        <time>2015-04-06T07:05:41Z</time>
      </trkpt>
      <trkpt lat="44.50948" lon="6.84097">
        <ele>2370.27</ele>
        <time>2015-04-06T07:05:55Z</time>
      </trkpt>
      <trkpt lat="44.5094" lon="6.84105">
        <ele>2372.19</ele>
        <time>2015-04-06T07:06:09Z</time>
      </trkpt>
      <trkpt lat="44.50929" lon="6.84114">
        <ele>2372.67</ele>
        <time>2015-04-06T07:06:23Z</time>
      </trkpt>
      <trkpt lat="44.50921" lon="6.84114">
        <ele>2374.11</ele>
        <time>2015-04-06T07:06:36Z</time>
      </trkpt>
      <trkpt lat="44.50912" lon="6.84115">
        <ele>2375.07</ele>
        <time>2015-04-06T07:06:51Z</time>
      </trkpt>
      <trkpt lat="44.50904" lon="6.84116">
        <ele>2376.04</ele>
        <time>2015-04-06T07:07:03Z</time>
      </trkpt>
      <trkpt lat="44.50898" lon="6.84117">
        <ele>2376.04</ele>
        <time>2015-04-06T07:07:14Z</time>
      </trkpt>
      <trkpt lat="44.50892" lon="6.84118">
        <ele>2376.52</ele>
        <time>2015-04-06T07:07:26Z</time>
      </trkpt>
      <trkpt lat="44.50884" lon="6.84124">
        <ele>2377.96</ele>
        <time>2015-04-06T07:07:39Z</time>
      </trkpt>
      <trkpt lat="44.50877" lon="6.84132">
        <ele>2378.44</ele>
        <time>2015-04-06T07:07:50Z</time>
      </trkpt>
      <trkpt lat="44.50873" lon="6.84141">
        <ele>2378.92</ele>
        <time>2015-04-06T07:08:02Z</time>
      </trkpt>
      <trkpt lat="44.50869" lon="6.8415">
        <ele>2379.4</ele>
        <time>2015-04-06T07:08:15Z</time>
      </trkpt>
      <trkpt lat="44.50863" lon="6.84158">
        <ele>2381.32</ele>
        <time>2015-04-06T07:08:28Z</time>
      </trkpt>
      <trkpt lat="44.50856" lon="6.84167">
        <ele>2382.28</ele>
        <time>2015-04-06T07:08:42Z</time>
      </trkpt>
      <trkpt lat="44.50849" lon="6.84177">
        <ele>2383.73</ele>
        <time>2015-04-06T07:08:56Z</time>
      </trkpt>
      <trkpt lat="44.50841" lon="6.84185">
        <ele>2385.17</ele>
        <time>2015-04-06T07:09:10Z</time>
      </trkpt>
      <trkpt lat="44.5083" lon="6.8419">
        <ele>2387.57</ele>
        <time>2015-04-06T07:09:27Z</time>
      </trkpt>
      <trkpt lat="44.50822" lon="6.84193">
        <ele>2389.97</ele>
        <time>2015-04-06T07:09:42Z</time>
      </trkpt>
      <trkpt lat="44.50813" lon="6.84197">
        <ele>2391.42</ele>
        <time>2015-04-06T07:09:56Z</time>
      </trkpt>
      <trkpt lat="44.50804" lon="6.84201">
        <ele>2393.34</ele>
        <time>2015-04-06T07:10:10Z</time>
      </trkpt>
      <trkpt lat="44.50796" lon="6.84206">
        <ele>2394.78</ele>
        <time>2015-04-06T07:10:24Z</time>
      </trkpt>
      <trkpt lat="44.50787" lon="6.84211">
        <ele>2396.22</ele>
        <time>2015-04-06T07:10:40Z</time>
      </trkpt>
      <trkpt lat="44.50778" lon="6.84216">
        <ele>2398.63</ele>
        <time>2015-04-06T07:10:56Z</time>
      </trkpt>
      <trkpt lat="44.5077" lon="6.84219">
        <ele>2400.07</ele>
        <time>2015-04-06T07:11:10Z</time>
      </trkpt>
      <trkpt lat="44.50766" lon="6.84225">
        <ele>2401.51</ele>
        <time>2015-04-06T07:11:22Z</time>
      </trkpt>
      <trkpt lat="44.50764" lon="6.84228">
        <ele>2402.47</ele>
        <time>2015-04-06T07:11:37Z</time>
      </trkpt>
      <trkpt lat="44.50762" lon="6.84232">
        <ele>2402.95</ele>
        <time>2015-04-06T07:11:53Z</time>
      </trkpt>
      <trkpt lat="44.50757" lon="6.84233">
        <ele>2403.43</ele>
        <time>2015-04-06T07:12:11Z</time>
      </trkpt>
      <trkpt lat="44.5076" lon="6.84238">
        <ele>2401.99</ele>
        <time>2015-04-06T07:12:22Z</time>
      </trkpt>
      <trkpt lat="44.50759" lon="6.84235">
        <ele>2402.47</ele>
        <time>2015-04-06T07:12:54Z</time>
      </trkpt>
      <trkpt lat="44.5076" lon="6.84237">
        <ele>2402.47</ele>
        <time>2015-04-06T07:13:25Z</time>
      </trkpt>
      <trkpt lat="44.50759" lon="6.84236">
        <ele>2403.43</ele>
        <time>2015-04-06T07:13:50Z</time>
      </trkpt>
      <trkpt lat="44.50758" lon="6.84238">
        <ele>2403.43</ele>
        <time>2015-04-06T07:13:53Z</time>
      </trkpt>
      <trkpt lat="44.50755" lon="6.84247">
        <ele>2404.39</ele>
        <time>2015-04-06T07:14:02Z</time>
      </trkpt>
      <trkpt lat="44.50751" lon="6.84256">
        <ele>2404.88</ele>
        <time>2015-04-06T07:14:14Z</time>
      </trkpt>
      <trkpt lat="44.50744" lon="6.84271">
        <ele>2405.84</ele>
        <time>2015-04-06T07:14:28Z</time>
      </trkpt>
      <trkpt lat="44.50737" lon="6.84284">
        <ele>2407.76</ele>
        <time>2015-04-06T07:14:42Z</time>
      </trkpt>
      <trkpt lat="44.50732" lon="6.84292">
        <ele>2408.72</ele>
        <time>2015-04-06T07:14:51Z</time>
      </trkpt>
      <trkpt lat="44.50722" lon="6.84306">
        <ele>2410.16</ele>
        <time>2015-04-06T07:15:08Z</time>
      </trkpt>
      <trkpt lat="44.5072" lon="6.84312">
        <ele>2410.64</ele>
        <time>2015-04-06T07:15:20Z</time>
      </trkpt>
      <trkpt lat="44.50721" lon="6.84316">
        <ele>2410.16</ele>
        <time>2015-04-06T07:15:34Z</time>
      </trkpt>
      <trkpt lat="44.50721" lon="6.84315">
        <ele>2410.16</ele>
        <time>2015-04-06T07:15:59Z</time>
      </trkpt>
      <trkpt lat="44.50719" lon="6.84312">
        <ele>2409.68</ele>
        <time>2015-04-06T07:16:36Z</time>
      </trkpt>
      <trkpt lat="44.50723" lon="6.84316">
        <ele>2409.68</ele>
        <time>2015-04-06T07:17:09Z</time>
      </trkpt>
      <trkpt lat="44.50723" lon="6.84315">
        <ele>2409.68</ele>
        <time>2015-04-06T07:17:43Z</time>
      </trkpt>
      <trkpt lat="44.50721" lon="6.84315">
        <ele>2410.16</ele>
        <time>2015-04-06T07:18:25Z</time>
      </trkpt>
      <trkpt lat="44.50719" lon="6.84312">
        <ele>2410.64</ele>
        <time>2015-04-06T07:18:42Z</time>
      </trkpt>
      <trkpt lat="44.50719" lon="6.84307">
        <ele>2410.64</ele>
        <time>2015-04-06T07:19:10Z</time>
      </trkpt>
      <trkpt lat="44.5072" lon="6.84307">
        <ele>2410.64</ele>
        <time>2015-04-06T07:19:33Z</time>
      </trkpt>
      <trkpt lat="44.5072" lon="6.8431">
        <ele>2410.64</ele>
        <time>2015-04-06T07:19:56Z</time>
      </trkpt>
      <trkpt lat="44.50716" lon="6.84315">
        <ele>2411.12</ele>
        <time>2015-04-06T07:20:19Z</time>
      </trkpt>
      <trkpt lat="44.50712" lon="6.84322">
        <ele>2412.09</ele>
        <time>2015-04-06T07:20:32Z</time>
      </trkpt>
      <trkpt lat="44.50707" lon="6.84333">
        <ele>2413.53</ele>
        <time>2015-04-06T07:20:44Z</time>
      </trkpt>
      <trkpt lat="44.50706" lon="6.84335">
        <ele>2413.53</ele>
        <time>2015-04-06T07:21:03Z</time>
      </trkpt>
      <trkpt lat="44.50701" lon="6.84344">
        <ele>2414.49</ele>
        <time>2015-04-06T07:21:22Z</time>
      </trkpt>
      <trkpt lat="44.50697" lon="6.84355">
        <ele>2415.93</ele>
        <time>2015-04-06T07:21:36Z</time>
      </trkpt>
      <trkpt lat="44.50691" lon="6.84368">
        <ele>2417.85</ele>
        <time>2015-04-06T07:21:50Z</time>
      </trkpt>
      <trkpt lat="44.50686" lon="6.84382">
        <ele>2419.3</ele>
        <time>2015-04-06T07:22:04Z</time>
      </trkpt>
      <trkpt lat="44.50679" lon="6.84395">
        <ele>2421.7</ele>
        <time>2015-04-06T07:22:18Z</time>
      </trkpt>
      <trkpt lat="44.50672" lon="6.84408">
        <ele>2423.14</ele>
        <time>2015-04-06T07:22:33Z</time>
      </trkpt>
      <trkpt lat="44.50666" lon="6.84418">
        <ele>2425.06</ele>
        <time>2015-04-06T07:22:47Z</time>
      </trkpt>
      <trkpt lat="44.50661" lon="6.84425">
        <ele>2426.5</ele>
        <time>2015-04-06T07:23:00Z</time>
      </trkpt>
      <trkpt lat="44.50654" lon="6.84437">
        <ele>2427.95</ele>
        <time>2015-04-06T07:23:14Z</time>
      </trkpt>
      <trkpt lat="44.5065" lon="6.84443">
        <ele>2428.91</ele>
        <time>2015-04-06T07:23:21Z</time>
      </trkpt>
      <trkpt lat="44.50649" lon="6.8445">
        <ele>2429.39</ele>
        <time>2015-04-06T07:23:26Z</time>
      </trkpt>
      <trkpt lat="44.50653" lon="6.84455">
        <ele>2429.87</ele>
        <time>2015-04-06T07:23:33Z</time>
      </trkpt>
      <trkpt lat="44.50662" lon="6.84467">
        <ele>2432.27</ele>
        <time>2015-04-06T07:23:49Z</time>
      </trkpt>
      <trkpt lat="44.5067" lon="6.84474">
        <ele>2433.71</ele>
        <time>2015-04-06T07:24:04Z</time>
      </trkpt>
      <trkpt lat="44.50678" lon="6.84482">
        <ele>2435.64</ele>
        <time>2015-04-06T07:24:20Z</time>
      </trkpt>
      <trkpt lat="44.50688" lon="6.84489">
        <ele>2437.56</ele>
        <time>2015-04-06T07:24:34Z</time>
      </trkpt>
      <trkpt lat="44.50689" lon="6.845">
        <ele>2439.48</ele>
        <time>2015-04-06T07:24:47Z</time>
      </trkpt>
      <trkpt lat="44.50683" lon="6.84509">
        <ele>2440.92</ele>
        <time>2015-04-06T07:25:00Z</time>
      </trkpt>
      <trkpt lat="44.50681" lon="6.8451">
        <ele>2441.41</ele>
        <time>2015-04-06T07:25:18Z</time>
      </trkpt>
      <trkpt lat="44.50674" lon="6.84524">
        <ele>2443.33</ele>
        <time>2015-04-06T07:25:33Z</time>
      </trkpt>
      <trkpt lat="44.50669" lon="6.84535">
        <ele>2445.25</ele>
        <time>2015-04-06T07:25:47Z</time>
      </trkpt>
      <trkpt lat="44.50663" lon="6.84548">
        <ele>2446.69</ele>
        <time>2015-04-06T07:26:01Z</time>
      </trkpt>
      <trkpt lat="44.50659" lon="6.84559">
        <ele>2447.65</ele>
        <time>2015-04-06T07:26:15Z</time>
      </trkpt>
      <trkpt lat="44.50657" lon="6.84562">
        <ele>2448.62</ele>
        <time>2015-04-06T07:26:22Z</time>
      </trkpt>
      <trkpt lat="44.50654" lon="6.84577">
        <ele>2450.54</ele>
        <time>2015-04-06T07:26:36Z</time>
      </trkpt>
      <trkpt lat="44.50651" lon="6.84591">
        <ele>2451.5</ele>
        <time>2015-04-06T07:26:49Z</time>
      </trkpt>
      <trkpt lat="44.50648" lon="6.84604">
        <ele>2452.94</ele>
        <time>2015-04-06T07:27:03Z</time>
      </trkpt>
      <trkpt lat="44.50644" lon="6.84618">
        <ele>2453.9</ele>
        <time>2015-04-06T07:27:17Z</time>
      </trkpt>
      <trkpt lat="44.50641" lon="6.84624">
        <ele>2454.38</ele>
        <time>2015-04-06T07:27:23Z</time>
      </trkpt>
      <trkpt lat="44.50637" lon="6.84631">
        <ele>2456.31</ele>
        <time>2015-04-06T07:27:37Z</time>
      </trkpt>
      <trkpt lat="44.50631" lon="6.84633">
        <ele>2457.75</ele>
        <time>2015-04-06T07:27:50Z</time>
      </trkpt>
      <trkpt lat="44.50625" lon="6.84637">
        <ele>2459.19</ele>
        <time>2015-04-06T07:28:03Z</time>
      </trkpt>
      <trkpt lat="44.50619" lon="6.84641">
        <ele>2460.63</ele>
        <time>2015-04-06T07:28:15Z</time>
      </trkpt>
      <trkpt lat="44.50615" lon="6.84645">
        <ele>2461.59</ele>
        <time>2015-04-06T07:28:27Z</time>
      </trkpt>
      <trkpt lat="44.50607" lon="6.8465">
        <ele>2463.04</ele>
        <time>2015-04-06T07:28:40Z</time>
      </trkpt>
      <trkpt lat="44.50606" lon="6.84653">
        <ele>2463.04</ele>
        <time>2015-04-06T07:28:51Z</time>
      </trkpt>
      <trkpt lat="44.50603" lon="6.84654">
        <ele>2463.52</ele>
        <time>2015-04-06T07:29:02Z</time>
      </trkpt>
      <trkpt lat="44.50597" lon="6.84659">
        <ele>2464.48</ele>
        <time>2015-04-06T07:29:17Z</time>
      </trkpt>
      <trkpt lat="44.50593" lon="6.84664">
        <ele>2465.92</ele>
        <time>2015-04-06T07:29:30Z</time>
      </trkpt>
      <trkpt lat="44.50591" lon="6.84666">
        <ele>2465.44</ele>
        <time>2015-04-06T07:29:44Z</time>
      </trkpt>
      <trkpt lat="44.50592" lon="6.84667">
        <ele>2465.92</ele>
        <time>2015-04-06T07:29:59Z</time>
      </trkpt>
      <trkpt lat="44.50587" lon="6.8467">
        <ele>2466.88</ele>
        <time>2015-04-06T07:30:12Z</time>
      </trkpt>
      <trkpt lat="44.50583" lon="6.84673">
        <ele>2467.84</ele>
        <time>2015-04-06T07:30:23Z</time>
      </trkpt>
      <trkpt lat="44.50578" lon="6.84677">
        <ele>2469.28</ele>
        <time>2015-04-06T07:30:35Z</time>
      </trkpt>
      <trkpt lat="44.50573" lon="6.84682">
        <ele>2470.73</ele>
        <time>2015-04-06T07:30:47Z</time>
      </trkpt>
      <trkpt lat="44.50567" lon="6.84687">
        <ele>2472.17</ele>
        <time>2015-04-06T07:30:59Z</time>
      </trkpt>
      <trkpt lat="44.50564" lon="6.84688">
        <ele>2473.13</ele>
        <time>2015-04-06T07:31:18Z</time>
      </trkpt>
      <trkpt lat="44.50558" lon="6.84695">
        <ele>2475.05</ele>
        <time>2015-04-06T07:31:31Z</time>
      </trkpt>
      <trkpt lat="44.50551" lon="6.84702">
        <ele>2476.49</ele>
        <time>2015-04-06T07:31:44Z</time>
      </trkpt>
      <trkpt lat="44.50544" lon="6.84709">
        <ele>2477.94</ele>
        <time>2015-04-06T07:31:57Z</time>
      </trkpt>
      <trkpt lat="44.50539" lon="6.84716">
        <ele>2479.38</ele>
        <time>2015-04-06T07:32:09Z</time>
      </trkpt>
      <trkpt lat="44.50534" lon="6.84723">
        <ele>2480.82</ele>
        <time>2015-04-06T07:32:21Z</time>
      </trkpt>
      <trkpt lat="44.5053" lon="6.8473">
        <ele>2482.26</ele>
        <time>2015-04-06T07:32:33Z</time>
      </trkpt>
      <trkpt lat="44.50525" lon="6.8474">
        <ele>2484.18</ele>
        <time>2015-04-06T07:32:47Z</time>
      </trkpt>
      <trkpt lat="44.50522" lon="6.84746">
        <ele>2485.63</ele>
        <time>2015-04-06T07:33:00Z</time>
      </trkpt>
      <trkpt lat="44.50519" lon="6.8475">
        <ele>2486.59</ele>
        <time>2015-04-06T07:33:13Z</time>
      </trkpt>
      <trkpt lat="44.50514" lon="6.84758">
        <ele>2488.03</ele>
        <time>2015-04-06T07:33:25Z</time>
      </trkpt>
      <trkpt lat="44.50509" lon="6.84767">
        <ele>2489.47</ele>
        <time>2015-04-06T07:33:38Z</time>
      </trkpt>
      <trkpt lat="44.50505" lon="6.84777">
        <ele>2490.91</ele>
        <time>2015-04-06T07:33:50Z</time>
      </trkpt>
      <trkpt lat="44.50501" lon="6.84786">
        <ele>2492.36</ele>
        <time>2015-04-06T07:34:02Z</time>
      </trkpt>
      <trkpt lat="44.50495" lon="6.84793">
        <ele>2493.8</ele>
        <time>2015-04-06T07:34:16Z</time>
      </trkpt>
      <trkpt lat="44.50491" lon="6.84802">
        <ele>2495.24</ele>
        <time>2015-04-06T07:34:29Z</time>
      </trkpt>
      <trkpt lat="44.50488" lon="6.84815">
        <ele>2496.68</ele>
        <time>2015-04-06T07:34:43Z</time>
      </trkpt>
      <trkpt lat="44.50489" lon="6.84827">
        <ele>2498.6</ele>
        <time>2015-04-06T07:34:57Z</time>
      </trkpt>
      <trkpt lat="44.50499" lon="6.84829">
        <ele>2500.53</ele>
        <time>2015-04-06T07:35:12Z</time>
      </trkpt>
      <trkpt lat="44.5051" lon="6.84823">
        <ele>2502.93</ele>
        <time>2015-04-06T07:35:29Z</time>
      </trkpt>
      <trkpt lat="44.5051" lon="6.84831">
        <ele>2504.85</ele>
        <time>2015-04-06T07:35:44Z</time>
      </trkpt>
      <trkpt lat="44.50507" lon="6.84839">
        <ele>2506.29</ele>
        <time>2015-04-06T07:35:56Z</time>
      </trkpt>
      <trkpt lat="44.50507" lon="6.84851">
        <ele>2508.22</ele>
        <time>2015-04-06T07:36:09Z</time>
      </trkpt>
      <trkpt lat="44.50506" lon="6.84865">
        <ele>2510.14</ele>
        <time>2015-04-06T07:36:23Z</time>
      </trkpt>
      <trkpt lat="44.50505" lon="6.84875">
        <ele>2511.58</ele>
        <time>2015-04-06T07:36:36Z</time>
      </trkpt>
      <trkpt lat="44.50503" lon="6.84888">
        <ele>2513.98</ele>
        <time>2015-04-06T07:36:50Z</time>
      </trkpt>
      <trkpt lat="44.505" lon="6.84896">
        <ele>2515.91</ele>
        <time>2015-04-06T07:37:03Z</time>
      </trkpt>
      <trkpt lat="44.50498" lon="6.84904">
        <ele>2516.87</ele>
        <time>2015-04-06T07:37:14Z</time>
      </trkpt>
      <trkpt lat="44.50503" lon="6.84904">
        <ele>2518.31</ele>
        <time>2015-04-06T07:37:24Z</time>
      </trkpt>
      <trkpt lat="44.50511" lon="6.84901">
        <ele>2519.75</ele>
        <time>2015-04-06T07:37:36Z</time>
      </trkpt>
      <trkpt lat="44.50519" lon="6.84899">
        <ele>2521.19</ele>
        <time>2015-04-06T07:37:47Z</time>
      </trkpt>
      <trkpt lat="44.50524" lon="6.84895">
        <ele>2523.12</ele>
        <time>2015-04-06T07:38:00Z</time>
      </trkpt>
      <trkpt lat="44.50528" lon="6.84892">
        <ele>2524.56</ele>
        <time>2015-04-06T07:38:12Z</time>
      </trkpt>
      <trkpt lat="44.50533" lon="6.8489">
        <ele>2525.52</ele>
        <time>2015-04-06T07:38:24Z</time>
      </trkpt>
      <trkpt lat="44.50531" lon="6.84892">
        <ele>2526</ele>
        <time>2015-04-06T07:38:39Z</time>
      </trkpt>
      <trkpt lat="44.50528" lon="6.84896">
        <ele>2526.48</ele>
        <time>2015-04-06T07:38:50Z</time>
      </trkpt>
      <trkpt lat="44.50525" lon="6.84904">
        <ele>2527.92</ele>
        <time>2015-04-06T07:39:04Z</time>
      </trkpt>
      <trkpt lat="44.50524" lon="6.84912">
        <ele>2529.37</ele>
        <time>2015-04-06T07:39:15Z</time>
      </trkpt>
      <trkpt lat="44.50522" lon="6.84924">
        <ele>2531.29</ele>
        <time>2015-04-06T07:39:27Z</time>
      </trkpt>
      <trkpt lat="44.50521" lon="6.8493">
        <ele>2532.73</ele>
        <time>2015-04-06T07:39:40Z</time>
      </trkpt>
      <trkpt lat="44.50519" lon="6.8494">
        <ele>2534.17</ele>
        <time>2015-04-06T07:39:52Z</time>
      </trkpt>
      <trkpt lat="44.50515" lon="6.84946">
        <ele>2535.61</ele>
        <time>2015-04-06T07:40:05Z</time>
      </trkpt>
      <trkpt lat="44.50511" lon="6.8495">
        <ele>2537.06</ele>
        <time>2015-04-06T07:40:18Z</time>
      </trkpt>
      <trkpt lat="44.50507" lon="6.84951">
        <ele>2538.98</ele>
        <time>2015-04-06T07:40:31Z</time>
      </trkpt>
      <trkpt lat="44.50508" lon="6.84958">
        <ele>2540.42</ele>
        <time>2015-04-06T07:40:41Z</time>
      </trkpt>
      <trkpt lat="44.50515" lon="6.84964">
        <ele>2541.86</ele>
        <time>2015-04-06T07:40:53Z</time>
      </trkpt>
      <trkpt lat="44.50523" lon="6.84964">
        <ele>2543.79</ele>
        <time>2015-04-06T07:41:08Z</time>
      </trkpt>
      <trkpt lat="44.50528" lon="6.84964">
        <ele>2545.23</ele>
        <time>2015-04-06T07:41:20Z</time>
      </trkpt>
      <trkpt lat="44.50528" lon="6.84965">
        <ele>2545.71</ele>
        <time>2015-04-06T07:41:35Z</time>
      </trkpt>
      <trkpt lat="44.50525" lon="6.84971">
        <ele>2547.15</ele>
        <time>2015-04-06T07:41:45Z</time>
      </trkpt>
      <trkpt lat="44.50522" lon="6.84974">
        <ele>2548.59</ele>
        <time>2015-04-06T07:41:56Z</time>
      </trkpt>
      <trkpt lat="44.50517" lon="6.84982">
        <ele>2550.03</ele>
        <time>2015-04-06T07:42:09Z</time>
      </trkpt>
      <trkpt lat="44.50513" lon="6.84991">
        <ele>2551.48</ele>
        <time>2015-04-06T07:42:20Z</time>
      </trkpt>
      <trkpt lat="44.50509" lon="6.84995">
        <ele>2552.92</ele>
        <time>2015-04-06T07:42:32Z</time>
      </trkpt>
      <trkpt lat="44.50502" lon="6.84999">
        <ele>2554.84</ele>
        <time>2015-04-06T07:42:46Z</time>
      </trkpt>
      <trkpt lat="44.50495" lon="6.84998">
        <ele>2556.28</ele>
        <time>2015-04-06T07:43:00Z</time>
      </trkpt>
      <trkpt lat="44.50487" lon="6.85002">
        <ele>2558.21</ele>
        <time>2015-04-06T07:43:15Z</time>
      </trkpt>
      <trkpt lat="44.5048" lon="6.85008">
        <ele>2560.13</ele>
        <time>2015-04-06T07:43:30Z</time>
      </trkpt>
      <trkpt lat="44.50475" lon="6.8502">
        <ele>2561.57</ele>
        <time>2015-04-06T07:43:43Z</time>
      </trkpt>
      <trkpt lat="44.50471" lon="6.85035">
        <ele>2563.49</ele>
        <time>2015-04-06T07:43:56Z</time>
      </trkpt>
      <trkpt lat="44.50469" lon="6.85042">
        <ele>2563.97</ele>
        <time>2015-04-06T07:44:04Z</time>
      </trkpt>
      <trkpt lat="44.50463" lon="6.85058">
        <ele>2564.93</ele>
        <time>2015-04-06T07:44:20Z</time>
      </trkpt>
      <trkpt lat="44.50459" lon="6.85065">
        <ele>2566.86</ele>
        <time>2015-04-06T07:44:34Z</time>
      </trkpt>
      <trkpt lat="44.50457" lon="6.85068">
        <ele>2568.3</ele>
        <time>2015-04-06T07:44:46Z</time>
      </trkpt>
      <trkpt lat="44.50455" lon="6.85074">
        <ele>2570.22</ele>
        <time>2015-04-06T07:44:57Z</time>
      </trkpt>
      <trkpt lat="44.50449" lon="6.85082">
        <ele>2571.66</ele>
        <time>2015-04-06T07:45:09Z</time>
      </trkpt>
      <trkpt lat="44.50446" lon="6.85088">
        <ele>2573.11</ele>
        <time>2015-04-06T07:45:20Z</time>
      </trkpt>
      <trkpt lat="44.50442" lon="6.85095">
        <ele>2574.07</ele>
        <time>2015-04-06T07:45:30Z</time>
      </trkpt>
      <trkpt lat="44.50446" lon="6.85099">
        <ele>2575.51</ele>
        <time>2015-04-06T07:45:41Z</time>
      </trkpt>
      <trkpt lat="44.50454" lon="6.85103">
        <ele>2577.43</ele>
        <time>2015-04-06T07:45:54Z</time>
      </trkpt>
      <trkpt lat="44.50462" lon="6.85105">
        <ele>2579.35</ele>
        <time>2015-04-06T07:46:07Z</time>
      </trkpt>
      <trkpt lat="44.5047" lon="6.85108">
        <ele>2580.8</ele>
        <time>2015-04-06T07:46:22Z</time>
      </trkpt>
      <trkpt lat="44.50475" lon="6.85109">
        <ele>2582.72</ele>
        <time>2015-04-06T07:46:35Z</time>
      </trkpt>
      <trkpt lat="44.50482" lon="6.85109">
        <ele>2584.64</ele>
        <time>2015-04-06T07:46:50Z</time>
      </trkpt>
      <trkpt lat="44.50486" lon="6.85106">
        <ele>2586.56</ele>
        <time>2015-04-06T07:47:07Z</time>
      </trkpt>
      <trkpt lat="44.50484" lon="6.85111">
        <ele>2587.53</ele>
        <time>2015-04-06T07:47:21Z</time>
      </trkpt>
      <trkpt lat="44.5048" lon="6.85121">
        <ele>2589.45</ele>
        <time>2015-04-06T07:47:37Z</time>
      </trkpt>
      <trkpt lat="44.50477" lon="6.85127">
        <ele>2590.89</ele>
        <time>2015-04-06T07:47:50Z</time>
      </trkpt>
      <trkpt lat="44.50475" lon="6.85131">
        <ele>2592.81</ele>
        <time>2015-04-06T07:48:02Z</time>
      </trkpt>
      <trkpt lat="44.50472" lon="6.85136">
        <ele>2594.25</ele>
        <time>2015-04-06T07:48:14Z</time>
      </trkpt>
      <trkpt lat="44.50468" lon="6.85143">
        <ele>2595.7</ele>
        <time>2015-04-06T07:48:26Z</time>
      </trkpt>
      <trkpt lat="44.50464" lon="6.8515">
        <ele>2597.62</ele>
        <time>2015-04-06T07:48:38Z</time>
      </trkpt>
      <trkpt lat="44.5046" lon="6.85157">
        <ele>2599.06</ele>
        <time>2015-04-06T07:48:52Z</time>
      </trkpt>
      <trkpt lat="44.50456" lon="6.85164">
        <ele>2600.98</ele>
        <time>2015-04-06T07:49:08Z</time>
      </trkpt>
      <trkpt lat="44.50451" lon="6.85169">
        <ele>2602.91</ele>
        <time>2015-04-06T07:49:23Z</time>
      </trkpt>
      <trkpt lat="44.50452" lon="6.85174">
        <ele>2603.87</ele>
        <time>2015-04-06T07:49:34Z</time>
      </trkpt>
      <trkpt lat="44.50457" lon="6.85179">
        <ele>2604.83</ele>
        <time>2015-04-06T07:49:48Z</time>
      </trkpt>
      <trkpt lat="44.50463" lon="6.85183">
        <ele>2606.75</ele>
        <time>2015-04-06T07:50:01Z</time>
      </trkpt>
      <trkpt lat="44.50468" lon="6.85184">
        <ele>2608.67</ele>
        <time>2015-04-06T07:50:17Z</time>
      </trkpt>
      <trkpt lat="44.50474" lon="6.85185">
        <ele>2610.6</ele>
        <time>2015-04-06T07:50:30Z</time>
      </trkpt>
      <trkpt lat="44.50471" lon="6.85182">
        <ele>2610.6</ele>
        <time>2015-04-06T07:50:47Z</time>
      </trkpt>
      <trkpt lat="44.50464" lon="6.85188">
        <ele>2612.04</ele>
        <time>2015-04-06T07:51:02Z</time>
      </trkpt>
      <trkpt lat="44.50457" lon="6.85195">
        <ele>2613</ele>
        <time>2015-04-06T07:51:15Z</time>
      </trkpt>
      <trkpt lat="44.50453" lon="6.852">
        <ele>2614.44</ele>
        <time>2015-04-06T07:51:29Z</time>
      </trkpt>
      <trkpt lat="44.50448" lon="6.85205">
        <ele>2615.88</ele>
        <time>2015-04-06T07:51:41Z</time>
      </trkpt>
      <trkpt lat="44.50442" lon="6.8521">
        <ele>2617.81</ele>
        <time>2015-04-06T07:51:54Z</time>
      </trkpt>
      <trkpt lat="44.50436" lon="6.85215">
        <ele>2619.73</ele>
        <time>2015-04-06T07:52:11Z</time>
      </trkpt>
      <trkpt lat="44.50431" lon="6.85221">
        <ele>2620.69</ele>
        <time>2015-04-06T07:52:23Z</time>
      </trkpt>
      <trkpt lat="44.50428" lon="6.85227">
        <ele>2622.61</ele>
        <time>2015-04-06T07:52:36Z</time>
      </trkpt>
      <trkpt lat="44.50436" lon="6.85233">
        <ele>2624.54</ele>
        <time>2015-04-06T07:52:52Z</time>
      </trkpt>
      <trkpt lat="44.50443" lon="6.85237">
        <ele>2626.46</ele>
        <time>2015-04-06T07:53:06Z</time>
      </trkpt>
      <trkpt lat="44.5045" lon="6.8524">
        <ele>2627.9</ele>
        <time>2015-04-06T07:53:21Z</time>
      </trkpt>
      <trkpt lat="44.50456" lon="6.85245">
        <ele>2630.3</ele>
        <time>2015-04-06T07:53:41Z</time>
      </trkpt>
      <trkpt lat="44.50463" lon="6.85248">
        <ele>2632.23</ele>
        <time>2015-04-06T07:53:56Z</time>
      </trkpt>
      <trkpt lat="44.50462" lon="6.85254">
        <ele>2633.67</ele>
        <time>2015-04-06T07:54:07Z</time>
      </trkpt>
      <trkpt lat="44.50458" lon="6.85258">
        <ele>2635.59</ele>
        <time>2015-04-06T07:54:24Z</time>
      </trkpt>
      <trkpt lat="44.50454" lon="6.85265">
        <ele>2637.99</ele>
        <time>2015-04-06T07:54:44Z</time>
      </trkpt>
      <trkpt lat="44.5045" lon="6.8527">
        <ele>2638.96</ele>
        <time>2015-04-06T07:54:55Z</time>
      </trkpt>
      <trkpt lat="44.50446" lon="6.8528">
        <ele>2641.36</ele>
        <time>2015-04-06T07:55:14Z</time>
      </trkpt>
      <trkpt lat="44.50444" lon="6.85288">
        <ele>2641.84</ele>
        <time>2015-04-06T07:55:34Z</time>
      </trkpt>
      <trkpt lat="44.50444" lon="6.85289">
        <ele>2642.32</ele>
        <time>2015-04-06T07:55:50Z</time>
      </trkpt>
      <trkpt lat="44.50445" lon="6.85292">
        <ele>2640.88</ele>
        <time>2015-04-06T07:56:04Z</time>
      </trkpt>
      <trkpt lat="44.50444" lon="6.85289">
        <ele>2641.36</ele>
        <time>2015-04-06T07:56:43Z</time>
      </trkpt>
      <trkpt lat="44.50446" lon="6.85293">
        <ele>2640.88</ele>
        <time>2015-04-06T07:57:09Z</time>
      </trkpt>
      <trkpt lat="44.50448" lon="6.85291">
        <ele>2640.88</ele>
        <time>2015-04-06T07:57:32Z</time>
      </trkpt>
      <trkpt lat="44.50448" lon="6.85292">
        <ele>2640.4</ele>
        <time>2015-04-06T07:58:12Z</time>
      </trkpt>
      <trkpt lat="44.50448" lon="6.85288">
        <ele>2640.88</ele>
        <time>2015-04-06T07:58:37Z</time>
      </trkpt>
      <trkpt lat="44.50449" lon="6.8529">
        <ele>2640.4</ele>
        <time>2015-04-06T07:59:01Z</time>
      </trkpt>
      <trkpt lat="44.50443" lon="6.8529">
        <ele>2641.36</ele>
        <time>2015-04-06T07:59:10Z</time>
      </trkpt>
      <trkpt lat="44.50441" lon="6.8529">
        <ele>2641.36</ele>
        <time>2015-04-06T07:59:31Z</time>
      </trkpt>
      <trkpt lat="44.50443" lon="6.85292">
        <ele>2641.36</ele>
        <time>2015-04-06T07:59:50Z</time>
      </trkpt>
      <trkpt lat="44.50445" lon="6.85295">
        <ele>2640.88</ele>
        <time>2015-04-06T08:00:08Z</time>
      </trkpt>
      <trkpt lat="44.50445" lon="6.85294">
        <ele>2640.88</ele>
        <time>2015-04-06T08:00:32Z</time>
      </trkpt>
      <trkpt lat="44.50446" lon="6.85294">
        <ele>2640.88</ele>
        <time>2015-04-06T08:00:51Z</time>
      </trkpt>
      <trkpt lat="44.50443" lon="6.85305">
        <ele>2642.32</ele>
        <time>2015-04-06T08:01:02Z</time>
      </trkpt>
      <trkpt lat="44.50443" lon="6.8532">
        <ele>2643.76</ele>
        <time>2015-04-06T08:01:17Z</time>
      </trkpt>
      <trkpt lat="44.50443" lon="6.85335">
        <ele>2645.69</ele>
        <time>2015-04-06T08:01:32Z</time>
      </trkpt>
      <trkpt lat="44.50442" lon="6.8535">
        <ele>2647.61</ele>
        <time>2015-04-06T08:01:47Z</time>
      </trkpt>
      <trkpt lat="44.50443" lon="6.8536">
        <ele>2649.53</ele>
        <time>2015-04-06T08:02:00Z</time>
      </trkpt>
      <trkpt lat="44.50443" lon="6.85371">
        <ele>2650.97</ele>
        <time>2015-04-06T08:02:13Z</time>
      </trkpt>
      <trkpt lat="44.50444" lon="6.85382">
        <ele>2653.38</ele>
        <time>2015-04-06T08:02:28Z</time>
      </trkpt>
      <trkpt lat="44.50444" lon="6.8539">
        <ele>2654.82</ele>
        <time>2015-04-06T08:02:41Z</time>
      </trkpt>
      <trkpt lat="44.50443" lon="6.85398">
        <ele>2656.74</ele>
        <time>2015-04-06T08:02:55Z</time>
      </trkpt>
      <trkpt lat="44.50443" lon="6.85411">
        <ele>2659.62</ele>
        <time>2015-04-06T08:03:14Z</time>
      </trkpt>
      <trkpt lat="44.50442" lon="6.85424">
        <ele>2662.03</ele>
        <time>2015-04-06T08:03:33Z</time>
      </trkpt>
      <trkpt lat="44.50446" lon="6.85432">
        <ele>2663.95</ele>
        <time>2015-04-06T08:03:48Z</time>
      </trkpt>
      <trkpt lat="44.50451" lon="6.85438">
        <ele>2666.35</ele>
        <time>2015-04-06T08:04:04Z</time>
      </trkpt>
      <trkpt lat="44.50455" lon="6.85444">
        <ele>2668.76</ele>
        <time>2015-04-06T08:04:19Z</time>
      </trkpt>
      <trkpt lat="44.50457" lon="6.85448">
        <ele>2670.2</ele>
        <time>2015-04-06T08:04:30Z</time>
      </trkpt>
      <trkpt lat="44.50455" lon="6.85447">
        <ele>2670.68</ele>
        <time>2015-04-06T08:04:44Z</time>
      </trkpt>
      <trkpt lat="44.50452" lon="6.85453">
        <ele>2672.12</ele>
        <time>2015-04-06T08:05:00Z</time>
      </trkpt>
      <trkpt lat="44.50451" lon="6.85459">
        <ele>2673.56</ele>
        <time>2015-04-06T08:05:12Z</time>
      </trkpt>
      <trkpt lat="44.50456" lon="6.85468">
        <ele>2675.49</ele>
        <time>2015-04-06T08:05:26Z</time>
      </trkpt>
      <trkpt lat="44.50456" lon="6.85474">
        <ele>2677.41</ele>
        <time>2015-04-06T08:05:41Z</time>
      </trkpt>
      <trkpt lat="44.50455" lon="6.85483">
        <ele>2678.85</ele>
        <time>2015-04-06T08:05:58Z</time>
      </trkpt>
      <trkpt lat="44.50455" lon="6.85482">
        <ele>2678.85</ele>
        <time>2015-04-06T08:06:11Z</time>
      </trkpt>
      <trkpt lat="44.50456" lon="6.85483">
        <ele>2679.33</ele>
        <time>2015-04-06T08:06:37Z</time>
      </trkpt>
      <trkpt lat="44.50452" lon="6.85491">
        <ele>2681.25</ele>
        <time>2015-04-06T08:06:50Z</time>
      </trkpt>
      <trkpt lat="44.5045" lon="6.85502">
        <ele>2683.66</ele>
        <time>2015-04-06T08:07:03Z</time>
      </trkpt>
      <trkpt lat="44.50448" lon="6.85512">
        <ele>2685.58</ele>
        <time>2015-04-06T08:07:16Z</time>
      </trkpt>
      <trkpt lat="44.50448" lon="6.85519">
        <ele>2687.02</ele>
        <time>2015-04-06T08:07:33Z</time>
      </trkpt>
      <trkpt lat="44.50448" lon="6.85527">
        <ele>2689.91</ele>
        <time>2015-04-06T08:07:47Z</time>
      </trkpt>
      <trkpt lat="44.50448" lon="6.85539">
        <ele>2692.79</ele>
        <time>2015-04-06T08:08:05Z</time>
      </trkpt>
      <trkpt lat="44.50449" lon="6.85543">
        <ele>2694.23</ele>
        <time>2015-04-06T08:08:17Z</time>
      </trkpt>
      <trkpt lat="44.50449" lon="6.85554">
        <ele>2696.64</ele>
        <time>2015-04-06T08:08:32Z</time>
      </trkpt>
      <trkpt lat="44.50448" lon="6.85558">
        <ele>2698.08</ele>
        <time>2015-04-06T08:08:44Z</time>
      </trkpt>
      <trkpt lat="44.50449" lon="6.85566">
        <ele>2700.48</ele>
        <time>2015-04-06T08:08:58Z</time>
      </trkpt>
      <trkpt lat="44.50448" lon="6.85576">
        <ele>2701.92</ele>
        <time>2015-04-06T08:09:10Z</time>
      </trkpt>
      <trkpt lat="44.50447" lon="6.85583">
        <ele>2704.33</ele>
        <time>2015-04-06T08:09:26Z</time>
      </trkpt>
      <trkpt lat="44.5045" lon="6.85589">
        <ele>2706.25</ele>
        <time>2015-04-06T08:09:41Z</time>
      </trkpt>
      <trkpt lat="44.50456" lon="6.85598">
        <ele>2708.65</ele>
        <time>2015-04-06T08:09:56Z</time>
      </trkpt>
      <trkpt lat="44.5046" lon="6.85603">
        <ele>2711.06</ele>
        <time>2015-04-06T08:10:14Z</time>
      </trkpt>
      <trkpt lat="44.50466" lon="6.85608">
        <ele>2712.98</ele>
        <time>2015-04-06T08:10:28Z</time>
      </trkpt>
      <trkpt lat="44.50469" lon="6.85614">
        <ele>2715.38</ele>
        <time>2015-04-06T08:10:45Z</time>
      </trkpt>
      <trkpt lat="44.50475" lon="6.85619">
        <ele>2717.3</ele>
        <time>2015-04-06T08:11:00Z</time>
      </trkpt>
      <trkpt lat="44.5048" lon="6.85624">
        <ele>2719.71</ele>
        <time>2015-04-06T08:11:16Z</time>
      </trkpt>
      <trkpt lat="44.50486" lon="6.85627">
        <ele>2721.63</ele>
        <time>2015-04-06T08:11:30Z</time>
      </trkpt>
      <trkpt lat="44.50485" lon="6.85633">
        <ele>2723.55</ele>
        <time>2015-04-06T08:11:44Z</time>
      </trkpt>
      <trkpt lat="44.50481" lon="6.85641">
        <ele>2724.99</ele>
        <time>2015-04-06T08:11:56Z</time>
      </trkpt>
      <trkpt lat="44.50479" lon="6.85647">
        <ele>2726.44</ele>
        <time>2015-04-06T08:12:11Z</time>
      </trkpt>
      <trkpt lat="44.50476" lon="6.85654">
        <ele>2727.88</ele>
        <time>2015-04-06T08:12:24Z</time>
      </trkpt>
      <trkpt lat="44.50473" lon="6.85662">
        <ele>2730.28</ele>
        <time>2015-04-06T08:12:39Z</time>
      </trkpt>
      <trkpt lat="44.50472" lon="6.85669">
        <ele>2732.68</ele>
        <time>2015-04-06T08:12:57Z</time>
      </trkpt>
      <trkpt lat="44.5047" lon="6.8568">
        <ele>2734.61</ele>
        <time>2015-04-06T08:13:10Z</time>
      </trkpt>
      <trkpt lat="44.50481" lon="6.85684">
        <ele>2736.53</ele>
        <time>2015-04-06T08:13:25Z</time>
      </trkpt>
      <trkpt lat="44.50482" lon="6.85687">
        <ele>2737.97</ele>
        <time>2015-04-06T08:13:38Z</time>
      </trkpt>
      <trkpt lat="44.50475" lon="6.85691">
        <ele>2739.41</ele>
        <time>2015-04-06T08:13:50Z</time>
      </trkpt>
      <trkpt lat="44.50472" lon="6.85698">
        <ele>2741.34</ele>
        <time>2015-04-06T08:14:06Z</time>
      </trkpt>
      <trkpt lat="44.50467" lon="6.85704">
        <ele>2742.78</ele>
        <time>2015-04-06T08:14:18Z</time>
      </trkpt>
      <trkpt lat="44.50464" lon="6.85709">
        <ele>2744.7</ele>
        <time>2015-04-06T08:14:33Z</time>
      </trkpt>
      <trkpt lat="44.50459" lon="6.85713">
        <ele>2746.62</ele>
        <time>2015-04-06T08:14:47Z</time>
      </trkpt>
      <trkpt lat="44.50455" lon="6.85716">
        <ele>2748.07</ele>
        <time>2015-04-06T08:15:01Z</time>
      </trkpt>
      <trkpt lat="44.5045" lon="6.8572">
        <ele>2749.99</ele>
        <time>2015-04-06T08:15:15Z</time>
      </trkpt>
      <trkpt lat="44.5045" lon="6.85724">
        <ele>2750.95</ele>
        <time>2015-04-06T08:15:31Z</time>
      </trkpt>
      <trkpt lat="44.50457" lon="6.85728">
        <ele>2752.39</ele>
        <time>2015-04-06T08:15:47Z</time>
      </trkpt>
      <trkpt lat="44.50464" lon="6.85731">
        <ele>2754.31</ele>
        <time>2015-04-06T08:16:03Z</time>
      </trkpt>
      <trkpt lat="44.50472" lon="6.85736">
        <ele>2756.24</ele>
        <time>2015-04-06T08:16:18Z</time>
      </trkpt>
      <trkpt lat="44.50479" lon="6.85738">
        <ele>2757.68</ele>
        <time>2015-04-06T08:16:33Z</time>
      </trkpt>
      <trkpt lat="44.50486" lon="6.85742">
        <ele>2759.12</ele>
        <time>2015-04-06T08:16:50Z</time>
      </trkpt>
      <trkpt lat="44.50495" lon="6.85742">
        <ele>2761.04</ele>
        <time>2015-04-06T08:17:07Z</time>
      </trkpt>
      <trkpt lat="44.50505" lon="6.85742">
        <ele>2762.97</ele>
        <time>2015-04-06T08:17:24Z</time>
      </trkpt>
      <trkpt lat="44.50501" lon="6.85744">
        <ele>2763.93</ele>
        <time>2015-04-06T08:17:41Z</time>
      </trkpt>
      <trkpt lat="44.50497" lon="6.85748">
        <ele>2764.89</ele>
        <time>2015-04-06T08:17:53Z</time>
      </trkpt>
      <trkpt lat="44.50492" lon="6.85754">
        <ele>2766.81</ele>
        <time>2015-04-06T08:18:09Z</time>
      </trkpt>
      <trkpt lat="44.50487" lon="6.85761">
        <ele>2768.25</ele>
        <time>2015-04-06T08:18:22Z</time>
      </trkpt>
      <trkpt lat="44.50482" lon="6.85766">
        <ele>2770.18</ele>
        <time>2015-04-06T08:18:39Z</time>
      </trkpt>
      <trkpt lat="44.50478" lon="6.85769">
        <ele>2771.62</ele>
        <time>2015-04-06T08:18:52Z</time>
      </trkpt>
      <trkpt lat="44.50475" lon="6.85766">
        <ele>2771.62</ele>
        <time>2015-04-06T08:19:18Z</time>
      </trkpt>
      <trkpt lat="44.50483" lon="6.85767">
        <ele>2772.1</ele>
        <time>2015-04-06T08:19:47Z</time>
      </trkpt>
      <trkpt lat="44.50482" lon="6.85764">
        <ele>2771.62</ele>
        <time>2015-04-06T08:20:09Z</time>
      </trkpt>
      <trkpt lat="44.50476" lon="6.85768">
        <ele>2771.62</ele>
        <time>2015-04-06T08:20:37Z</time>
      </trkpt>
      <trkpt lat="44.50472" lon="6.85775">
        <ele>2774.02</ele>
        <time>2015-04-06T08:20:50Z</time>
      </trkpt>
      <trkpt lat="44.50468" lon="6.85778">
        <ele>2775.94</ele>
        <time>2015-04-06T08:21:02Z</time>
      </trkpt>
      <trkpt lat="44.50464" lon="6.85779">
        <ele>2777.39</ele>
        <time>2015-04-06T08:21:14Z</time>
      </trkpt>
      <trkpt lat="44.50464" lon="6.8578">
        <ele>2778.83</ele>
        <time>2015-04-06T08:21:31Z</time>
      </trkpt>
      <trkpt lat="44.50473" lon="6.85786">
        <ele>2779.31</ele>
        <time>2015-04-06T08:21:46Z</time>
      </trkpt>
      <trkpt lat="44.5048" lon="6.8579">
        <ele>2780.75</ele>
        <time>2015-04-06T08:22:00Z</time>
      </trkpt>
      <trkpt lat="44.50486" lon="6.85793">
        <ele>2781.71</ele>
        <time>2015-04-06T08:22:12Z</time>
      </trkpt>
      <trkpt lat="44.50493" lon="6.85795">
        <ele>2783.15</ele>
        <time>2015-04-06T08:22:24Z</time>
      </trkpt>
      <trkpt lat="44.50499" lon="6.85798">
        <ele>2784.6</ele>
        <time>2015-04-06T08:22:38Z</time>
      </trkpt>
      <trkpt lat="44.50505" lon="6.85796">
        <ele>2786.04</ele>
        <time>2015-04-06T08:22:52Z</time>
      </trkpt>
      <trkpt lat="44.50512" lon="6.85798">
        <ele>2788.44</ele>
        <time>2015-04-06T08:23:09Z</time>
      </trkpt>
      <trkpt lat="44.5052" lon="6.85797">
        <ele>2790.36</ele>
        <time>2015-04-06T08:23:27Z</time>
      </trkpt>
      <trkpt lat="44.50525" lon="6.85799">
        <ele>2791.81</ele>
        <time>2015-04-06T08:23:42Z</time>
      </trkpt>
      <trkpt lat="44.5052" lon="6.85799">
        <ele>2792.77</ele>
        <time>2015-04-06T08:23:58Z</time>
      </trkpt>
      <trkpt lat="44.50513" lon="6.85805">
        <ele>2794.21</ele>
        <time>2015-04-06T08:24:13Z</time>
      </trkpt>
      <trkpt lat="44.50509" lon="6.85811">
        <ele>2795.65</ele>
        <time>2015-04-06T08:24:25Z</time>
      </trkpt>
      <trkpt lat="44.50505" lon="6.85816">
        <ele>2797.09</ele>
        <time>2015-04-06T08:24:37Z</time>
      </trkpt>
      <trkpt lat="44.50501" lon="6.85821">
        <ele>2798.05</ele>
        <time>2015-04-06T08:24:48Z</time>
      </trkpt>
      <trkpt lat="44.50497" lon="6.85824">
        <ele>2799.98</ele>
        <time>2015-04-06T08:25:04Z</time>
      </trkpt>
      <trkpt lat="44.50495" lon="6.85828">
        <ele>2800.94</ele>
        <time>2015-04-06T08:25:17Z</time>
      </trkpt>
      <trkpt lat="44.50491" lon="6.85831">
        <ele>2802.38</ele>
        <time>2015-04-06T08:25:31Z</time>
      </trkpt>
      <trkpt lat="44.50488" lon="6.85834">
        <ele>2803.82</ele>
        <time>2015-04-06T08:25:44Z</time>
      </trkpt>
      <trkpt lat="44.50483" lon="6.85838">
        <ele>2804.78</ele>
        <time>2015-04-06T08:25:56Z</time>
      </trkpt>
      <trkpt lat="44.5048" lon="6.85841">
        <ele>2806.23</ele>
        <time>2015-04-06T08:26:11Z</time>
      </trkpt>
      <trkpt lat="44.50482" lon="6.85844">
        <ele>2806.71</ele>
        <time>2015-04-06T08:26:26Z</time>
      </trkpt>
      <trkpt lat="44.50483" lon="6.85844">
        <ele>2807.19</ele>
        <time>2015-04-06T08:26:42Z</time>
      </trkpt>
      <trkpt lat="44.50487" lon="6.85849">
        <ele>2807.67</ele>
        <time>2015-04-06T08:27:00Z</time>
      </trkpt>
      <trkpt lat="44.50492" lon="6.85848">
        <ele>2809.11</ele>
        <time>2015-04-06T08:27:15Z</time>
      </trkpt>
      <trkpt lat="44.50498" lon="6.85847">
        <ele>2810.55</ele>
        <time>2015-04-06T08:27:27Z</time>
      </trkpt>
      <trkpt lat="44.50504" lon="6.85849">
        <ele>2811.51</ele>
        <time>2015-04-06T08:27:40Z</time>
      </trkpt>
      <trkpt lat="44.5051" lon="6.85849">
        <ele>2812.96</ele>
        <time>2015-04-06T08:27:56Z</time>
      </trkpt>
      <trkpt lat="44.50518" lon="6.85848">
        <ele>2814.4</ele>
        <time>2015-04-06T08:28:12Z</time>
      </trkpt>
      <trkpt lat="44.50524" lon="6.85848">
        <ele>2815.84</ele>
        <time>2015-04-06T08:28:26Z</time>
      </trkpt>
      <trkpt lat="44.50531" lon="6.85847">
        <ele>2816.32</ele>
        <time>2015-04-06T08:28:39Z</time>
      </trkpt>
      <trkpt lat="44.50529" lon="6.85848">
        <ele>2817.28</ele>
        <time>2015-04-06T08:28:58Z</time>
      </trkpt>
      <trkpt lat="44.50525" lon="6.85849">
        <ele>2818.24</ele>
        <time>2015-04-06T08:29:11Z</time>
      </trkpt>
      <trkpt lat="44.50522" lon="6.85854">
        <ele>2819.2</ele>
        <time>2015-04-06T08:29:24Z</time>
      </trkpt>
      <trkpt lat="44.50518" lon="6.85858">
        <ele>2820.65</ele>
        <time>2015-04-06T08:29:37Z</time>
      </trkpt>
      <trkpt lat="44.50515" lon="6.8586">
        <ele>2821.61</ele>
        <time>2015-04-06T08:29:50Z</time>
      </trkpt>
      <trkpt lat="44.50512" lon="6.85864">
        <ele>2822.57</ele>
        <time>2015-04-06T08:30:02Z</time>
      </trkpt>
      <trkpt lat="44.50509" lon="6.85869">
        <ele>2824.01</ele>
        <time>2015-04-06T08:30:16Z</time>
      </trkpt>
      <trkpt lat="44.50504" lon="6.85874">
        <ele>2824.97</ele>
        <time>2015-04-06T08:30:29Z</time>
      </trkpt>
      <trkpt lat="44.50502" lon="6.85877">
        <ele>2826.41</ele>
        <time>2015-04-06T08:30:40Z</time>
      </trkpt>
      <trkpt lat="44.50499" lon="6.85882">
        <ele>2827.85</ele>
        <time>2015-04-06T08:30:54Z</time>
      </trkpt>
      <trkpt lat="44.50496" lon="6.85883">
        <ele>2828.34</ele>
        <time>2015-04-06T08:31:08Z</time>
      </trkpt>
      <trkpt lat="44.50498" lon="6.85886">
        <ele>2828.82</ele>
        <time>2015-04-06T08:31:26Z</time>
      </trkpt>
      <trkpt lat="44.50503" lon="6.85888">
        <ele>2829.78</ele>
        <time>2015-04-06T08:31:43Z</time>
      </trkpt>
      <trkpt lat="44.50508" lon="6.85888">
        <ele>2830.74</ele>
        <time>2015-04-06T08:31:56Z</time>
      </trkpt>
      <trkpt lat="44.50513" lon="6.85888">
        <ele>2832.18</ele>
        <time>2015-04-06T08:32:09Z</time>
      </trkpt>
      <trkpt lat="44.50519" lon="6.85888">
        <ele>2833.14</ele>
        <time>2015-04-06T08:32:23Z</time>
      </trkpt>
      <trkpt lat="44.50526" lon="6.85889">
        <ele>2834.58</ele>
        <time>2015-04-06T08:32:38Z</time>
      </trkpt>
      <trkpt lat="44.50532" lon="6.85889">
        <ele>2836.51</ele>
        <time>2015-04-06T08:32:53Z</time>
      </trkpt>
      <trkpt lat="44.50539" lon="6.85891">
        <ele>2837.95</ele>
        <time>2015-04-06T08:33:10Z</time>
      </trkpt>
      <trkpt lat="44.50543" lon="6.8589">
        <ele>2838.91</ele>
        <time>2015-04-06T08:33:24Z</time>
      </trkpt>
      <trkpt lat="44.5055" lon="6.85889">
        <ele>2840.35</ele>
        <time>2015-04-06T08:33:40Z</time>
      </trkpt>
      <trkpt lat="44.50557" lon="6.8589">
        <ele>2841.79</ele>
        <time>2015-04-06T08:33:55Z</time>
      </trkpt>
      <trkpt lat="44.5056" lon="6.85888">
        <ele>2842.76</ele>
        <time>2015-04-06T08:34:07Z</time>
      </trkpt>
      <trkpt lat="44.50564" lon="6.85886">
        <ele>2844.68</ele>
        <time>2015-04-06T08:34:21Z</time>
      </trkpt>
      <trkpt lat="44.50569" lon="6.85888">
        <ele>2845.16</ele>
        <time>2015-04-06T08:34:34Z</time>
      </trkpt>
      <trkpt lat="44.50574" lon="6.85886">
        <ele>2846.6</ele>
        <time>2015-04-06T08:34:48Z</time>
      </trkpt>
      <trkpt lat="44.5058" lon="6.85884">
        <ele>2848.04</ele>
        <time>2015-04-06T08:35:02Z</time>
      </trkpt>
      <trkpt lat="44.50584" lon="6.85883">
        <ele>2849</ele>
        <time>2015-04-06T08:35:15Z</time>
      </trkpt>
      <trkpt lat="44.50584" lon="6.85883">
        <ele>2849.48</ele>
        <time>2015-04-06T08:35:34Z</time>
      </trkpt>
      <trkpt lat="44.50578" lon="6.85884">
        <ele>2850.45</ele>
        <time>2015-04-06T08:35:47Z</time>
      </trkpt>
      <trkpt lat="44.50576" lon="6.85888">
        <ele>2851.89</ele>
        <time>2015-04-06T08:36:01Z</time>
      </trkpt>
      <trkpt lat="44.50573" lon="6.85891">
        <ele>2853.33</ele>
        <time>2015-04-06T08:36:13Z</time>
      </trkpt>
      <trkpt lat="44.50572" lon="6.85896">
        <ele>2854.29</ele>
        <time>2015-04-06T08:36:25Z</time>
      </trkpt>
      <trkpt lat="44.50572" lon="6.85898">
        <ele>2854.29</ele>
        <time>2015-04-06T08:36:40Z</time>
      </trkpt>
      <trkpt lat="44.50574" lon="6.85899">
        <ele>2854.29</ele>
        <time>2015-04-06T08:36:54Z</time>
      </trkpt>
      <trkpt lat="44.50575" lon="6.85899">
        <ele>2855.25</ele>
        <time>2015-04-06T08:37:10Z</time>
      </trkpt>
      <trkpt lat="44.50582" lon="6.85898">
        <ele>2857.18</ele>
        <time>2015-04-06T08:37:26Z</time>
      </trkpt>
      <trkpt lat="44.50588" lon="6.85897">
        <ele>2858.62</ele>
        <time>2015-04-06T08:37:40Z</time>
      </trkpt>
      <trkpt lat="44.50596" lon="6.85895">
        <ele>2860.06</ele>
        <time>2015-04-06T08:37:53Z</time>
      </trkpt>
      <trkpt lat="44.50602" lon="6.85892">
        <ele>2861.5</ele>
        <time>2015-04-06T08:38:08Z</time>
      </trkpt>
      <trkpt lat="44.50604" lon="6.8589">
        <ele>2862.46</ele>
        <time>2015-04-06T08:38:22Z</time>
      </trkpt>
      <trkpt lat="44.50603" lon="6.85892">
        <ele>2863.9</ele>
        <time>2015-04-06T08:38:34Z</time>
      </trkpt>
      <trkpt lat="44.50602" lon="6.85897">
        <ele>2865.83</ele>
        <time>2015-04-06T08:38:47Z</time>
      </trkpt>
      <trkpt lat="44.50604" lon="6.85907">
        <ele>2867.27</ele>
        <time>2015-04-06T08:39:01Z</time>
      </trkpt>
      <trkpt lat="44.50611" lon="6.85907">
        <ele>2869.67</ele>
        <time>2015-04-06T08:39:13Z</time>
      </trkpt>
      <trkpt lat="44.50611" lon="6.85912">
        <ele>2871.11</ele>
        <time>2015-04-06T08:39:27Z</time>
      </trkpt>
      <trkpt lat="44.50616" lon="6.85919">
        <ele>2872.08</ele>
        <time>2015-04-06T08:39:38Z</time>
      </trkpt>
      <trkpt lat="44.50617" lon="6.85919">
        <ele>2871.6</ele>
        <time>2015-04-06T08:39:50Z</time>
      </trkpt>
      <trkpt lat="44.50615" lon="6.85926">
        <ele>2872.56</ele>
        <time>2015-04-06T08:40:01Z</time>
      </trkpt>
      <trkpt lat="44.50616" lon="6.85927">
        <ele>2872.08</ele>
        <time>2015-04-06T08:40:24Z</time>
      </trkpt>
      <trkpt lat="44.50616" lon="6.85928">
        <ele>2872.08</ele>
        <time>2015-04-06T08:40:38Z</time>
      </trkpt>
      <trkpt lat="44.50615" lon="6.85927">
        <ele>2872.08</ele>
        <time>2015-04-06T08:40:55Z</time>
      </trkpt>
      <trkpt lat="44.50615" lon="6.85929">
        <ele>2872.08</ele>
        <time>2015-04-06T08:41:21Z</time>
      </trkpt>
      <trkpt lat="44.50617" lon="6.85925">
        <ele>2871.11</ele>
        <time>2015-04-06T08:41:29Z</time>
      </trkpt>
      <trkpt lat="44.50616" lon="6.85925">
        <ele>2870.15</ele>
        <time>2015-04-06T08:41:39Z</time>
      </trkpt>
      <trkpt lat="44.50617" lon="6.85925">
        <ele>2870.63</ele>
        <time>2015-04-06T08:42:09Z</time>
      </trkpt>
      <trkpt lat="44.50618" lon="6.85928">
        <ele>2870.63</ele>
        <time>2015-04-06T08:42:40Z</time>
      </trkpt>
      <trkpt lat="44.50618" lon="6.85928">
        <ele>2870.15</ele>
        <time>2015-04-06T08:43:02Z</time>
      </trkpt>
      <trkpt lat="44.50616" lon="6.85928">
        <ele>2870.15</ele>
        <time>2015-04-06T08:43:35Z</time>
      </trkpt>
      <trkpt lat="44.50616" lon="6.85928">
        <ele>2870.15</ele>
        <time>2015-04-06T08:44:10Z</time>
      </trkpt>
      <trkpt lat="44.50618" lon="6.85929">
        <ele>2870.15</ele>
        <time>2015-04-06T08:44:41Z</time>
      </trkpt>
      <trkpt lat="44.50617" lon="6.85929">
        <ele>2870.15</ele>
        <time>2015-04-06T08:45:15Z</time>
      </trkpt>
      <trkpt lat="44.50618" lon="6.85928">
        <ele>2869.67</ele>
        <time>2015-04-06T08:45:51Z</time>
      </trkpt>
      <trkpt lat="44.50618" lon="6.85928">
        <ele>2870.15</ele>
        <time>2015-04-06T08:46:25Z</time>
      </trkpt>
      <trkpt lat="44.50619" lon="6.85929">
        <ele>2870.15</ele>
        <time>2015-04-06T08:46:57Z</time>
      </trkpt>
      <trkpt lat="44.50619" lon="6.85929">
        <ele>2870.15</ele>
        <time>2015-04-06T08:47:27Z</time>
      </trkpt>
      <trkpt lat="44.5062" lon="6.85931">
        <ele>2870.15</ele>
        <time>2015-04-06T08:47:56Z</time>
      </trkpt>
      <trkpt lat="44.50616" lon="6.85932">
        <ele>2870.15</ele>
        <time>2015-04-06T08:48:22Z</time>
      </trkpt>
      <trkpt lat="44.50615" lon="6.85929">
        <ele>2870.63</ele>
        <time>2015-04-06T08:48:47Z</time>
      </trkpt>
      <trkpt lat="44.50615" lon="6.85931">
        <ele>2869.67</ele>
        <time>2015-04-06T08:49:13Z</time>
      </trkpt>
      <trkpt lat="44.50615" lon="6.8593">
        <ele>2870.15</ele>
        <time>2015-04-06T08:49:47Z</time>
      </trkpt>
      <trkpt lat="44.50615" lon="6.8593">
        <ele>2870.15</ele>
        <time>2015-04-06T08:50:19Z</time>
      </trkpt>
      <trkpt lat="44.50615" lon="6.85931">
        <ele>2870.15</ele>
        <time>2015-04-06T08:50:52Z</time>
      </trkpt>
      <trkpt lat="44.50615" lon="6.85935">
        <ele>2870.15</ele>
        <time>2015-04-06T08:51:30Z</time>
      </trkpt>
      <trkpt lat="44.50615" lon="6.85932">
        <ele>2869.67</ele>
        <time>2015-04-06T08:51:53Z</time>
      </trkpt>
      <trkpt lat="44.50616" lon="6.85929">
        <ele>2869.19</ele>
        <time>2015-04-06T08:52:25Z</time>
      </trkpt>
      <trkpt lat="44.50616" lon="6.85931">
        <ele>2869.19</ele>
        <time>2015-04-06T08:52:52Z</time>
      </trkpt>
      <trkpt lat="44.50615" lon="6.85929">
        <ele>2869.19</ele>
        <time>2015-04-06T08:53:23Z</time>
      </trkpt>
      <trkpt lat="44.50615" lon="6.85919">
        <ele>2868.71</ele>
        <time>2015-04-06T08:53:46Z</time>
      </trkpt>
      <trkpt lat="44.50617" lon="6.85915">
        <ele>2868.71</ele>
        <time>2015-04-06T08:53:58Z</time>
      </trkpt>
      <trkpt lat="44.50618" lon="6.85919">
        <ele>2868.23</ele>
        <time>2015-04-06T08:54:24Z</time>
      </trkpt>
      <trkpt lat="44.50624" lon="6.85923">
        <ele>2868.23</ele>
        <time>2015-04-06T08:54:35Z</time>
      </trkpt>
      <trkpt lat="44.50625" lon="6.85922">
        <ele>2867.27</ele>
        <time>2015-04-06T08:54:49Z</time>
      </trkpt>
      <trkpt lat="44.50623" lon="6.85921">
        <ele>2867.27</ele>
        <time>2015-04-06T08:55:16Z</time>
      </trkpt>
      <trkpt lat="44.50622" lon="6.85922">
        <ele>2867.27</ele>
        <time>2015-04-06T08:55:47Z</time>
      </trkpt>
      <trkpt lat="44.50624" lon="6.85922">
        <ele>2867.27</ele>
        <time>2015-04-06T08:56:17Z</time>
      </trkpt>
      <trkpt lat="44.50622" lon="6.85921">
        <ele>2867.27</ele>
        <time>2015-04-06T08:56:56Z</time>
      </trkpt>
      <trkpt lat="44.50621" lon="6.85923">
        <ele>2866.79</ele>
        <time>2015-04-06T08:57:27Z</time>
      </trkpt>
      <trkpt lat="44.50623" lon="6.85922">
        <ele>2866.79</ele>
        <time>2015-04-06T08:57:45Z</time>
      </trkpt>
      <trkpt lat="44.50622" lon="6.85918">
        <ele>2866.79</ele>
        <time>2015-04-06T08:58:11Z</time>
      </trkpt>
      <trkpt lat="44.50621" lon="6.85917">
        <ele>2867.27</ele>
        <time>2015-04-06T08:58:33Z</time>
      </trkpt>
      <trkpt lat="44.50616" lon="6.85923">
        <ele>2868.71</ele>
        <time>2015-04-06T08:58:46Z</time>
      </trkpt>
      <trkpt lat="44.50615" lon="6.85923">
        <ele>2868.71</ele>
        <time>2015-04-06T08:58:47Z</time>
      </trkpt>
      <trkpt lat="44.50617" lon="6.85927">
        <ele>2868.23</ele>
        <time>2015-04-06T08:59:04Z</time>
      </trkpt>
      <trkpt lat="44.50616" lon="6.85928">
        <ele>2868.23</ele>
        <time>2015-04-06T08:59:41Z</time>
      </trkpt>
      <trkpt lat="44.50616" lon="6.85929">
        <ele>2867.75</ele>
        <time>2015-04-06T09:00:19Z</time>
      </trkpt>
      <trkpt lat="44.50618" lon="6.85927">
        <ele>2867.75</ele>
        <time>2015-04-06T09:00:57Z</time>
      </trkpt>
      <trkpt lat="44.50618" lon="6.85926">
        <ele>2867.75</ele>
        <time>2015-04-06T09:01:32Z</time>
      </trkpt>
      <trkpt lat="44.50617" lon="6.85926">
        <ele>2867.75</ele>
        <time>2015-04-06T09:02:15Z</time>
      </trkpt>
      <trkpt lat="44.50617" lon="6.85925">
        <ele>2867.27</ele>
        <time>2015-04-06T09:02:42Z</time>
      </trkpt>
      <trkpt lat="44.50616" lon="6.85925">
        <ele>2867.27</ele>
        <time>2015-04-06T09:03:13Z</time>
      </trkpt>
      <trkpt lat="44.50614" lon="6.85927">
        <ele>2868.71</ele>
        <time>2015-04-06T09:03:36Z</time>
      </trkpt>
      <trkpt lat="44.50616" lon="6.85927">
        <ele>2868.71</ele>
        <time>2015-04-06T09:03:57Z</time>
      </trkpt>
      <trkpt lat="44.50615" lon="6.85927">
        <ele>2868.71</ele>
        <time>2015-04-06T09:04:24Z</time>
      </trkpt>
      <trkpt lat="44.50616" lon="6.8593">
        <ele>2868.71</ele>
        <time>2015-04-06T09:04:50Z</time>
      </trkpt>
      <trkpt lat="44.50616" lon="6.85926">
        <ele>2868.23</ele>
        <time>2015-04-06T09:05:02Z</time>
      </trkpt>
      <trkpt lat="44.50617" lon="6.85926">
        <ele>2868.23</ele>
        <time>2015-04-06T09:05:21Z</time>
      </trkpt>
      <trkpt lat="44.50616" lon="6.85924">
        <ele>2867.75</ele>
        <time>2015-04-06T09:05:34Z</time>
      </trkpt>
      <trkpt lat="44.50618" lon="6.85925">
        <ele>2867.75</ele>
        <time>2015-04-06T09:05:59Z</time>
      </trkpt>
      <trkpt lat="44.50618" lon="6.85926">
        <ele>2867.75</ele>
        <time>2015-04-06T09:06:23Z</time>
      </trkpt>
      <trkpt lat="44.50618" lon="6.85926">
        <ele>2867.27</ele>
        <time>2015-04-06T09:06:50Z</time>
      </trkpt>
      <trkpt lat="44.50617" lon="6.85927">
        <ele>2867.27</ele>
        <time>2015-04-06T09:06:54Z</time>
      </trkpt>
      <trkpt lat="44.50613" lon="6.85919">
        <ele>2866.79</ele>
        <time>2015-04-06T09:07:05Z</time>
      </trkpt>
      <trkpt lat="44.50613" lon="6.85918">
        <ele>2866.31</ele>
        <time>2015-04-06T09:07:26Z</time>
      </trkpt>
      <trkpt lat="44.5061" lon="6.85915">
        <ele>2866.31</ele>
        <time>2015-04-06T09:07:46Z</time>
      </trkpt>
      <trkpt lat="44.5061" lon="6.85914">
        <ele>2866.31</ele>
        <time>2015-04-06T09:08:06Z</time>
      </trkpt>
      <trkpt lat="44.50609" lon="6.85915">
        <ele>2866.31</ele>
        <time>2015-04-06T09:08:26Z</time>
      </trkpt>
      <trkpt lat="44.5061" lon="6.85916">
        <ele>2866.31</ele>
        <time>2015-04-06T09:08:47Z</time>
      </trkpt>
      <trkpt lat="44.50611" lon="6.85916">
        <ele>2866.79</ele>
        <time>2015-04-06T09:09:03Z</time>
      </trkpt>
      <trkpt lat="44.5061" lon="6.85915">
        <ele>2866.79</ele>
        <time>2015-04-06T09:09:20Z</time>
      </trkpt>
      <trkpt lat="44.50609" lon="6.85909">
        <ele>2865.35</ele>
        <time>2015-04-06T09:09:23Z</time>
      </trkpt>
      <trkpt lat="44.50609" lon="6.85907">
        <ele>2864.87</ele>
        <time>2015-04-06T09:09:24Z</time>
      </trkpt>
      <trkpt lat="44.50608" lon="6.85905">
        <ele>2863.9</ele>
        <time>2015-04-06T09:09:25Z</time>
      </trkpt>
      <trkpt lat="44.50609" lon="6.85904">
        <ele>2864.39</ele>
        <time>2015-04-06T09:09:26Z</time>
      </trkpt>
      <trkpt lat="44.50608" lon="6.85902">
        <ele>2863.9</ele>
        <time>2015-04-06T09:09:27Z</time>
      </trkpt>
      <trkpt lat="44.50607" lon="6.859">
        <ele>2862.94</ele>
        <time>2015-04-06T09:09:28Z</time>
      </trkpt>
      <trkpt lat="44.50605" lon="6.859">
        <ele>2861.5</ele>
        <time>2015-04-06T09:09:29Z</time>
      </trkpt>
      <trkpt lat="44.50603" lon="6.859">
        <ele>2860.54</ele>
        <time>2015-04-06T09:09:30Z</time>
      </trkpt>
      <trkpt lat="44.50601" lon="6.85898">
        <ele>2859.58</ele>
        <time>2015-04-06T09:09:31Z</time>
      </trkpt>
      <trkpt lat="44.50601" lon="6.85897">
        <ele>2858.14</ele>
        <time>2015-04-06T09:09:41Z</time>
      </trkpt>
      <trkpt lat="44.50602" lon="6.85895">
        <ele>2858.14</ele>
        <time>2015-04-06T09:10:14Z</time>
      </trkpt>
      <trkpt lat="44.50601" lon="6.85895">
        <ele>2857.66</ele>
        <time>2015-04-06T09:10:51Z</time>
      </trkpt>
      <trkpt lat="44.50601" lon="6.85884">
        <ele>2855.73</ele>
        <time>2015-04-06T09:11:11Z</time>
      </trkpt>
      <trkpt lat="44.50599" lon="6.8588">
        <ele>2854.29</ele>
        <time>2015-04-06T09:11:13Z</time>
      </trkpt>
      <trkpt lat="44.50596" lon="6.8588">
        <ele>2853.33</ele>
        <time>2015-04-06T09:11:14Z</time>
      </trkpt>
      <trkpt lat="44.50594" lon="6.85881">
        <ele>2851.89</ele>
        <time>2015-04-06T09:11:15Z</time>
      </trkpt>
      <trkpt lat="44.50592" lon="6.8588">
        <ele>2850.45</ele>
        <time>2015-04-06T09:11:16Z</time>
      </trkpt>
      <trkpt lat="44.50591" lon="6.85876">
        <ele>2849</ele>
        <time>2015-04-06T09:11:17Z</time>
      </trkpt>
      <trkpt lat="44.50592" lon="6.85873">
        <ele>2847.56</ele>
        <time>2015-04-06T09:11:18Z</time>
      </trkpt>
      <trkpt lat="44.50593" lon="6.8587">
        <ele>2847.08</ele>
        <time>2015-04-06T09:11:19Z</time>
      </trkpt>
      <trkpt lat="44.50594" lon="6.85865">
        <ele>2846.12</ele>
        <time>2015-04-06T09:11:21Z</time>
      </trkpt>
      <trkpt lat="44.50595" lon="6.8585">
        <ele>2842.76</ele>
        <time>2015-04-06T09:11:27Z</time>
      </trkpt>
      <trkpt lat="44.50589" lon="6.85846">
        <ele>2837.47</ele>
        <time>2015-04-06T09:11:30Z</time>
      </trkpt>
      <trkpt lat="44.50588" lon="6.8584">
        <ele>2834.1</ele>
        <time>2015-04-06T09:11:32Z</time>
      </trkpt>
      <trkpt lat="44.50582" lon="6.85834">
        <ele>2828.34</ele>
        <time>2015-04-06T09:11:35Z</time>
      </trkpt>
      <trkpt lat="44.50578" lon="6.85827">
        <ele>2824.01</ele>
        <time>2015-04-06T09:11:37Z</time>
      </trkpt>
      <trkpt lat="44.50571" lon="6.85824">
        <ele>2818.72</ele>
        <time>2015-04-06T09:11:39Z</time>
      </trkpt>
      <trkpt lat="44.5057" lon="6.85818">
        <ele>2815.36</ele>
        <time>2015-04-06T09:11:41Z</time>
      </trkpt>
      <trkpt lat="44.50564" lon="6.8582">
        <ele>2811.99</ele>
        <time>2015-04-06T09:11:43Z</time>
      </trkpt>
      <trkpt lat="44.50561" lon="6.85823">
        <ele>2811.03</ele>
        <time>2015-04-06T09:11:44Z</time>
      </trkpt>
      <trkpt lat="44.50557" lon="6.85826">
        <ele>2809.11</ele>
        <time>2015-04-06T09:11:46Z</time>
      </trkpt>
      <trkpt lat="44.50553" lon="6.85818">
        <ele>2804.78</ele>
        <time>2015-04-06T09:11:49Z</time>
      </trkpt>
      <trkpt lat="44.50549" lon="6.85814">
        <ele>2800.94</ele>
        <time>2015-04-06T09:11:51Z</time>
      </trkpt>
      <trkpt lat="44.5055" lon="6.85803">
        <ele>2798.05</ele>
        <time>2015-04-06T09:11:53Z</time>
      </trkpt>
      <trkpt lat="44.50549" lon="6.85799">
        <ele>2794.21</ele>
        <time>2015-04-06T09:11:55Z</time>
      </trkpt>
      <trkpt lat="44.50546" lon="6.85793">
        <ele>2790.36</ele>
        <time>2015-04-06T09:11:57Z</time>
      </trkpt>
      <trkpt lat="44.50544" lon="6.85787">
        <ele>2786.04</ele>
        <time>2015-04-06T09:11:59Z</time>
      </trkpt>
      <trkpt lat="44.50542" lon="6.85787">
        <ele>2785.08</ele>
        <time>2015-04-06T09:12:11Z</time>
      </trkpt>
      <trkpt lat="44.50539" lon="6.85778">
        <ele>2780.75</ele>
        <time>2015-04-06T09:12:15Z</time>
      </trkpt>
      <trkpt lat="44.50537" lon="6.85773">
        <ele>2777.87</ele>
        <time>2015-04-06T09:12:17Z</time>
      </trkpt>
      <trkpt lat="44.50533" lon="6.85764">
        <ele>2774.02</ele>
        <time>2015-04-06T09:12:20Z</time>
      </trkpt>
      <trkpt lat="44.50528" lon="6.85755">
        <ele>2767.77</ele>
        <time>2015-04-06T09:12:23Z</time>
      </trkpt>
      <trkpt lat="44.50529" lon="6.85747">
        <ele>2765.85</ele>
        <time>2015-04-06T09:12:25Z</time>
      </trkpt>
      <trkpt lat="44.50525" lon="6.85729">
        <ele>2757.2</ele>
        <time>2015-04-06T09:12:29Z</time>
      </trkpt>
      <trkpt lat="44.50519" lon="6.85722">
        <ele>2752.87</ele>
        <time>2015-04-06T09:12:31Z</time>
      </trkpt>
      <trkpt lat="44.50518" lon="6.85712">
        <ele>2748.07</ele>
        <time>2015-04-06T09:12:33Z</time>
      </trkpt>
      <trkpt lat="44.50516" lon="6.85702">
        <ele>2743.26</ele>
        <time>2015-04-06T09:12:35Z</time>
      </trkpt>
      <trkpt lat="44.50518" lon="6.85693">
        <ele>2739.89</ele>
        <time>2015-04-06T09:12:38Z</time>
      </trkpt>
      <trkpt lat="44.50518" lon="6.85692">
        <ele>2740.86</ele>
        <time>2015-04-06T09:12:41Z</time>
      </trkpt>
      <trkpt lat="44.50517" lon="6.85693">
        <ele>2740.86</ele>
        <time>2015-04-06T09:12:53Z</time>
      </trkpt>
      <trkpt lat="44.50509" lon="6.85686">
        <ele>2737.49</ele>
        <time>2015-04-06T09:12:57Z</time>
      </trkpt>
      <trkpt lat="44.50503" lon="6.85679">
        <ele>2733.17</ele>
        <time>2015-04-06T09:12:59Z</time>
      </trkpt>
      <trkpt lat="44.505" lon="6.85675">
        <ele>2731.72</ele>
        <time>2015-04-06T09:13:00Z</time>
      </trkpt>
      <trkpt lat="44.50497" lon="6.8567">
        <ele>2729.8</ele>
        <time>2015-04-06T09:13:01Z</time>
      </trkpt>
      <trkpt lat="44.50494" lon="6.85666">
        <ele>2727.4</ele>
        <time>2015-04-06T09:13:02Z</time>
      </trkpt>
      <trkpt lat="44.50491" lon="6.85661">
        <ele>2725.96</ele>
        <time>2015-04-06T09:13:03Z</time>
      </trkpt>
      <trkpt lat="44.5049" lon="6.85655">
        <ele>2723.07</ele>
        <time>2015-04-06T09:13:04Z</time>
      </trkpt>
      <trkpt lat="44.50487" lon="6.8565">
        <ele>2720.19</ele>
        <time>2015-04-06T09:13:05Z</time>
      </trkpt>
      <trkpt lat="44.50485" lon="6.85644">
        <ele>2717.78</ele>
        <time>2015-04-06T09:13:06Z</time>
      </trkpt>
      <trkpt lat="44.50483" lon="6.85638">
        <ele>2715.86</ele>
        <time>2015-04-06T09:13:07Z</time>
      </trkpt>
      <trkpt lat="44.50482" lon="6.85632">
        <ele>2713.46</ele>
        <time>2015-04-06T09:13:08Z</time>
      </trkpt>
      <trkpt lat="44.5048" lon="6.85626">
        <ele>2712.5</ele>
        <time>2015-04-06T09:13:09Z</time>
      </trkpt>
      <trkpt lat="44.50478" lon="6.8562">
        <ele>2710.57</ele>
        <time>2015-04-06T09:13:10Z</time>
      </trkpt>
      <trkpt lat="44.50476" lon="6.85614">
        <ele>2708.17</ele>
        <time>2015-04-06T09:13:11Z</time>
      </trkpt>
      <trkpt lat="44.50474" lon="6.85607">
        <ele>2705.77</ele>
        <time>2015-04-06T09:13:12Z</time>
      </trkpt>
      <trkpt lat="44.5047" lon="6.85602">
        <ele>2704.33</ele>
        <time>2015-04-06T09:13:13Z</time>
      </trkpt>
      <trkpt lat="44.50468" lon="6.85596">
        <ele>2701.92</ele>
        <time>2015-04-06T09:13:14Z</time>
      </trkpt>
      <trkpt lat="44.50465" lon="6.8559">
        <ele>2700</ele>
        <time>2015-04-06T09:13:15Z</time>
      </trkpt>
      <trkpt lat="44.50461" lon="6.85586">
        <ele>2697.6</ele>
        <time>2015-04-06T09:13:16Z</time>
      </trkpt>
      <trkpt lat="44.50457" lon="6.85581">
        <ele>2696.64</ele>
        <time>2015-04-06T09:13:17Z</time>
      </trkpt>
      <trkpt lat="44.50455" lon="6.85575">
        <ele>2693.27</ele>
        <time>2015-04-06T09:13:18Z</time>
      </trkpt>
      <trkpt lat="44.50454" lon="6.85568">
        <ele>2692.31</ele>
        <time>2015-04-06T09:13:19Z</time>
      </trkpt>
      <trkpt lat="44.50451" lon="6.85563">
        <ele>2690.39</ele>
        <time>2015-04-06T09:13:20Z</time>
      </trkpt>
      <trkpt lat="44.50447" lon="6.85562">
        <ele>2688.94</ele>
        <time>2015-04-06T09:13:21Z</time>
      </trkpt>
      <trkpt lat="44.50444" lon="6.85562">
        <ele>2687.98</ele>
        <time>2015-04-06T09:13:22Z</time>
      </trkpt>
      <trkpt lat="44.50442" lon="6.8556">
        <ele>2688.46</ele>
        <time>2015-04-06T09:13:37Z</time>
      </trkpt>
      <trkpt lat="44.50443" lon="6.85561">
        <ele>2688.46</ele>
        <time>2015-04-06T09:13:56Z</time>
      </trkpt>
      <trkpt lat="44.50444" lon="6.85559">
        <ele>2688.46</ele>
        <time>2015-04-06T09:14:18Z</time>
      </trkpt>
      <trkpt lat="44.50442" lon="6.85561">
        <ele>2688.46</ele>
        <time>2015-04-06T09:14:40Z</time>
      </trkpt>
      <trkpt lat="44.50443" lon="6.8556">
        <ele>2688.46</ele>
        <time>2015-04-06T09:15:10Z</time>
      </trkpt>
      <trkpt lat="44.50443" lon="6.8556">
        <ele>2688.46</ele>
        <time>2015-04-06T09:15:11Z</time>
      </trkpt>
      <trkpt lat="44.50442" lon="6.85557">
        <ele>2687.5</ele>
        <time>2015-04-06T09:15:13Z</time>
      </trkpt>
      <trkpt lat="44.50442" lon="6.85553">
        <ele>2687.02</ele>
        <time>2015-04-06T09:15:14Z</time>
      </trkpt>
      <trkpt lat="44.50444" lon="6.85549">
        <ele>2686.06</ele>
        <time>2015-04-06T09:15:15Z</time>
      </trkpt>
      <trkpt lat="44.50446" lon="6.85546">
        <ele>2685.58</ele>
        <time>2015-04-06T09:15:16Z</time>
      </trkpt>
      <trkpt lat="44.50449" lon="6.85544">
        <ele>2685.1</ele>
        <time>2015-04-06T09:15:17Z</time>
      </trkpt>
      <trkpt lat="44.50449" lon="6.8554">
        <ele>2684.62</ele>
        <time>2015-04-06T09:15:18Z</time>
      </trkpt>
      <trkpt lat="44.5045" lon="6.85535">
        <ele>2683.18</ele>
        <time>2015-04-06T09:15:19Z</time>
      </trkpt>
      <trkpt lat="44.5045" lon="6.8553">
        <ele>2682.22</ele>
        <time>2015-04-06T09:15:20Z</time>
      </trkpt>
      <trkpt lat="44.50449" lon="6.85525">
        <ele>2681.25</ele>
        <time>2015-04-06T09:15:21Z</time>
      </trkpt>
      <trkpt lat="44.50448" lon="6.8552">
        <ele>2679.33</ele>
        <time>2015-04-06T09:15:22Z</time>
      </trkpt>
      <trkpt lat="44.50448" lon="6.85515">
        <ele>2677.89</ele>
        <time>2015-04-06T09:15:23Z</time>
      </trkpt>
      <trkpt lat="44.50448" lon="6.85509">
        <ele>2676.45</ele>
        <time>2015-04-06T09:15:24Z</time>
      </trkpt>
      <trkpt lat="44.50449" lon="6.85503">
        <ele>2675.01</ele>
        <time>2015-04-06T09:15:25Z</time>
      </trkpt>
      <trkpt lat="44.50448" lon="6.85496">
        <ele>2674.04</ele>
        <time>2015-04-06T09:15:26Z</time>
      </trkpt>
      <trkpt lat="44.50449" lon="6.85491">
        <ele>2672.12</ele>
        <time>2015-04-06T09:15:27Z</time>
      </trkpt>
      <trkpt lat="44.50449" lon="6.85485">
        <ele>2671.16</ele>
        <time>2015-04-06T09:15:28Z</time>
      </trkpt>
      <trkpt lat="44.50448" lon="6.85479">
        <ele>2669.72</ele>
        <time>2015-04-06T09:15:29Z</time>
      </trkpt>
      <trkpt lat="44.50448" lon="6.85473">
        <ele>2668.28</ele>
        <time>2015-04-06T09:15:30Z</time>
      </trkpt>
      <trkpt lat="44.50446" lon="6.85467">
        <ele>2666.83</ele>
        <time>2015-04-06T09:15:31Z</time>
      </trkpt>
      <trkpt lat="44.50446" lon="6.85461">
        <ele>2665.39</ele>
        <time>2015-04-06T09:15:32Z</time>
      </trkpt>
      <trkpt lat="44.50448" lon="6.85457">
        <ele>2662.99</ele>
        <time>2015-04-06T09:15:33Z</time>
      </trkpt>
      <trkpt lat="44.5045" lon="6.85456">
        <ele>2662.51</ele>
        <time>2015-04-06T09:15:44Z</time>
      </trkpt>
      <trkpt lat="44.5045" lon="6.85457">
        <ele>2662.51</ele>
        <time>2015-04-06T09:16:06Z</time>
      </trkpt>
      <trkpt lat="44.50449" lon="6.85458">
        <ele>2662.51</ele>
        <time>2015-04-06T09:16:27Z</time>
      </trkpt>
      <trkpt lat="44.5045" lon="6.85457">
        <ele>2662.03</ele>
        <time>2015-04-06T09:16:54Z</time>
      </trkpt>
      <trkpt lat="44.50449" lon="6.85456">
        <ele>2662.51</ele>
        <time>2015-04-06T09:17:19Z</time>
      </trkpt>
      <trkpt lat="44.5045" lon="6.85452">
        <ele>2661.55</ele>
        <time>2015-04-06T09:17:21Z</time>
      </trkpt>
      <trkpt lat="44.50453" lon="6.85444">
        <ele>2660.59</ele>
        <time>2015-04-06T09:17:23Z</time>
      </trkpt>
      <trkpt lat="44.50452" lon="6.85432">
        <ele>2657.7</ele>
        <time>2015-04-06T09:17:25Z</time>
      </trkpt>
      <trkpt lat="44.50452" lon="6.85426">
        <ele>2655.78</ele>
        <time>2015-04-06T09:17:26Z</time>
      </trkpt>
      <trkpt lat="44.50455" lon="6.85418">
        <ele>2652.9</ele>
        <time>2015-04-06T09:17:28Z</time>
      </trkpt>
      <trkpt lat="44.50455" lon="6.8541">
        <ele>2651.45</ele>
        <time>2015-04-06T09:17:30Z</time>
      </trkpt>
      <trkpt lat="44.50451" lon="6.85378">
        <ele>2644.24</ele>
        <time>2015-04-06T09:17:35Z</time>
      </trkpt>
      <trkpt lat="44.5045" lon="6.85357">
        <ele>2639.92</ele>
        <time>2015-04-06T09:17:38Z</time>
      </trkpt>
      <trkpt lat="44.50452" lon="6.85331">
        <ele>2636.07</ele>
        <time>2015-04-06T09:17:42Z</time>
      </trkpt>
      <trkpt lat="44.5045" lon="6.85311">
        <ele>2633.19</ele>
        <time>2015-04-06T09:17:45Z</time>
      </trkpt>
      <trkpt lat="44.50446" lon="6.85289">
        <ele>2630.3</ele>
        <time>2015-04-06T09:17:50Z</time>
      </trkpt>
      <trkpt lat="44.50449" lon="6.85282">
        <ele>2628.38</ele>
        <time>2015-04-06T09:17:57Z</time>
      </trkpt>
      <trkpt lat="44.50454" lon="6.85274">
        <ele>2627.42</ele>
        <time>2015-04-06T09:18:11Z</time>
      </trkpt>
      <trkpt lat="44.5045" lon="6.85259">
        <ele>2623.58</ele>
        <time>2015-04-06T09:18:15Z</time>
      </trkpt>
      <trkpt lat="44.50448" lon="6.85255">
        <ele>2622.13</ele>
        <time>2015-04-06T09:18:16Z</time>
      </trkpt>
      <trkpt lat="44.50448" lon="6.85247">
        <ele>2619.73</ele>
        <time>2015-04-06T09:18:18Z</time>
      </trkpt>
      <trkpt lat="44.50451" lon="6.85234">
        <ele>2614.92</ele>
        <time>2015-04-06T09:18:21Z</time>
      </trkpt>
      <trkpt lat="44.50451" lon="6.85223">
        <ele>2611.56</ele>
        <time>2015-04-06T09:18:23Z</time>
      </trkpt>
      <trkpt lat="44.50449" lon="6.85212">
        <ele>2604.83</ele>
        <time>2015-04-06T09:18:25Z</time>
      </trkpt>
      <trkpt lat="44.50448" lon="6.85201">
        <ele>2601.46</ele>
        <time>2015-04-06T09:18:27Z</time>
      </trkpt>
      <trkpt lat="44.50451" lon="6.85188">
        <ele>2597.14</ele>
        <time>2015-04-06T09:18:29Z</time>
      </trkpt>
      <trkpt lat="44.50452" lon="6.85181">
        <ele>2593.77</ele>
        <time>2015-04-06T09:18:30Z</time>
      </trkpt>
      <trkpt lat="44.50449" lon="6.85173">
        <ele>2589.93</ele>
        <time>2015-04-06T09:18:32Z</time>
      </trkpt>
      <trkpt lat="44.5045" lon="6.85172">
        <ele>2589.93</ele>
        <time>2015-04-06T09:18:33Z</time>
      </trkpt>
      <trkpt lat="44.50449" lon="6.85174">
        <ele>2589.93</ele>
        <time>2015-04-06T09:18:50Z</time>
      </trkpt>
      <trkpt lat="44.50449" lon="6.85174">
        <ele>2589.45</ele>
        <time>2015-04-06T09:19:13Z</time>
      </trkpt>
      <trkpt lat="44.50463" lon="6.85161">
        <ele>2586.56</ele>
        <time>2015-04-06T09:19:19Z</time>
      </trkpt>
      <trkpt lat="44.50482" lon="6.85142">
        <ele>2583.2</ele>
        <time>2015-04-06T09:19:31Z</time>
      </trkpt>
      <trkpt lat="44.505" lon="6.85117">
        <ele>2579.84</ele>
        <time>2015-04-06T09:19:45Z</time>
      </trkpt>
      <trkpt lat="44.50518" lon="6.85095">
        <ele>2576.95</ele>
        <time>2015-04-06T09:19:54Z</time>
      </trkpt>
      <trkpt lat="44.50535" lon="6.85068">
        <ele>2574.07</ele>
        <time>2015-04-06T09:20:07Z</time>
      </trkpt>
      <trkpt lat="44.50547" lon="6.85048">
        <ele>2572.63</ele>
        <time>2015-04-06T09:20:23Z</time>
      </trkpt>
      <trkpt lat="44.50556" lon="6.85039">
        <ele>2571.18</ele>
        <time>2015-04-06T09:20:41Z</time>
      </trkpt>
      <trkpt lat="44.50563" lon="6.85024">
        <ele>2568.3</ele>
        <time>2015-04-06T09:20:55Z</time>
      </trkpt>
      <trkpt lat="44.50564" lon="6.8502">
        <ele>2566.86</ele>
        <time>2015-04-06T09:20:57Z</time>
      </trkpt>
      <trkpt lat="44.5056" lon="6.8501">
        <ele>2562.05</ele>
        <time>2015-04-06T09:21:00Z</time>
      </trkpt>
      <trkpt lat="44.50552" lon="6.84999">
        <ele>2555.8</ele>
        <time>2015-04-06T09:21:03Z</time>
      </trkpt>
      <trkpt lat="44.50552" lon="6.84988">
        <ele>2552.44</ele>
        <time>2015-04-06T09:21:05Z</time>
      </trkpt>
      <trkpt lat="44.50548" lon="6.84977">
        <ele>2547.15</ele>
        <time>2015-04-06T09:21:07Z</time>
      </trkpt>
      <trkpt lat="44.50543" lon="6.84967">
        <ele>2543.79</ele>
        <time>2015-04-06T09:21:09Z</time>
      </trkpt>
      <trkpt lat="44.50541" lon="6.84962">
        <ele>2539.94</ele>
        <time>2015-04-06T09:21:10Z</time>
      </trkpt>
      <trkpt lat="44.50532" lon="6.84946">
        <ele>2531.29</ele>
        <time>2015-04-06T09:21:14Z</time>
      </trkpt>
      <trkpt lat="44.50528" lon="6.84935">
        <ele>2527.44</ele>
        <time>2015-04-06T09:21:16Z</time>
      </trkpt>
      <trkpt lat="44.5052" lon="6.84928">
        <ele>2521.19</ele>
        <time>2015-04-06T09:21:18Z</time>
      </trkpt>
      <trkpt lat="44.50521" lon="6.84923">
        <ele>2517.83</ele>
        <time>2015-04-06T09:21:20Z</time>
      </trkpt>
      <trkpt lat="44.50521" lon="6.84923">
        <ele>2517.35</ele>
        <time>2015-04-06T09:21:21Z</time>
      </trkpt>
      <trkpt lat="44.50523" lon="6.84925">
        <ele>2519.27</ele>
        <time>2015-04-06T09:21:24Z</time>
      </trkpt>
      <trkpt lat="44.50523" lon="6.84925">
        <ele>2519.27</ele>
        <time>2015-04-06T09:21:41Z</time>
      </trkpt>
      <trkpt lat="44.50523" lon="6.84925">
        <ele>2519.27</ele>
        <time>2015-04-06T09:21:42Z</time>
      </trkpt>
      <trkpt lat="44.50516" lon="6.84912">
        <ele>2514.47</ele>
        <time>2015-04-06T09:21:47Z</time>
      </trkpt>
      <trkpt lat="44.50507" lon="6.84908">
        <ele>2510.62</ele>
        <time>2015-04-06T09:21:50Z</time>
      </trkpt>
      <trkpt lat="44.505" lon="6.84903">
        <ele>2506.77</ele>
        <time>2015-04-06T09:21:52Z</time>
      </trkpt>
      <trkpt lat="44.50494" lon="6.84894">
        <ele>2502.45</ele>
        <time>2015-04-06T09:21:54Z</time>
      </trkpt>
      <trkpt lat="44.50491" lon="6.84886">
        <ele>2499.08</ele>
        <time>2015-04-06T09:21:56Z</time>
      </trkpt>
      <trkpt lat="44.5047" lon="6.8487">
        <ele>2491.87</ele>
        <time>2015-04-06T09:22:01Z</time>
      </trkpt>
      <trkpt lat="44.50465" lon="6.84869">
        <ele>2490.91</ele>
        <time>2015-04-06T09:22:02Z</time>
      </trkpt>
      <trkpt lat="44.50456" lon="6.84849">
        <ele>2486.59</ele>
        <time>2015-04-06T09:22:06Z</time>
      </trkpt>
      <trkpt lat="44.50461" lon="6.84835">
        <ele>2482.26</ele>
        <time>2015-04-06T09:22:08Z</time>
      </trkpt>
      <trkpt lat="44.50467" lon="6.84814">
        <ele>2477.94</ele>
        <time>2015-04-06T09:22:11Z</time>
      </trkpt>
      <trkpt lat="44.5047" lon="6.84797">
        <ele>2475.53</ele>
        <time>2015-04-06T09:22:13Z</time>
      </trkpt>
      <trkpt lat="44.50475" lon="6.84761">
        <ele>2471.21</ele>
        <time>2015-04-06T09:22:17Z</time>
      </trkpt>
      <trkpt lat="44.50474" lon="6.84735">
        <ele>2470.24</ele>
        <time>2015-04-06T09:22:24Z</time>
      </trkpt>
      <trkpt lat="44.50473" lon="6.84725">
        <ele>2469.76</ele>
        <time>2015-04-06T09:22:26Z</time>
      </trkpt>
      <trkpt lat="44.50473" lon="6.84708">
        <ele>2467.84</ele>
        <time>2015-04-06T09:22:29Z</time>
      </trkpt>
      <trkpt lat="44.50474" lon="6.84704">
        <ele>2467.84</ele>
        <time>2015-04-06T09:22:30Z</time>
      </trkpt>
      <trkpt lat="44.50474" lon="6.84699">
        <ele>2467.36</ele>
        <time>2015-04-06T09:22:31Z</time>
      </trkpt>
      <trkpt lat="44.50477" lon="6.84677">
        <ele>2466.88</ele>
        <time>2015-04-06T09:22:43Z</time>
      </trkpt>
      <trkpt lat="44.50468" lon="6.84644">
        <ele>2464</ele>
        <time>2015-04-06T09:22:55Z</time>
      </trkpt>
      <trkpt lat="44.50467" lon="6.8464">
        <ele>2463.52</ele>
        <time>2015-04-06T09:22:56Z</time>
      </trkpt>
      <trkpt lat="44.50471" lon="6.84622">
        <ele>2459.67</ele>
        <time>2015-04-06T09:23:00Z</time>
      </trkpt>
      <trkpt lat="44.50473" lon="6.8461">
        <ele>2456.31</ele>
        <time>2015-04-06T09:23:02Z</time>
      </trkpt>
      <trkpt lat="44.50471" lon="6.84596">
        <ele>2451.98</ele>
        <time>2015-04-06T09:23:04Z</time>
      </trkpt>
      <trkpt lat="44.50469" lon="6.8458">
        <ele>2447.65</ele>
        <time>2015-04-06T09:23:06Z</time>
      </trkpt>
      <trkpt lat="44.50466" lon="6.84541">
        <ele>2440.92</ele>
        <time>2015-04-06T09:23:11Z</time>
      </trkpt>
      <trkpt lat="44.50465" lon="6.84535">
        <ele>2440.44</ele>
        <time>2015-04-06T09:23:12Z</time>
      </trkpt>
      <trkpt lat="44.50456" lon="6.84496">
        <ele>2436.6</ele>
        <time>2015-04-06T09:23:22Z</time>
      </trkpt>
      <trkpt lat="44.50451" lon="6.84471">
        <ele>2434.2</ele>
        <time>2015-04-06T09:23:36Z</time>
      </trkpt>
      <trkpt lat="44.50447" lon="6.84455">
        <ele>2431.79</ele>
        <time>2015-04-06T09:23:51Z</time>
      </trkpt>
      <trkpt lat="44.50444" lon="6.84445">
        <ele>2430.35</ele>
        <time>2015-04-06T09:23:56Z</time>
      </trkpt>
      <trkpt lat="44.50448" lon="6.84434">
        <ele>2425.54</ele>
        <time>2015-04-06T09:23:59Z</time>
      </trkpt>
      <trkpt lat="44.50456" lon="6.84424">
        <ele>2419.3</ele>
        <time>2015-04-06T09:24:02Z</time>
      </trkpt>
      <trkpt lat="44.50461" lon="6.84412">
        <ele>2415.93</ele>
        <time>2015-04-06T09:24:04Z</time>
      </trkpt>
      <trkpt lat="44.50463" lon="6.84405">
        <ele>2412.57</ele>
        <time>2015-04-06T09:24:05Z</time>
      </trkpt>
      <trkpt lat="44.50465" lon="6.8439">
        <ele>2408.24</ele>
        <time>2015-04-06T09:24:07Z</time>
      </trkpt>
      <trkpt lat="44.50465" lon="6.84374">
        <ele>2403.43</ele>
        <time>2015-04-06T09:24:09Z</time>
      </trkpt>
      <trkpt lat="44.50467" lon="6.84357">
        <ele>2399.11</ele>
        <time>2015-04-06T09:24:11Z</time>
      </trkpt>
      <trkpt lat="44.50467" lon="6.84348">
        <ele>2397.18</ele>
        <time>2015-04-06T09:24:12Z</time>
      </trkpt>
      <trkpt lat="44.50463" lon="6.84311">
        <ele>2390.94</ele>
        <time>2015-04-06T09:24:16Z</time>
      </trkpt>
      <trkpt lat="44.50456" lon="6.84269">
        <ele>2386.61</ele>
        <time>2015-04-06T09:24:20Z</time>
      </trkpt>
      <trkpt lat="44.5045" lon="6.84242">
        <ele>2383.73</ele>
        <time>2015-04-06T09:24:23Z</time>
      </trkpt>
      <trkpt lat="44.50443" lon="6.84227">
        <ele>2381.8</ele>
        <time>2015-04-06T09:24:26Z</time>
      </trkpt>
      <trkpt lat="44.50441" lon="6.84227">
        <ele>2381.8</ele>
        <time>2015-04-06T09:24:40Z</time>
      </trkpt>
      <trkpt lat="44.50444" lon="6.84229">
        <ele>2381.8</ele>
        <time>2015-04-06T09:25:10Z</time>
      </trkpt>
      <trkpt lat="44.5044" lon="6.84224">
        <ele>2381.8</ele>
        <time>2015-04-06T09:25:25Z</time>
      </trkpt>
      <trkpt lat="44.5043" lon="6.84204">
        <ele>2380.84</ele>
        <time>2015-04-06T09:25:38Z</time>
      </trkpt>
      <trkpt lat="44.50424" lon="6.84202">
        <ele>2381.32</ele>
        <time>2015-04-06T09:25:47Z</time>
      </trkpt>
      <trkpt lat="44.50404" lon="6.84208">
        <ele>2377.96</ele>
        <time>2015-04-06T09:25:59Z</time>
      </trkpt>
      <trkpt lat="44.50399" lon="6.84209">
        <ele>2376.52</ele>
        <time>2015-04-06T09:26:00Z</time>
      </trkpt>
      <trkpt lat="44.50375" lon="6.84199">
        <ele>2373.15</ele>
        <time>2015-04-06T09:26:05Z</time>
      </trkpt>
      <trkpt lat="44.50372" lon="6.84171">
        <ele>2370.75</ele>
        <time>2015-04-06T09:26:11Z</time>
      </trkpt>
      <trkpt lat="44.50386" lon="6.84128">
        <ele>2368.35</ele>
        <time>2015-04-06T09:26:22Z</time>
      </trkpt>
      <trkpt lat="44.50387" lon="6.8409">
        <ele>2366.9</ele>
        <time>2015-04-06T09:26:34Z</time>
      </trkpt>
      <trkpt lat="44.50377" lon="6.84049">
        <ele>2364.5</ele>
        <time>2015-04-06T09:26:46Z</time>
      </trkpt>
      <trkpt lat="44.50356" lon="6.84019">
        <ele>2361.62</ele>
        <time>2015-04-06T09:26:55Z</time>
      </trkpt>
      <trkpt lat="44.50327" lon="6.83982">
        <ele>2358.25</ele>
        <time>2015-04-06T09:27:05Z</time>
      </trkpt>
      <trkpt lat="44.50321" lon="6.83975">
        <ele>2358.73</ele>
        <time>2015-04-06T09:27:15Z</time>
      </trkpt>
      <trkpt lat="44.50308" lon="6.83955">
        <ele>2358.25</ele>
        <time>2015-04-06T09:27:29Z</time>
      </trkpt>
      <trkpt lat="44.50302" lon="6.83947">
        <ele>2358.73</ele>
        <time>2015-04-06T09:27:42Z</time>
      </trkpt>
      <trkpt lat="44.50301" lon="6.83945">
        <ele>2358.73</ele>
        <time>2015-04-06T09:27:56Z</time>
      </trkpt>
      <trkpt lat="44.503" lon="6.83946">
        <ele>2358.73</ele>
        <time>2015-04-06T09:28:12Z</time>
      </trkpt>
      <trkpt lat="44.50299" lon="6.83943">
        <ele>2357.77</ele>
        <time>2015-04-06T09:28:22Z</time>
      </trkpt>
      <trkpt lat="44.50298" lon="6.83944">
        <ele>2357.77</ele>
        <time>2015-04-06T09:28:52Z</time>
      </trkpt>
      <trkpt lat="44.50299" lon="6.83944">
        <ele>2358.25</ele>
        <time>2015-04-06T09:29:19Z</time>
      </trkpt>
      <trkpt lat="44.50297" lon="6.83944">
        <ele>2358.25</ele>
        <time>2015-04-06T09:29:50Z</time>
      </trkpt>
      <trkpt lat="44.50297" lon="6.83945">
        <ele>2358.25</ele>
        <time>2015-04-06T09:30:31Z</time>
      </trkpt>
      <trkpt lat="44.50298" lon="6.83945">
        <ele>2358.73</ele>
        <time>2015-04-06T09:31:02Z</time>
      </trkpt>
      <trkpt lat="44.50299" lon="6.83944">
        <ele>2358.73</ele>
        <time>2015-04-06T09:31:36Z</time>
      </trkpt>
      <trkpt lat="44.50298" lon="6.83944">
        <ele>2358.73</ele>
        <time>2015-04-06T09:32:11Z</time>
      </trkpt>
      <trkpt lat="44.50297" lon="6.83944">
        <ele>2359.21</ele>
        <time>2015-04-06T09:32:49Z</time>
      </trkpt>
      <trkpt lat="44.50298" lon="6.83945">
        <ele>2359.21</ele>
        <time>2015-04-06T09:33:17Z</time>
      </trkpt>
      <trkpt lat="44.50301" lon="6.83945">
        <ele>2359.21</ele>
        <time>2015-04-06T09:33:51Z</time>
      </trkpt>
      <trkpt lat="44.503" lon="6.83944">
        <ele>2359.21</ele>
        <time>2015-04-06T09:34:28Z</time>
      </trkpt>
      <trkpt lat="44.50299" lon="6.83944">
        <ele>2359.21</ele>
        <time>2015-04-06T09:34:54Z</time>
      </trkpt>
      <trkpt lat="44.50301" lon="6.83944">
        <ele>2360.17</ele>
        <time>2015-04-06T09:35:21Z</time>
      </trkpt>
      <trkpt lat="44.503" lon="6.83944">
        <ele>2360.17</ele>
        <time>2015-04-06T09:35:43Z</time>
      </trkpt>
      <trkpt lat="44.503" lon="6.83942">
        <ele>2360.65</ele>
        <time>2015-04-06T09:36:01Z</time>
      </trkpt>
      <trkpt lat="44.50299" lon="6.83942">
        <ele>2360.17</ele>
        <time>2015-04-06T09:36:18Z</time>
      </trkpt>
      <trkpt lat="44.50297" lon="6.83942">
        <ele>2360.65</ele>
        <time>2015-04-06T09:36:32Z</time>
      </trkpt>
      <trkpt lat="44.50298" lon="6.83942">
        <ele>2361.14</ele>
        <time>2015-04-06T09:36:51Z</time>
      </trkpt>
      <trkpt lat="44.50298" lon="6.83943">
        <ele>2361.62</ele>
        <time>2015-04-06T09:37:19Z</time>
      </trkpt>
      <trkpt lat="44.50298" lon="6.83941">
        <ele>2361.62</ele>
        <time>2015-04-06T09:37:43Z</time>
      </trkpt>
      <trkpt lat="44.50297" lon="6.83942">
        <ele>2361.62</ele>
        <time>2015-04-06T09:38:04Z</time>
      </trkpt>
      <trkpt lat="44.50296" lon="6.8394">
        <ele>2362.1</ele>
        <time>2015-04-06T09:38:23Z</time>
      </trkpt>
      <trkpt lat="44.50297" lon="6.83944">
        <ele>2362.1</ele>
        <time>2015-04-06T09:38:49Z</time>
      </trkpt>
      <trkpt lat="44.50294" lon="6.83941">
        <ele>2362.1</ele>
        <time>2015-04-06T09:39:08Z</time>
      </trkpt>
      <trkpt lat="44.50295" lon="6.83941">
        <ele>2362.1</ele>
        <time>2015-04-06T09:39:27Z</time>
      </trkpt>
      <trkpt lat="44.50293" lon="6.83937">
        <ele>2363.06</ele>
        <time>2015-04-06T09:39:37Z</time>
      </trkpt>
      <trkpt lat="44.50292" lon="6.83939">
        <ele>2364.02</ele>
        <time>2015-04-06T09:39:50Z</time>
      </trkpt>
      <trkpt lat="44.50289" lon="6.83948">
        <ele>2364.98</ele>
        <time>2015-04-06T09:40:04Z</time>
      </trkpt>
      <trkpt lat="44.50285" lon="6.83953">
        <ele>2366.42</ele>
        <time>2015-04-06T09:40:17Z</time>
      </trkpt>
      <trkpt lat="44.50281" lon="6.83959">
        <ele>2367.86</ele>
        <time>2015-04-06T09:40:32Z</time>
      </trkpt>
      <trkpt lat="44.50276" lon="6.83968">
        <ele>2369.79</ele>
        <time>2015-04-06T09:40:47Z</time>
      </trkpt>
      <trkpt lat="44.5027" lon="6.83976">
        <ele>2371.71</ele>
        <time>2015-04-06T09:41:01Z</time>
      </trkpt>
      <trkpt lat="44.50265" lon="6.83985">
        <ele>2374.11</ele>
        <time>2015-04-06T09:41:17Z</time>
      </trkpt>
      <trkpt lat="44.50263" lon="6.83989">
        <ele>2375.07</ele>
        <time>2015-04-06T09:41:30Z</time>
      </trkpt>
      <trkpt lat="44.50262" lon="6.8399">
        <ele>2375.07</ele>
        <time>2015-04-06T09:41:38Z</time>
      </trkpt>
      <trkpt lat="44.50258" lon="6.83997">
        <ele>2377.48</ele>
        <time>2015-04-06T09:41:50Z</time>
      </trkpt>
      <trkpt lat="44.50253" lon="6.84005">
        <ele>2379.4</ele>
        <time>2015-04-06T09:42:02Z</time>
      </trkpt>
      <trkpt lat="44.50247" lon="6.84008">
        <ele>2380.84</ele>
        <time>2015-04-06T09:42:14Z</time>
      </trkpt>
      <trkpt lat="44.50241" lon="6.84003">
        <ele>2383.25</ele>
        <time>2015-04-06T09:42:29Z</time>
      </trkpt>
      <trkpt lat="44.50238" lon="6.84">
        <ele>2384.69</ele>
        <time>2015-04-06T09:42:40Z</time>
      </trkpt>
      <trkpt lat="44.50231" lon="6.83992">
        <ele>2387.09</ele>
        <time>2015-04-06T09:42:56Z</time>
      </trkpt>
      <trkpt lat="44.50226" lon="6.83986">
        <ele>2389.49</ele>
        <time>2015-04-06T09:43:11Z</time>
      </trkpt>
      <trkpt lat="44.50223" lon="6.83983">
        <ele>2391.42</ele>
        <time>2015-04-06T09:43:25Z</time>
      </trkpt>
      <trkpt lat="44.50219" lon="6.83992">
        <ele>2393.34</ele>
        <time>2015-04-06T09:43:40Z</time>
      </trkpt>
      <trkpt lat="44.50215" lon="6.84001">
        <ele>2395.26</ele>
        <time>2015-04-06T09:43:56Z</time>
      </trkpt>
      <trkpt lat="44.50214" lon="6.84008">
        <ele>2396.7</ele>
        <time>2015-04-06T09:44:09Z</time>
      </trkpt>
      <trkpt lat="44.50212" lon="6.84014">
        <ele>2398.15</ele>
        <time>2015-04-06T09:44:22Z</time>
      </trkpt>
      <trkpt lat="44.50207" lon="6.84012">
        <ele>2400.07</ele>
        <time>2015-04-06T09:44:36Z</time>
      </trkpt>
      <trkpt lat="44.50202" lon="6.84009">
        <ele>2401.99</ele>
        <time>2015-04-06T09:44:50Z</time>
      </trkpt>
      <trkpt lat="44.50198" lon="6.84006">
        <ele>2404.39</ele>
        <time>2015-04-06T09:45:03Z</time>
      </trkpt>
      <trkpt lat="44.50196" lon="6.84007">
        <ele>2405.84</ele>
        <time>2015-04-06T09:45:15Z</time>
      </trkpt>
      <trkpt lat="44.50193" lon="6.84013">
        <ele>2407.28</ele>
        <time>2015-04-06T09:45:27Z</time>
      </trkpt>
      <trkpt lat="44.50191" lon="6.84019">
        <ele>2409.2</ele>
        <time>2015-04-06T09:45:44Z</time>
      </trkpt>
      <trkpt lat="44.50189" lon="6.84027">
        <ele>2411.12</ele>
        <time>2015-04-06T09:45:55Z</time>
      </trkpt>
      <trkpt lat="44.50184" lon="6.84027">
        <ele>2412.57</ele>
        <time>2015-04-06T09:46:07Z</time>
      </trkpt>
      <trkpt lat="44.5018" lon="6.84024">
        <ele>2414.49</ele>
        <time>2015-04-06T09:46:20Z</time>
      </trkpt>
      <trkpt lat="44.50175" lon="6.84022">
        <ele>2416.41</ele>
        <time>2015-04-06T09:46:34Z</time>
      </trkpt>
      <trkpt lat="44.5017" lon="6.84018">
        <ele>2417.85</ele>
        <time>2015-04-06T09:46:47Z</time>
      </trkpt>
      <trkpt lat="44.50167" lon="6.84016">
        <ele>2419.78</ele>
        <time>2015-04-06T09:46:58Z</time>
      </trkpt>
      <trkpt lat="44.50164" lon="6.84023">
        <ele>2421.22</ele>
        <time>2015-04-06T09:47:11Z</time>
      </trkpt>
      <trkpt lat="44.50162" lon="6.84031">
        <ele>2423.14</ele>
        <time>2015-04-06T09:47:24Z</time>
      </trkpt>
      <trkpt lat="44.50163" lon="6.8404">
        <ele>2425.06</ele>
        <time>2015-04-06T09:47:38Z</time>
      </trkpt>
      <trkpt lat="44.50165" lon="6.84047">
        <ele>2426.5</ele>
        <time>2015-04-06T09:47:52Z</time>
      </trkpt>
      <trkpt lat="44.50165" lon="6.84059">
        <ele>2429.39</ele>
        <time>2015-04-06T09:48:10Z</time>
      </trkpt>
      <trkpt lat="44.50166" lon="6.84067">
        <ele>2430.83</ele>
        <time>2015-04-06T09:48:24Z</time>
      </trkpt>
      <trkpt lat="44.5017" lon="6.84075">
        <ele>2432.75</ele>
        <time>2015-04-06T09:48:37Z</time>
      </trkpt>
      <trkpt lat="44.50169" lon="6.84085">
        <ele>2435.16</ele>
        <time>2015-04-06T09:48:53Z</time>
      </trkpt>
      <trkpt lat="44.50168" lon="6.84094">
        <ele>2436.6</ele>
        <time>2015-04-06T09:49:10Z</time>
      </trkpt>
      <trkpt lat="44.50167" lon="6.84104">
        <ele>2438.52</ele>
        <time>2015-04-06T09:49:25Z</time>
      </trkpt>
      <trkpt lat="44.50168" lon="6.84115">
        <ele>2440.44</ele>
        <time>2015-04-06T09:49:41Z</time>
      </trkpt>
      <trkpt lat="44.50168" lon="6.84126">
        <ele>2442.37</ele>
        <time>2015-04-06T09:49:57Z</time>
      </trkpt>
      <trkpt lat="44.50167" lon="6.84139">
        <ele>2444.29</ele>
        <time>2015-04-06T09:50:14Z</time>
      </trkpt>
      <trkpt lat="44.50167" lon="6.84151">
        <ele>2446.21</ele>
        <time>2015-04-06T09:50:31Z</time>
      </trkpt>
      <trkpt lat="44.50166" lon="6.84159">
        <ele>2448.13</ele>
        <time>2015-04-06T09:50:46Z</time>
      </trkpt>
      <trkpt lat="44.50165" lon="6.84167">
        <ele>2449.58</ele>
        <time>2015-04-06T09:50:59Z</time>
      </trkpt>
      <trkpt lat="44.50164" lon="6.84177">
        <ele>2451.5</ele>
        <time>2015-04-06T09:51:13Z</time>
      </trkpt>
      <trkpt lat="44.50163" lon="6.84186">
        <ele>2452.94</ele>
        <time>2015-04-06T09:51:27Z</time>
      </trkpt>
      <trkpt lat="44.50162" lon="6.84197">
        <ele>2454.38</ele>
        <time>2015-04-06T09:51:43Z</time>
      </trkpt>
      <trkpt lat="44.50161" lon="6.84207">
        <ele>2455.82</ele>
        <time>2015-04-06T09:51:58Z</time>
      </trkpt>
      <trkpt lat="44.50161" lon="6.8422">
        <ele>2457.27</ele>
        <time>2015-04-06T09:52:14Z</time>
      </trkpt>
      <trkpt lat="44.50161" lon="6.84228">
        <ele>2459.19</ele>
        <time>2015-04-06T09:52:27Z</time>
      </trkpt>
      <trkpt lat="44.50162" lon="6.84235">
        <ele>2460.63</ele>
        <time>2015-04-06T09:52:40Z</time>
      </trkpt>
      <trkpt lat="44.50161" lon="6.84242">
        <ele>2463.04</ele>
        <time>2015-04-06T09:52:56Z</time>
      </trkpt>
      <trkpt lat="44.50162" lon="6.84248">
        <ele>2464.48</ele>
        <time>2015-04-06T09:53:09Z</time>
      </trkpt>
      <trkpt lat="44.50162" lon="6.84256">
        <ele>2466.4</ele>
        <time>2015-04-06T09:53:25Z</time>
      </trkpt>
      <trkpt lat="44.50163" lon="6.84261">
        <ele>2467.36</ele>
        <time>2015-04-06T09:53:39Z</time>
      </trkpt>
      <trkpt lat="44.50162" lon="6.84265">
        <ele>2468.32</ele>
        <time>2015-04-06T09:54:01Z</time>
      </trkpt>
      <trkpt lat="44.50163" lon="6.8427">
        <ele>2469.28</ele>
        <time>2015-04-06T09:54:14Z</time>
      </trkpt>
      <trkpt lat="44.50163" lon="6.84273">
        <ele>2469.76</ele>
        <time>2015-04-06T09:54:31Z</time>
      </trkpt>
      <trkpt lat="44.50164" lon="6.84279">
        <ele>2471.69</ele>
        <time>2015-04-06T09:54:44Z</time>
      </trkpt>
      <trkpt lat="44.50166" lon="6.84288">
        <ele>2473.61</ele>
        <time>2015-04-06T09:54:57Z</time>
      </trkpt>
      <trkpt lat="44.50168" lon="6.84296">
        <ele>2475.05</ele>
        <time>2015-04-06T09:55:12Z</time>
      </trkpt>
      <trkpt lat="44.50172" lon="6.843">
        <ele>2476.49</ele>
        <time>2015-04-06T09:55:27Z</time>
      </trkpt>
      <trkpt lat="44.50174" lon="6.84306">
        <ele>2478.42</ele>
        <time>2015-04-06T09:55:41Z</time>
      </trkpt>
      <trkpt lat="44.50176" lon="6.84315">
        <ele>2480.34</ele>
        <time>2015-04-06T09:55:55Z</time>
      </trkpt>
      <trkpt lat="44.50178" lon="6.84323">
        <ele>2482.26</ele>
        <time>2015-04-06T09:56:11Z</time>
      </trkpt>
      <trkpt lat="44.50179" lon="6.84332">
        <ele>2483.7</ele>
        <time>2015-04-06T09:56:25Z</time>
      </trkpt>
      <trkpt lat="44.50179" lon="6.84334">
        <ele>2484.18</ele>
        <time>2015-04-06T09:56:45Z</time>
      </trkpt>
      <trkpt lat="44.50181" lon="6.84342">
        <ele>2485.63</ele>
        <time>2015-04-06T09:56:58Z</time>
      </trkpt>
      <trkpt lat="44.50182" lon="6.84351">
        <ele>2487.55</ele>
        <time>2015-04-06T09:57:12Z</time>
      </trkpt>
      <trkpt lat="44.50184" lon="6.8436">
        <ele>2489.47</ele>
        <time>2015-04-06T09:57:25Z</time>
      </trkpt>
      <trkpt lat="44.50184" lon="6.84369">
        <ele>2490.91</ele>
        <time>2015-04-06T09:57:38Z</time>
      </trkpt>
      <trkpt lat="44.50185" lon="6.84376">
        <ele>2492.36</ele>
        <time>2015-04-06T09:57:52Z</time>
      </trkpt>
      <trkpt lat="44.50186" lon="6.8439">
        <ele>2494.76</ele>
        <time>2015-04-06T09:58:10Z</time>
      </trkpt>
      <trkpt lat="44.50186" lon="6.84399">
        <ele>2496.2</ele>
        <time>2015-04-06T09:58:22Z</time>
      </trkpt>
      <trkpt lat="44.50186" lon="6.84403">
        <ele>2497.64</ele>
        <time>2015-04-06T09:58:35Z</time>
      </trkpt>
      <trkpt lat="44.50188" lon="6.84413">
        <ele>2499.57</ele>
        <time>2015-04-06T09:58:49Z</time>
      </trkpt>
      <trkpt lat="44.50192" lon="6.84418">
        <ele>2501.49</ele>
        <time>2015-04-06T09:59:02Z</time>
      </trkpt>
      <trkpt lat="44.502" lon="6.84419">
        <ele>2502.93</ele>
        <time>2015-04-06T09:59:15Z</time>
      </trkpt>
      <trkpt lat="44.50205" lon="6.8442">
        <ele>2504.37</ele>
        <time>2015-04-06T09:59:28Z</time>
      </trkpt>
      <trkpt lat="44.5021" lon="6.84422">
        <ele>2505.81</ele>
        <time>2015-04-06T09:59:41Z</time>
      </trkpt>
      <trkpt lat="44.50215" lon="6.84424">
        <ele>2507.26</ele>
        <time>2015-04-06T09:59:53Z</time>
      </trkpt>
      <trkpt lat="44.50224" lon="6.84427">
        <ele>2510.14</ele>
        <time>2015-04-06T10:00:15Z</time>
      </trkpt>
      <trkpt lat="44.50226" lon="6.84428">
        <ele>2511.58</ele>
        <time>2015-04-06T10:00:25Z</time>
      </trkpt>
      <trkpt lat="44.50222" lon="6.84434">
        <ele>2513.02</ele>
        <time>2015-04-06T10:00:40Z</time>
      </trkpt>
      <trkpt lat="44.50217" lon="6.84439">
        <ele>2515.43</ele>
        <time>2015-04-06T10:00:56Z</time>
      </trkpt>
      <trkpt lat="44.50215" lon="6.84441">
        <ele>2515.91</ele>
        <time>2015-04-06T10:01:10Z</time>
      </trkpt>
      <trkpt lat="44.50219" lon="6.84445">
        <ele>2517.35</ele>
        <time>2015-04-06T10:01:21Z</time>
      </trkpt>
      <trkpt lat="44.50224" lon="6.84448">
        <ele>2518.79</ele>
        <time>2015-04-06T10:01:33Z</time>
      </trkpt>
      <trkpt lat="44.50228" lon="6.84449">
        <ele>2520.23</ele>
        <time>2015-04-06T10:01:45Z</time>
      </trkpt>
      <trkpt lat="44.50235" lon="6.84456">
        <ele>2521.68</ele>
        <time>2015-04-06T10:01:59Z</time>
      </trkpt>
      <trkpt lat="44.50236" lon="6.84457">
        <ele>2522.16</ele>
        <time>2015-04-06T10:02:10Z</time>
      </trkpt>
      <trkpt lat="44.50236" lon="6.8446">
        <ele>2522.64</ele>
        <time>2015-04-06T10:02:22Z</time>
      </trkpt>
      <trkpt lat="44.50231" lon="6.8446">
        <ele>2524.56</ele>
        <time>2015-04-06T10:02:36Z</time>
      </trkpt>
      <trkpt lat="44.50224" lon="6.84461">
        <ele>2526</ele>
        <time>2015-04-06T10:02:49Z</time>
      </trkpt>
      <trkpt lat="44.50225" lon="6.84461">
        <ele>2526</ele>
        <time>2015-04-06T10:03:04Z</time>
      </trkpt>
      <trkpt lat="44.50228" lon="6.84465">
        <ele>2527.44</ele>
        <time>2015-04-06T10:03:18Z</time>
      </trkpt>
      <trkpt lat="44.50232" lon="6.84469">
        <ele>2528.89</ele>
        <time>2015-04-06T10:03:31Z</time>
      </trkpt>
      <trkpt lat="44.50234" lon="6.84473">
        <ele>2530.33</ele>
        <time>2015-04-06T10:03:44Z</time>
      </trkpt>
      <trkpt lat="44.50238" lon="6.84478">
        <ele>2531.77</ele>
        <time>2015-04-06T10:03:58Z</time>
      </trkpt>
      <trkpt lat="44.50241" lon="6.84483">
        <ele>2533.69</ele>
        <time>2015-04-06T10:04:10Z</time>
      </trkpt>
      <trkpt lat="44.50244" lon="6.84488">
        <ele>2534.65</ele>
        <time>2015-04-06T10:04:23Z</time>
      </trkpt>
      <trkpt lat="44.50245" lon="6.84489">
        <ele>2534.65</ele>
        <time>2015-04-06T10:04:36Z</time>
      </trkpt>
      <trkpt lat="44.50243" lon="6.84492">
        <ele>2535.13</ele>
        <time>2015-04-06T10:04:49Z</time>
      </trkpt>
      <trkpt lat="44.50239" lon="6.84492">
        <ele>2537.06</ele>
        <time>2015-04-06T10:05:03Z</time>
      </trkpt>
      <trkpt lat="44.50235" lon="6.84492">
        <ele>2538.02</ele>
        <time>2015-04-06T10:05:14Z</time>
      </trkpt>
      <trkpt lat="44.50229" lon="6.84493">
        <ele>2539.94</ele>
        <time>2015-04-06T10:05:28Z</time>
      </trkpt>
      <trkpt lat="44.50221" lon="6.84495">
        <ele>2542.34</ele>
        <time>2015-04-06T10:05:46Z</time>
      </trkpt>
      <trkpt lat="44.50219" lon="6.84498">
        <ele>2542.82</ele>
        <time>2015-04-06T10:05:59Z</time>
      </trkpt>
      <trkpt lat="44.50221" lon="6.845">
        <ele>2544.27</ele>
        <time>2015-04-06T10:06:11Z</time>
      </trkpt>
      <trkpt lat="44.50227" lon="6.84504">
        <ele>2546.19</ele>
        <time>2015-04-06T10:06:25Z</time>
      </trkpt>
      <trkpt lat="44.50235" lon="6.84512">
        <ele>2549.07</ele>
        <time>2015-04-06T10:06:46Z</time>
      </trkpt>
      <trkpt lat="44.50238" lon="6.84523">
        <ele>2551</ele>
        <time>2015-04-06T10:07:01Z</time>
      </trkpt>
      <trkpt lat="44.50232" lon="6.84527">
        <ele>2552.92</ele>
        <time>2015-04-06T10:07:20Z</time>
      </trkpt>
      <trkpt lat="44.50224" lon="6.8453">
        <ele>2555.8</ele>
        <time>2015-04-06T10:07:38Z</time>
      </trkpt>
      <trkpt lat="44.50219" lon="6.84534">
        <ele>2557.24</ele>
        <time>2015-04-06T10:07:53Z</time>
      </trkpt>
      <trkpt lat="44.50212" lon="6.84539">
        <ele>2559.17</ele>
        <time>2015-04-06T10:08:08Z</time>
      </trkpt>
      <trkpt lat="44.50211" lon="6.84541">
        <ele>2560.13</ele>
        <time>2015-04-06T10:08:31Z</time>
      </trkpt>
      <trkpt lat="44.50211" lon="6.84542">
        <ele>2559.65</ele>
        <time>2015-04-06T10:09:02Z</time>
      </trkpt>
      <trkpt lat="44.50211" lon="6.84541">
        <ele>2559.65</ele>
        <time>2015-04-06T10:09:22Z</time>
      </trkpt>
      <trkpt lat="44.50209" lon="6.84543">
        <ele>2560.13</ele>
        <time>2015-04-06T10:09:53Z</time>
      </trkpt>
      <trkpt lat="44.50205" lon="6.84547">
        <ele>2562.05</ele>
        <time>2015-04-06T10:10:05Z</time>
      </trkpt>
      <trkpt lat="44.50208" lon="6.8455">
        <ele>2563.49</ele>
        <time>2015-04-06T10:10:16Z</time>
      </trkpt>
      <trkpt lat="44.50213" lon="6.84555">
        <ele>2564.93</ele>
        <time>2015-04-06T10:10:30Z</time>
      </trkpt>
      <trkpt lat="44.50217" lon="6.84564">
        <ele>2566.86</ele>
        <time>2015-04-06T10:10:43Z</time>
      </trkpt>
      <trkpt lat="44.50213" lon="6.84567">
        <ele>2568.78</ele>
        <time>2015-04-06T10:10:55Z</time>
      </trkpt>
      <trkpt lat="44.5021" lon="6.84572">
        <ele>2570.7</ele>
        <time>2015-04-06T10:11:08Z</time>
      </trkpt>
      <trkpt lat="44.50205" lon="6.84576">
        <ele>2572.14</ele>
        <time>2015-04-06T10:11:22Z</time>
      </trkpt>
      <trkpt lat="44.502" lon="6.84581">
        <ele>2574.55</ele>
        <time>2015-04-06T10:11:38Z</time>
      </trkpt>
      <trkpt lat="44.50195" lon="6.84585">
        <ele>2575.51</ele>
        <time>2015-04-06T10:11:54Z</time>
      </trkpt>
      <trkpt lat="44.50197" lon="6.8459">
        <ele>2577.43</ele>
        <time>2015-04-06T10:12:07Z</time>
      </trkpt>
      <trkpt lat="44.50203" lon="6.84595">
        <ele>2579.35</ele>
        <time>2015-04-06T10:12:23Z</time>
      </trkpt>
      <trkpt lat="44.50207" lon="6.8461">
        <ele>2581.76</ele>
        <time>2015-04-06T10:12:40Z</time>
      </trkpt>
      <trkpt lat="44.50207" lon="6.84614">
        <ele>2583.2</ele>
        <time>2015-04-06T10:12:53Z</time>
      </trkpt>
      <trkpt lat="44.50206" lon="6.84613">
        <ele>2583.2</ele>
        <time>2015-04-06T10:13:20Z</time>
      </trkpt>
      <trkpt lat="44.50205" lon="6.84613">
        <ele>2583.2</ele>
        <time>2015-04-06T10:13:54Z</time>
      </trkpt>
      <trkpt lat="44.50199" lon="6.84618">
        <ele>2585.6</ele>
        <time>2015-04-06T10:14:12Z</time>
      </trkpt>
      <trkpt lat="44.50194" lon="6.84626">
        <ele>2588.01</ele>
        <time>2015-04-06T10:14:26Z</time>
      </trkpt>
      <trkpt lat="44.50198" lon="6.8463">
        <ele>2589.93</ele>
        <time>2015-04-06T10:14:39Z</time>
      </trkpt>
      <trkpt lat="44.50199" lon="6.84643">
        <ele>2592.33</ele>
        <time>2015-04-06T10:14:55Z</time>
      </trkpt>
      <trkpt lat="44.50194" lon="6.84644">
        <ele>2594.25</ele>
        <time>2015-04-06T10:15:09Z</time>
      </trkpt>
      <trkpt lat="44.50188" lon="6.84648">
        <ele>2595.7</ele>
        <time>2015-04-06T10:15:23Z</time>
      </trkpt>
      <trkpt lat="44.50185" lon="6.8465">
        <ele>2597.14</ele>
        <time>2015-04-06T10:15:34Z</time>
      </trkpt>
      <trkpt lat="44.50187" lon="6.84654">
        <ele>2598.58</ele>
        <time>2015-04-06T10:15:46Z</time>
      </trkpt>
      <trkpt lat="44.50187" lon="6.84664">
        <ele>2601.46</ele>
        <time>2015-04-06T10:16:07Z</time>
      </trkpt>
      <trkpt lat="44.50182" lon="6.8467">
        <ele>2603.87</ele>
        <time>2015-04-06T10:16:24Z</time>
      </trkpt>
      <trkpt lat="44.50184" lon="6.84672">
        <ele>2604.35</ele>
        <time>2015-04-06T10:16:38Z</time>
      </trkpt>
      <trkpt lat="44.50191" lon="6.84676">
        <ele>2605.79</ele>
        <time>2015-04-06T10:16:53Z</time>
      </trkpt>
      <trkpt lat="44.50195" lon="6.84679">
        <ele>2607.23</ele>
        <time>2015-04-06T10:17:06Z</time>
      </trkpt>
      <trkpt lat="44.50197" lon="6.84685">
        <ele>2609.16</ele>
        <time>2015-04-06T10:17:20Z</time>
      </trkpt>
      <trkpt lat="44.50201" lon="6.84692">
        <ele>2610.12</ele>
        <time>2015-04-06T10:17:34Z</time>
      </trkpt>
      <trkpt lat="44.50203" lon="6.84696">
        <ele>2611.56</ele>
        <time>2015-04-06T10:17:51Z</time>
      </trkpt>
      <trkpt lat="44.50206" lon="6.84702">
        <ele>2612.04</ele>
        <time>2015-04-06T10:18:05Z</time>
      </trkpt>
      <trkpt lat="44.50204" lon="6.84704">
        <ele>2612.04</ele>
        <time>2015-04-06T10:18:23Z</time>
      </trkpt>
      <trkpt lat="44.50205" lon="6.84705">
        <ele>2612.04</ele>
        <time>2015-04-06T10:18:36Z</time>
      </trkpt>
      <trkpt lat="44.50204" lon="6.84707">
        <ele>2611.08</ele>
        <time>2015-04-06T10:18:55Z</time>
      </trkpt>
      <trkpt lat="44.50204" lon="6.84708">
        <ele>2611.56</ele>
        <time>2015-04-06T10:19:20Z</time>
      </trkpt>
      <trkpt lat="44.50203" lon="6.84709">
        <ele>2611.56</ele>
        <time>2015-04-06T10:19:43Z</time>
      </trkpt>
      <trkpt lat="44.50202" lon="6.84709">
        <ele>2611.08</ele>
        <time>2015-04-06T10:20:12Z</time>
      </trkpt>
      <trkpt lat="44.50202" lon="6.84709">
        <ele>2611.56</ele>
        <time>2015-04-06T10:20:42Z</time>
      </trkpt>
      <trkpt lat="44.50202" lon="6.84709">
        <ele>2611.56</ele>
        <time>2015-04-06T10:21:09Z</time>
      </trkpt>
      <trkpt lat="44.50202" lon="6.84709">
        <ele>2611.56</ele>
        <time>2015-04-06T10:21:27Z</time>
      </trkpt>
      <trkpt lat="44.50203" lon="6.84709">
        <ele>2607.71</ele>
        <time>2015-04-06T10:21:45Z</time>
      </trkpt>
      <trkpt lat="44.50203" lon="6.84709">
        <ele>2613</ele>
        <time>2015-04-06T10:21:46Z</time>
      </trkpt>
      <trkpt lat="44.50203" lon="6.84708">
        <ele>2611.08</ele>
        <time>2015-04-06T10:21:50Z</time>
      </trkpt>
      <trkpt lat="44.50202" lon="6.84709">
        <ele>2611.08</ele>
        <time>2015-04-06T10:22:26Z</time>
      </trkpt>
      <trkpt lat="44.50201" lon="6.84709">
        <ele>2611.08</ele>
        <time>2015-04-06T10:23:10Z</time>
      </trkpt>
      <trkpt lat="44.50201" lon="6.84709">
        <ele>2611.08</ele>
        <time>2015-04-06T10:23:56Z</time>
      </trkpt>
      <trkpt lat="44.50202" lon="6.84709">
        <ele>2611.08</ele>
        <time>2015-04-06T10:24:27Z</time>
      </trkpt>
      <trkpt lat="44.50202" lon="6.84709">
        <ele>2610.6</ele>
        <time>2015-04-06T10:25:01Z</time>
      </trkpt>
      <trkpt lat="44.50201" lon="6.84708">
        <ele>2610.6</ele>
        <time>2015-04-06T10:25:42Z</time>
      </trkpt>
      <trkpt lat="44.50202" lon="6.84709">
        <ele>2611.08</ele>
        <time>2015-04-06T10:26:19Z</time>
      </trkpt>
      <trkpt lat="44.50202" lon="6.84708">
        <ele>2611.08</ele>
        <time>2015-04-06T10:26:54Z</time>
      </trkpt>
      <trkpt lat="44.50202" lon="6.84708">
        <ele>2611.08</ele>
        <time>2015-04-06T10:27:21Z</time>
      </trkpt>
      <trkpt lat="44.50201" lon="6.84708">
        <ele>2611.08</ele>
        <time>2015-04-06T10:27:50Z</time>
      </trkpt>
      <trkpt lat="44.50201" lon="6.84708">
        <ele>2610.6</ele>
        <time>2015-04-06T10:28:30Z</time>
      </trkpt>
      <trkpt lat="44.50201" lon="6.84707">
        <ele>2611.08</ele>
        <time>2015-04-06T10:29:09Z</time>
      </trkpt>
      <trkpt lat="44.50201" lon="6.84708">
        <ele>2611.08</ele>
        <time>2015-04-06T10:29:49Z</time>
      </trkpt>
      <trkpt lat="44.50201" lon="6.84708">
        <ele>2611.08</ele>
        <time>2015-04-06T10:30:35Z</time>
      </trkpt>
      <trkpt lat="44.50202" lon="6.84708">
        <ele>2610.6</ele>
        <time>2015-04-06T10:31:16Z</time>
      </trkpt>
      <trkpt lat="44.50201" lon="6.84708">
        <ele>2610.6</ele>
        <time>2015-04-06T10:32:03Z</time>
      </trkpt>
      <trkpt lat="44.50201" lon="6.84708">
        <ele>2610.6</ele>
        <time>2015-04-06T10:32:45Z</time>
      </trkpt>
      <trkpt lat="44.50201" lon="6.84709">
        <ele>2610.12</ele>
        <time>2015-04-06T10:33:28Z</time>
      </trkpt>
      <trkpt lat="44.50201" lon="6.84709">
        <ele>2610.12</ele>
        <time>2015-04-06T10:33:59Z</time>
      </trkpt>
      <trkpt lat="44.50201" lon="6.8471">
        <ele>2610.12</ele>
        <time>2015-04-06T10:34:38Z</time>
      </trkpt>
      <trkpt lat="44.50201" lon="6.8471">
        <ele>2609.64</ele>
        <time>2015-04-06T10:35:12Z</time>
      </trkpt>
      <trkpt lat="44.50201" lon="6.84711">
        <ele>2609.64</ele>
        <time>2015-04-06T10:35:45Z</time>
      </trkpt>
      <trkpt lat="44.50202" lon="6.84711">
        <ele>2609.64</ele>
        <time>2015-04-06T10:36:21Z</time>
      </trkpt>
      <trkpt lat="44.50202" lon="6.84711">
        <ele>2609.64</ele>
        <time>2015-04-06T10:36:59Z</time>
      </trkpt>
      <trkpt lat="44.50202" lon="6.84711">
        <ele>2609.64</ele>
        <time>2015-04-06T10:37:32Z</time>
      </trkpt>
      <trkpt lat="44.50201" lon="6.8471">
        <ele>2609.64</ele>
        <time>2015-04-06T10:38:07Z</time>
      </trkpt>
      <trkpt lat="44.50202" lon="6.84711">
        <ele>2609.64</ele>
        <time>2015-04-06T10:38:43Z</time>
      </trkpt>
      <trkpt lat="44.50202" lon="6.84711">
        <ele>2609.64</ele>
        <time>2015-04-06T10:39:24Z</time>
      </trkpt>
      <trkpt lat="44.50202" lon="6.84712">
        <ele>2609.64</ele>
        <time>2015-04-06T10:40:06Z</time>
      </trkpt>
      <trkpt lat="44.50202" lon="6.84711">
        <ele>2609.64</ele>
        <time>2015-04-06T10:40:39Z</time>
      </trkpt>
      <trkpt lat="44.50202" lon="6.84712">
        <ele>2610.12</ele>
        <time>2015-04-06T10:41:19Z</time>
      </trkpt>
      <trkpt lat="44.50202" lon="6.84711">
        <ele>2609.64</ele>
        <time>2015-04-06T10:41:53Z</time>
      </trkpt>
      <trkpt lat="44.50202" lon="6.84711">
        <ele>2610.12</ele>
        <time>2015-04-06T10:42:28Z</time>
      </trkpt>
      <trkpt lat="44.50203" lon="6.84713">
        <ele>2609.64</ele>
        <time>2015-04-06T10:43:05Z</time>
      </trkpt>
      <trkpt lat="44.50203" lon="6.84711">
        <ele>2609.16</ele>
        <time>2015-04-06T10:43:44Z</time>
      </trkpt>
      <trkpt lat="44.50203" lon="6.84708">
        <ele>2609.64</ele>
        <time>2015-04-06T10:44:04Z</time>
      </trkpt>
      <trkpt lat="44.50203" lon="6.84709">
        <ele>2609.64</ele>
        <time>2015-04-06T10:44:22Z</time>
      </trkpt>
      <trkpt lat="44.50203" lon="6.84707">
        <ele>2609.64</ele>
        <time>2015-04-06T10:44:48Z</time>
      </trkpt>
      <trkpt lat="44.50204" lon="6.84707">
        <ele>2608.67</ele>
        <time>2015-04-06T10:45:09Z</time>
      </trkpt>
      <trkpt lat="44.50204" lon="6.84708">
        <ele>2608.67</ele>
        <time>2015-04-06T10:45:36Z</time>
      </trkpt>
      <trkpt lat="44.50204" lon="6.84709">
        <ele>2609.16</ele>
        <time>2015-04-06T10:46:04Z</time>
      </trkpt>
      <trkpt lat="44.50204" lon="6.84707">
        <ele>2608.67</ele>
        <time>2015-04-06T10:46:31Z</time>
      </trkpt>
      <trkpt lat="44.50204" lon="6.84707">
        <ele>2609.16</ele>
        <time>2015-04-06T10:47:09Z</time>
      </trkpt>
      <trkpt lat="44.50203" lon="6.84708">
        <ele>2608.67</ele>
        <time>2015-04-06T10:47:50Z</time>
      </trkpt>
      <trkpt lat="44.50205" lon="6.84707">
        <ele>2608.67</ele>
        <time>2015-04-06T10:48:24Z</time>
      </trkpt>
      <trkpt lat="44.50203" lon="6.84708">
        <ele>2610.12</ele>
        <time>2015-04-06T10:48:41Z</time>
      </trkpt>
      <trkpt lat="44.50203" lon="6.84707">
        <ele>2610.12</ele>
        <time>2015-04-06T10:49:04Z</time>
      </trkpt>
      <trkpt lat="44.50203" lon="6.84706">
        <ele>2609.64</ele>
        <time>2015-04-06T10:49:22Z</time>
      </trkpt>
      <trkpt lat="44.50205" lon="6.84705">
        <ele>2609.64</ele>
        <time>2015-04-06T10:49:36Z</time>
      </trkpt>
      <trkpt lat="44.50205" lon="6.84706">
        <ele>2609.64</ele>
        <time>2015-04-06T10:50:03Z</time>
      </trkpt>
      <trkpt lat="44.50204" lon="6.84704">
        <ele>2609.16</ele>
        <time>2015-04-06T10:50:25Z</time>
      </trkpt>
      <trkpt lat="44.50203" lon="6.84705">
        <ele>2609.16</ele>
        <time>2015-04-06T10:50:37Z</time>
      </trkpt>
      <trkpt lat="44.50198" lon="6.84703">
        <ele>2609.64</ele>
        <time>2015-04-06T10:50:46Z</time>
      </trkpt>
      <trkpt lat="44.502" lon="6.84703">
        <ele>2609.64</ele>
        <time>2015-04-06T10:51:03Z</time>
      </trkpt>
      <trkpt lat="44.50204" lon="6.84702">
        <ele>2609.16</ele>
        <time>2015-04-06T10:51:18Z</time>
      </trkpt>
      <trkpt lat="44.50204" lon="6.84701">
        <ele>2609.16</ele>
        <time>2015-04-06T10:51:32Z</time>
      </trkpt>
      <trkpt lat="44.50197" lon="6.84684">
        <ele>2605.31</ele>
        <time>2015-04-06T10:51:40Z</time>
      </trkpt>
      <trkpt lat="44.50205" lon="6.84681">
        <ele>2602.43</ele>
        <time>2015-04-06T10:51:44Z</time>
      </trkpt>
      <trkpt lat="44.5021" lon="6.8468">
        <ele>2601.46</ele>
        <time>2015-04-06T10:51:50Z</time>
      </trkpt>
      <trkpt lat="44.50209" lon="6.84668">
        <ele>2598.1</ele>
        <time>2015-04-06T10:51:54Z</time>
      </trkpt>
      <trkpt lat="44.50211" lon="6.84664">
        <ele>2595.22</ele>
        <time>2015-04-06T10:51:56Z</time>
      </trkpt>
      <trkpt lat="44.50216" lon="6.84662">
        <ele>2593.77</ele>
        <time>2015-04-06T10:51:58Z</time>
      </trkpt>
      <trkpt lat="44.50218" lon="6.84652">
        <ele>2588.97</ele>
        <time>2015-04-06T10:52:01Z</time>
      </trkpt>
      <trkpt lat="44.50219" lon="6.84649">
        <ele>2587.04</ele>
        <time>2015-04-06T10:52:03Z</time>
      </trkpt>
      <trkpt lat="44.50219" lon="6.84652">
        <ele>2587.53</ele>
        <time>2015-04-06T10:52:11Z</time>
      </trkpt>
      <trkpt lat="44.50218" lon="6.8465">
        <ele>2587.53</ele>
        <time>2015-04-06T10:52:19Z</time>
      </trkpt>
      <trkpt lat="44.50213" lon="6.84642">
        <ele>2586.08</ele>
        <time>2015-04-06T10:52:24Z</time>
      </trkpt>
      <trkpt lat="44.50213" lon="6.84642">
        <ele>2586.08</ele>
        <time>2015-04-06T10:52:27Z</time>
      </trkpt>
      <trkpt lat="44.50225" lon="6.84644">
        <ele>2582.24</ele>
        <time>2015-04-06T10:52:34Z</time>
      </trkpt>
      <trkpt lat="44.5023" lon="6.84645">
        <ele>2580.32</ele>
        <time>2015-04-06T10:52:42Z</time>
      </trkpt>
      <trkpt lat="44.50232" lon="6.84645">
        <ele>2580.32</ele>
        <time>2015-04-06T10:52:43Z</time>
      </trkpt>
      <trkpt lat="44.50239" lon="6.84635">
        <ele>2575.51</ele>
        <time>2015-04-06T10:52:47Z</time>
      </trkpt>
      <trkpt lat="44.50245" lon="6.84633">
        <ele>2572.14</ele>
        <time>2015-04-06T10:52:49Z</time>
      </trkpt>
      <trkpt lat="44.50245" lon="6.84621">
        <ele>2568.3</ele>
        <time>2015-04-06T10:52:51Z</time>
      </trkpt>
      <trkpt lat="44.50247" lon="6.84613">
        <ele>2564.45</ele>
        <time>2015-04-06T10:52:54Z</time>
      </trkpt>
      <trkpt lat="44.50252" lon="6.84611">
        <ele>2560.61</ele>
        <time>2015-04-06T10:52:56Z</time>
      </trkpt>
      <trkpt lat="44.50257" lon="6.84604">
        <ele>2557.24</ele>
        <time>2015-04-06T10:52:59Z</time>
      </trkpt>
      <trkpt lat="44.50265" lon="6.84609">
        <ele>2552.44</ele>
        <time>2015-04-06T10:53:03Z</time>
      </trkpt>
      <trkpt lat="44.50271" lon="6.84599">
        <ele>2549.07</ele>
        <time>2015-04-06T10:53:06Z</time>
      </trkpt>
      <trkpt lat="44.50274" lon="6.846">
        <ele>2547.63</ele>
        <time>2015-04-06T10:53:07Z</time>
      </trkpt>
      <trkpt lat="44.50286" lon="6.84598">
        <ele>2540.9</ele>
        <time>2015-04-06T10:53:11Z</time>
      </trkpt>
      <trkpt lat="44.5029" lon="6.8459">
        <ele>2537.06</ele>
        <time>2015-04-06T10:53:14Z</time>
      </trkpt>
      <trkpt lat="44.50296" lon="6.84584">
        <ele>2532.25</ele>
        <time>2015-04-06T10:53:16Z</time>
      </trkpt>
      <trkpt lat="44.50301" lon="6.84566">
        <ele>2525.04</ele>
        <time>2015-04-06T10:53:19Z</time>
      </trkpt>
      <trkpt lat="44.50305" lon="6.84563">
        <ele>2520.71</ele>
        <time>2015-04-06T10:53:21Z</time>
      </trkpt>
      <trkpt lat="44.50309" lon="6.84555">
        <ele>2516.87</ele>
        <time>2015-04-06T10:53:23Z</time>
      </trkpt>
      <trkpt lat="44.50316" lon="6.8455">
        <ele>2511.58</ele>
        <time>2015-04-06T10:53:25Z</time>
      </trkpt>
      <trkpt lat="44.50321" lon="6.84538">
        <ele>2506.77</ele>
        <time>2015-04-06T10:53:27Z</time>
      </trkpt>
      <trkpt lat="44.50323" lon="6.84535">
        <ele>2505.33</ele>
        <time>2015-04-06T10:53:28Z</time>
      </trkpt>
      <trkpt lat="44.5033" lon="6.84525">
        <ele>2497.64</ele>
        <time>2015-04-06T10:53:31Z</time>
      </trkpt>
      <trkpt lat="44.50331" lon="6.84528">
        <ele>2497.16</ele>
        <time>2015-04-06T10:53:39Z</time>
      </trkpt>
      <trkpt lat="44.50333" lon="6.84521">
        <ele>2496.2</ele>
        <time>2015-04-06T10:53:52Z</time>
      </trkpt>
      <trkpt lat="44.50334" lon="6.84498">
        <ele>2492.84</ele>
        <time>2015-04-06T10:53:56Z</time>
      </trkpt>
      <trkpt lat="44.50331" lon="6.84467">
        <ele>2488.51</ele>
        <time>2015-04-06T10:54:02Z</time>
      </trkpt>
      <trkpt lat="44.50326" lon="6.84445">
        <ele>2486.11</ele>
        <time>2015-04-06T10:54:13Z</time>
      </trkpt>
      <trkpt lat="44.50325" lon="6.84443">
        <ele>2485.63</ele>
        <time>2015-04-06T10:54:29Z</time>
      </trkpt>
      <trkpt lat="44.50324" lon="6.84432">
        <ele>2484.18</ele>
        <time>2015-04-06T10:54:35Z</time>
      </trkpt>
      <trkpt lat="44.50331" lon="6.84422">
        <ele>2477.94</ele>
        <time>2015-04-06T10:54:39Z</time>
      </trkpt>
      <trkpt lat="44.50336" lon="6.84417">
        <ele>2474.09</ele>
        <time>2015-04-06T10:54:41Z</time>
      </trkpt>
      <trkpt lat="44.50341" lon="6.84408">
        <ele>2470.73</ele>
        <time>2015-04-06T10:54:44Z</time>
      </trkpt>
      <trkpt lat="44.50343" lon="6.844">
        <ele>2467.84</ele>
        <time>2015-04-06T10:54:46Z</time>
      </trkpt>
      <trkpt lat="44.50347" lon="6.84394">
        <ele>2464</ele>
        <time>2015-04-06T10:54:48Z</time>
      </trkpt>
      <trkpt lat="44.5035" lon="6.84386">
        <ele>2459.19</ele>
        <time>2015-04-06T10:54:50Z</time>
      </trkpt>
      <trkpt lat="44.50356" lon="6.8438">
        <ele>2455.82</ele>
        <time>2015-04-06T10:54:52Z</time>
      </trkpt>
      <trkpt lat="44.5036" lon="6.84373">
        <ele>2450.54</ele>
        <time>2015-04-06T10:54:54Z</time>
      </trkpt>
      <trkpt lat="44.50363" lon="6.84373">
        <ele>2449.58</ele>
        <time>2015-04-06T10:54:56Z</time>
      </trkpt>
      <trkpt lat="44.50371" lon="6.84379">
        <ele>2448.62</ele>
        <time>2015-04-06T10:55:00Z</time>
      </trkpt>
      <trkpt lat="44.50378" lon="6.84371">
        <ele>2442.37</ele>
        <time>2015-04-06T10:55:04Z</time>
      </trkpt>
      <trkpt lat="44.50384" lon="6.84367">
        <ele>2438.52</ele>
        <time>2015-04-06T10:55:06Z</time>
      </trkpt>
      <trkpt lat="44.50388" lon="6.84358">
        <ele>2434.68</ele>
        <time>2015-04-06T10:55:08Z</time>
      </trkpt>
      <trkpt lat="44.50393" lon="6.84353">
        <ele>2430.83</ele>
        <time>2015-04-06T10:55:10Z</time>
      </trkpt>
      <trkpt lat="44.50395" lon="6.84344">
        <ele>2427.47</ele>
        <time>2015-04-06T10:55:12Z</time>
      </trkpt>
      <trkpt lat="44.50401" lon="6.84339">
        <ele>2423.62</ele>
        <time>2015-04-06T10:55:14Z</time>
      </trkpt>
      <trkpt lat="44.50402" lon="6.84331">
        <ele>2418.81</ele>
        <time>2015-04-06T10:55:16Z</time>
      </trkpt>
      <trkpt lat="44.50408" lon="6.84325">
        <ele>2415.45</ele>
        <time>2015-04-06T10:55:19Z</time>
      </trkpt>
      <trkpt lat="44.50409" lon="6.84316">
        <ele>2411.12</ele>
        <time>2015-04-06T10:55:21Z</time>
      </trkpt>
      <trkpt lat="44.50406" lon="6.84313">
        <ele>2409.68</ele>
        <time>2015-04-06T10:55:23Z</time>
      </trkpt>
      <trkpt lat="44.50404" lon="6.84315">
        <ele>2411.12</ele>
        <time>2015-04-06T10:55:28Z</time>
      </trkpt>
      <trkpt lat="44.50405" lon="6.84314">
        <ele>2411.12</ele>
        <time>2015-04-06T10:55:46Z</time>
      </trkpt>
      <trkpt lat="44.50412" lon="6.84297">
        <ele>2407.28</ele>
        <time>2015-04-06T10:55:50Z</time>
      </trkpt>
      <trkpt lat="44.50417" lon="6.84285">
        <ele>2403.91</ele>
        <time>2015-04-06T10:55:52Z</time>
      </trkpt>
      <trkpt lat="44.50425" lon="6.84268">
        <ele>2400.55</ele>
        <time>2015-04-06T10:55:55Z</time>
      </trkpt>
      <trkpt lat="44.50431" lon="6.84255">
        <ele>2397.18</ele>
        <time>2015-04-06T10:55:57Z</time>
      </trkpt>
      <trkpt lat="44.50437" lon="6.84241">
        <ele>2393.34</ele>
        <time>2015-04-06T10:55:59Z</time>
      </trkpt>
      <trkpt lat="44.50445" lon="6.84218">
        <ele>2388.53</ele>
        <time>2015-04-06T10:56:02Z</time>
      </trkpt>
      <trkpt lat="44.50452" lon="6.84201">
        <ele>2385.17</ele>
        <time>2015-04-06T10:56:04Z</time>
      </trkpt>
      <trkpt lat="44.50457" lon="6.8418">
        <ele>2382.28</ele>
        <time>2015-04-06T10:56:06Z</time>
      </trkpt>
      <trkpt lat="44.50461" lon="6.84156">
        <ele>2378.92</ele>
        <time>2015-04-06T10:56:08Z</time>
      </trkpt>
      <trkpt lat="44.50467" lon="6.84132">
        <ele>2376.04</ele>
        <time>2015-04-06T10:56:10Z</time>
      </trkpt>
      <trkpt lat="44.5047" lon="6.84097">
        <ele>2373.15</ele>
        <time>2015-04-06T10:56:13Z</time>
      </trkpt>
      <trkpt lat="44.50472" lon="6.84064">
        <ele>2369.31</ele>
        <time>2015-04-06T10:56:16Z</time>
      </trkpt>
      <trkpt lat="44.50474" lon="6.84053">
        <ele>2368.35</ele>
        <time>2015-04-06T10:56:17Z</time>
      </trkpt>
      <trkpt lat="44.50477" lon="6.84005">
        <ele>2364.98</ele>
        <time>2015-04-06T10:56:22Z</time>
      </trkpt>
      <trkpt lat="44.50485" lon="6.83964">
        <ele>2360.17</ele>
        <time>2015-04-06T10:56:27Z</time>
      </trkpt>
      <trkpt lat="44.50487" lon="6.83953">
        <ele>2357.77</ele>
        <time>2015-04-06T10:56:28Z</time>
      </trkpt>
      <trkpt lat="44.5049" lon="6.83906">
        <ele>2352.48</ele>
        <time>2015-04-06T10:56:32Z</time>
      </trkpt>
      <trkpt lat="44.50491" lon="6.83873">
        <ele>2351.52</ele>
        <time>2015-04-06T10:56:39Z</time>
      </trkpt>
      <trkpt lat="44.5049" lon="6.83866">
        <ele>2351.52</ele>
        <time>2015-04-06T10:56:52Z</time>
      </trkpt>
      <trkpt lat="44.5049" lon="6.83842">
        <ele>2351.04</ele>
        <time>2015-04-06T10:57:04Z</time>
      </trkpt>
      <trkpt lat="44.50486" lon="6.83812">
        <ele>2348.16</ele>
        <time>2015-04-06T10:57:11Z</time>
      </trkpt>
      <trkpt lat="44.50481" lon="6.83783">
        <ele>2345.27</ele>
        <time>2015-04-06T10:57:15Z</time>
      </trkpt>
      <trkpt lat="44.50476" lon="6.83742">
        <ele>2341.91</ele>
        <time>2015-04-06T10:57:21Z</time>
      </trkpt>
      <trkpt lat="44.50472" lon="6.83711">
        <ele>2339.02</ele>
        <time>2015-04-06T10:57:26Z</time>
      </trkpt>
      <trkpt lat="44.50462" lon="6.83685">
        <ele>2335.66</ele>
        <time>2015-04-06T10:57:31Z</time>
      </trkpt>
      <trkpt lat="44.5046" lon="6.83674">
        <ele>2334.22</ele>
        <time>2015-04-06T10:57:33Z</time>
      </trkpt>
      <trkpt lat="44.50455" lon="6.83653">
        <ele>2330.85</ele>
        <time>2015-04-06T10:57:36Z</time>
      </trkpt>
      <trkpt lat="44.50445" lon="6.83622">
        <ele>2326.05</ele>
        <time>2015-04-06T10:57:40Z</time>
      </trkpt>
      <trkpt lat="44.50438" lon="6.8361">
        <ele>2324.12</ele>
        <time>2015-04-06T10:57:42Z</time>
      </trkpt>
      <trkpt lat="44.50432" lon="6.83582">
        <ele>2320.28</ele>
        <time>2015-04-06T10:57:46Z</time>
      </trkpt>
      <trkpt lat="44.50433" lon="6.8356">
        <ele>2316.91</ele>
        <time>2015-04-06T10:57:49Z</time>
      </trkpt>
      <trkpt lat="44.50436" lon="6.83541">
        <ele>2313.07</ele>
        <time>2015-04-06T10:57:52Z</time>
      </trkpt>
      <trkpt lat="44.50432" lon="6.83536">
        <ele>2311.63</ele>
        <time>2015-04-06T10:57:54Z</time>
      </trkpt>
      <trkpt lat="44.5043" lon="6.83536">
        <ele>2311.15</ele>
        <time>2015-04-06T10:57:57Z</time>
      </trkpt>
      <trkpt lat="44.50431" lon="6.83536">
        <ele>2310.67</ele>
        <time>2015-04-06T10:58:07Z</time>
      </trkpt>
      <trkpt lat="44.50432" lon="6.83537">
        <ele>2310.67</ele>
        <time>2015-04-06T10:58:21Z</time>
      </trkpt>
      <trkpt lat="44.50435" lon="6.83527">
        <ele>2309.7</ele>
        <time>2015-04-06T10:58:24Z</time>
      </trkpt>
      <trkpt lat="44.50431" lon="6.83505">
        <ele>2305.38</ele>
        <time>2015-04-06T10:58:28Z</time>
      </trkpt>
      <trkpt lat="44.50425" lon="6.83494">
        <ele>2302.49</ele>
        <time>2015-04-06T10:58:30Z</time>
      </trkpt>
      <trkpt lat="44.50422" lon="6.83477">
        <ele>2298.17</ele>
        <time>2015-04-06T10:58:32Z</time>
      </trkpt>
      <trkpt lat="44.50412" lon="6.83453">
        <ele>2294.8</ele>
        <time>2015-04-06T10:58:36Z</time>
      </trkpt>
      <trkpt lat="44.50407" lon="6.83433">
        <ele>2290.96</ele>
        <time>2015-04-06T10:58:39Z</time>
      </trkpt>
      <trkpt lat="44.50393" lon="6.8342">
        <ele>2289.04</ele>
        <time>2015-04-06T10:58:45Z</time>
      </trkpt>
      <trkpt lat="44.50393" lon="6.83419">
        <ele>2289.04</ele>
        <time>2015-04-06T10:59:03Z</time>
      </trkpt>
      <trkpt lat="44.50392" lon="6.83418">
        <ele>2288.56</ele>
        <time>2015-04-06T10:59:08Z</time>
      </trkpt>
      <trkpt lat="44.50385" lon="6.83411">
        <ele>2286.63</ele>
        <time>2015-04-06T10:59:11Z</time>
      </trkpt>
      <trkpt lat="44.50379" lon="6.83392">
        <ele>2281.35</ele>
        <time>2015-04-06T10:59:15Z</time>
      </trkpt>
      <trkpt lat="44.50384" lon="6.8338">
        <ele>2276.54</ele>
        <time>2015-04-06T10:59:17Z</time>
      </trkpt>
      <trkpt lat="44.50399" lon="6.83366">
        <ele>2272.21</ele>
        <time>2015-04-06T10:59:20Z</time>
      </trkpt>
      <trkpt lat="44.50404" lon="6.83362">
        <ele>2272.21</ele>
        <time>2015-04-06T10:59:21Z</time>
      </trkpt>
      <trkpt lat="44.50427" lon="6.83345">
        <ele>2266.45</ele>
        <time>2015-04-06T10:59:26Z</time>
      </trkpt>
      <trkpt lat="44.50434" lon="6.8333">
        <ele>2264.52</ele>
        <time>2015-04-06T10:59:28Z</time>
      </trkpt>
      <trkpt lat="44.50449" lon="6.83283">
        <ele>2260.68</ele>
        <time>2015-04-06T10:59:34Z</time>
      </trkpt>
      <trkpt lat="44.50454" lon="6.8327">
        <ele>2259.72</ele>
        <time>2015-04-06T10:59:36Z</time>
      </trkpt>
      <trkpt lat="44.50466" lon="6.83235">
        <ele>2256.35</ele>
        <time>2015-04-06T10:59:42Z</time>
      </trkpt>
      <trkpt lat="44.50473" lon="6.83215">
        <ele>2254.43</ele>
        <time>2015-04-06T10:59:46Z</time>
      </trkpt>
      <trkpt lat="44.50483" lon="6.83189">
        <ele>2251.06</ele>
        <time>2015-04-06T10:59:52Z</time>
      </trkpt>
      <trkpt lat="44.50491" lon="6.83166">
        <ele>2247.7</ele>
        <time>2015-04-06T10:59:57Z</time>
      </trkpt>
      <trkpt lat="44.505" lon="6.83144">
        <ele>2244.82</ele>
        <time>2015-04-06T11:00:01Z</time>
      </trkpt>
      <trkpt lat="44.50507" lon="6.8313">
        <ele>2242.89</ele>
        <time>2015-04-06T11:00:04Z</time>
      </trkpt>
      <trkpt lat="44.50509" lon="6.83125">
        <ele>2241.93</ele>
        <time>2015-04-06T11:00:05Z</time>
      </trkpt>
      <trkpt lat="44.50511" lon="6.83119">
        <ele>2241.45</ele>
        <time>2015-04-06T11:00:06Z</time>
      </trkpt>
      <trkpt lat="44.50512" lon="6.83112">
        <ele>2240.49</ele>
        <time>2015-04-06T11:00:07Z</time>
      </trkpt>
      <trkpt lat="44.50515" lon="6.83098">
        <ele>2239.05</ele>
        <time>2015-04-06T11:00:09Z</time>
      </trkpt>
      <trkpt lat="44.50523" lon="6.83069">
        <ele>2237.13</ele>
        <time>2015-04-06T11:00:15Z</time>
      </trkpt>
      <trkpt lat="44.50527" lon="6.83065">
        <ele>2236.64</ele>
        <time>2015-04-06T11:00:16Z</time>
      </trkpt>
      <trkpt lat="44.50531" lon="6.8306">
        <ele>2235.2</ele>
        <time>2015-04-06T11:00:17Z</time>
      </trkpt>
      <trkpt lat="44.50535" lon="6.83053">
        <ele>2233.76</ele>
        <time>2015-04-06T11:00:18Z</time>
      </trkpt>
      <trkpt lat="44.50538" lon="6.83047">
        <ele>2232.8</ele>
        <time>2015-04-06T11:00:19Z</time>
      </trkpt>
      <trkpt lat="44.50543" lon="6.83041">
        <ele>2231.36</ele>
        <time>2015-04-06T11:00:20Z</time>
      </trkpt>
      <trkpt lat="44.50548" lon="6.83035">
        <ele>2229.43</ele>
        <time>2015-04-06T11:00:21Z</time>
      </trkpt>
      <trkpt lat="44.50552" lon="6.83029">
        <ele>2228.95</ele>
        <time>2015-04-06T11:00:22Z</time>
      </trkpt>
      <trkpt lat="44.50556" lon="6.83023">
        <ele>2227.51</ele>
        <time>2015-04-06T11:00:23Z</time>
      </trkpt>
      <trkpt lat="44.50559" lon="6.83016">
        <ele>2225.59</ele>
        <time>2015-04-06T11:00:24Z</time>
      </trkpt>
      <trkpt lat="44.50563" lon="6.83011">
        <ele>2224.63</ele>
        <time>2015-04-06T11:00:25Z</time>
      </trkpt>
      <trkpt lat="44.50567" lon="6.83006">
        <ele>2222.71</ele>
        <time>2015-04-06T11:00:26Z</time>
      </trkpt>
      <trkpt lat="44.50574" lon="6.82996">
        <ele>2220.78</ele>
        <time>2015-04-06T11:00:28Z</time>
      </trkpt>
      <trkpt lat="44.50579" lon="6.82993">
        <ele>2218.86</ele>
        <time>2015-04-06T11:00:29Z</time>
      </trkpt>
      <trkpt lat="44.50595" lon="6.82979">
        <ele>2214.53</ele>
        <time>2015-04-06T11:00:32Z</time>
      </trkpt>
      <trkpt lat="44.50599" lon="6.82973">
        <ele>2212.61</ele>
        <time>2015-04-06T11:00:33Z</time>
      </trkpt>
      <trkpt lat="44.50604" lon="6.82968">
        <ele>2211.17</ele>
        <time>2015-04-06T11:00:34Z</time>
      </trkpt>
      <trkpt lat="44.50609" lon="6.82962">
        <ele>2210.21</ele>
        <time>2015-04-06T11:00:35Z</time>
      </trkpt>
      <trkpt lat="44.50613" lon="6.82956">
        <ele>2208.77</ele>
        <time>2015-04-06T11:00:36Z</time>
      </trkpt>
      <trkpt lat="44.50618" lon="6.82949">
        <ele>2207.32</ele>
        <time>2015-04-06T11:00:37Z</time>
      </trkpt>
      <trkpt lat="44.50623" lon="6.82942">
        <ele>2206.36</ele>
        <time>2015-04-06T11:00:38Z</time>
      </trkpt>
      <trkpt lat="44.50629" lon="6.82937">
        <ele>2204.44</ele>
        <time>2015-04-06T11:00:39Z</time>
      </trkpt>
      <trkpt lat="44.50636" lon="6.8293">
        <ele>2203</ele>
        <time>2015-04-06T11:00:40Z</time>
      </trkpt>
      <trkpt lat="44.50642" lon="6.82923">
        <ele>2202.04</ele>
        <time>2015-04-06T11:00:41Z</time>
      </trkpt>
      <trkpt lat="44.50648" lon="6.82918">
        <ele>2201.08</ele>
        <time>2015-04-06T11:00:42Z</time>
      </trkpt>
      <trkpt lat="44.50654" lon="6.82913">
        <ele>2200.11</ele>
        <time>2015-04-06T11:00:43Z</time>
      </trkpt>
      <trkpt lat="44.5066" lon="6.82909">
        <ele>2199.63</ele>
        <time>2015-04-06T11:00:44Z</time>
      </trkpt>
      <trkpt lat="44.50681" lon="6.82895">
        <ele>2197.71</ele>
        <time>2015-04-06T11:00:48Z</time>
      </trkpt>
      <trkpt lat="44.5069" lon="6.8289">
        <ele>2197.23</ele>
        <time>2015-04-06T11:00:50Z</time>
      </trkpt>
      <trkpt lat="44.50694" lon="6.82888">
        <ele>2197.23</ele>
        <time>2015-04-06T11:00:51Z</time>
      </trkpt>
      <trkpt lat="44.50696" lon="6.82885">
        <ele>2196.75</ele>
        <time>2015-04-06T11:00:52Z</time>
      </trkpt>
      <trkpt lat="44.50697" lon="6.82883">
        <ele>2197.23</ele>
        <time>2015-04-06T11:00:56Z</time>
      </trkpt>
      <trkpt lat="44.50698" lon="6.82883">
        <ele>2196.75</ele>
        <time>2015-04-06T11:00:57Z</time>
      </trkpt>
      <trkpt lat="44.50699" lon="6.82882">
        <ele>2196.75</ele>
        <time>2015-04-06T11:00:58Z</time>
      </trkpt>
      <trkpt lat="44.507" lon="6.82881">
        <ele>2196.75</ele>
        <time>2015-04-06T11:00:59Z</time>
      </trkpt>
      <trkpt lat="44.50702" lon="6.8288">
        <ele>2196.75</ele>
        <time>2015-04-06T11:01:00Z</time>
      </trkpt>
      <trkpt lat="44.50725" lon="6.82854">
        <ele>2193.39</ele>
        <time>2015-04-06T11:01:10Z</time>
      </trkpt>
      <trkpt lat="44.50739" lon="6.82833">
        <ele>2190.98</ele>
        <time>2015-04-06T11:01:15Z</time>
      </trkpt>
      <trkpt lat="44.50745" lon="6.82824">
        <ele>2190.02</ele>
        <time>2015-04-06T11:01:17Z</time>
      </trkpt>
      <trkpt lat="44.50748" lon="6.82822">
        <ele>2188.58</ele>
        <time>2015-04-06T11:01:18Z</time>
      </trkpt>
      <trkpt lat="44.50753" lon="6.82822">
        <ele>2187.14</ele>
        <time>2015-04-06T11:01:19Z</time>
      </trkpt>
      <trkpt lat="44.50758" lon="6.82822">
        <ele>2186.18</ele>
        <time>2015-04-06T11:01:20Z</time>
      </trkpt>
      <trkpt lat="44.50763" lon="6.82823">
        <ele>2185.21</ele>
        <time>2015-04-06T11:01:21Z</time>
      </trkpt>
      <trkpt lat="44.50768" lon="6.82825">
        <ele>2182.33</ele>
        <time>2015-04-06T11:01:22Z</time>
      </trkpt>
      <trkpt lat="44.50775" lon="6.82825">
        <ele>2181.37</ele>
        <time>2015-04-06T11:01:23Z</time>
      </trkpt>
      <trkpt lat="44.50781" lon="6.82825">
        <ele>2179.45</ele>
        <time>2015-04-06T11:01:24Z</time>
      </trkpt>
      <trkpt lat="44.50788" lon="6.82823">
        <ele>2177.52</ele>
        <time>2015-04-06T11:01:25Z</time>
      </trkpt>
      <trkpt lat="44.50794" lon="6.82818">
        <ele>2176.08</ele>
        <time>2015-04-06T11:01:26Z</time>
      </trkpt>
      <trkpt lat="44.50801" lon="6.82812">
        <ele>2173.68</ele>
        <time>2015-04-06T11:01:27Z</time>
      </trkpt>
      <trkpt lat="44.50816" lon="6.82794">
        <ele>2172.24</ele>
        <time>2015-04-06T11:01:30Z</time>
      </trkpt>
      <trkpt lat="44.50845" lon="6.8276">
        <ele>2168.87</ele>
        <time>2015-04-06T11:01:37Z</time>
      </trkpt>
      <trkpt lat="44.50877" lon="6.82723">
        <ele>2167.43</ele>
        <time>2015-04-06T11:01:49Z</time>
      </trkpt>
      <trkpt lat="44.50892" lon="6.82687">
        <ele>2165.03</ele>
        <time>2015-04-06T11:01:57Z</time>
      </trkpt>
      <trkpt lat="44.50903" lon="6.82665">
        <ele>2162.62</ele>
        <time>2015-04-06T11:02:01Z</time>
      </trkpt>
      <trkpt lat="44.50905" lon="6.82659">
        <ele>2162.62</ele>
        <time>2015-04-06T11:02:02Z</time>
      </trkpt>
      <trkpt lat="44.50916" lon="6.82617">
        <ele>2159.74</ele>
        <time>2015-04-06T11:02:09Z</time>
      </trkpt>
      <trkpt lat="44.50925" lon="6.82575">
        <ele>2157.82</ele>
        <time>2015-04-06T11:02:19Z</time>
      </trkpt>
      <trkpt lat="44.50919" lon="6.82557">
        <ele>2157.82</ele>
        <time>2015-04-06T11:02:31Z</time>
      </trkpt>
      <trkpt lat="44.50917" lon="6.82553">
        <ele>2158.78</ele>
        <time>2015-04-06T11:02:35Z</time>
      </trkpt>
      <trkpt lat="44.50915" lon="6.8252">
        <ele>2156.86</ele>
        <time>2015-04-06T11:02:47Z</time>
      </trkpt>
      <trkpt lat="44.50909" lon="6.82487">
        <ele>2156.37</ele>
        <time>2015-04-06T11:02:59Z</time>
      </trkpt>
      <trkpt lat="44.5091" lon="6.82476">
        <ele>2155.89</ele>
        <time>2015-04-06T11:03:02Z</time>
      </trkpt>
      <trkpt lat="44.50932" lon="6.82454">
        <ele>2153.97</ele>
        <time>2015-04-06T11:03:19Z</time>
      </trkpt>
      <trkpt lat="44.50935" lon="6.82451">
        <ele>2154.93</ele>
        <time>2015-04-06T11:03:26Z</time>
      </trkpt>
      <trkpt lat="44.50963" lon="6.82424">
        <ele>2151.57</ele>
        <time>2015-04-06T11:03:39Z</time>
      </trkpt>
      <trkpt lat="44.50979" lon="6.824">
        <ele>2148.68</ele>
        <time>2015-04-06T11:03:47Z</time>
      </trkpt>
      <trkpt lat="44.50988" lon="6.82401">
        <ele>2144.84</ele>
        <time>2015-04-06T11:03:50Z</time>
      </trkpt>
      <trkpt lat="44.50991" lon="6.824">
        <ele>2143.88</ele>
        <time>2015-04-06T11:03:51Z</time>
      </trkpt>
      <trkpt lat="44.51004" lon="6.82397">
        <ele>2139.07</ele>
        <time>2015-04-06T11:03:54Z</time>
      </trkpt>
      <trkpt lat="44.51019" lon="6.82394">
        <ele>2133.78</ele>
        <time>2015-04-06T11:03:57Z</time>
      </trkpt>
      <trkpt lat="44.51034" lon="6.82389">
        <ele>2128.02</ele>
        <time>2015-04-06T11:04:00Z</time>
      </trkpt>
      <trkpt lat="44.51051" lon="6.8239">
        <ele>2124.17</ele>
        <time>2015-04-06T11:04:03Z</time>
      </trkpt>
      <trkpt lat="44.51066" lon="6.82385">
        <ele>2120.81</ele>
        <time>2015-04-06T11:04:06Z</time>
      </trkpt>
      <trkpt lat="44.51073" lon="6.82389">
        <ele>2117.92</ele>
        <time>2015-04-06T11:04:08Z</time>
      </trkpt>
      <trkpt lat="44.51074" lon="6.8239">
        <ele>2117.92</ele>
        <time>2015-04-06T11:04:09Z</time>
      </trkpt>
      <trkpt lat="44.51075" lon="6.82391">
        <ele>2117.44</ele>
        <time>2015-04-06T11:04:28Z</time>
      </trkpt>
      <trkpt lat="44.51075" lon="6.82389">
        <ele>2117.92</ele>
        <time>2015-04-06T11:04:31Z</time>
      </trkpt>
      <trkpt lat="44.51074" lon="6.82386">
        <ele>2117.44</ele>
        <time>2015-04-06T11:04:44Z</time>
      </trkpt>
      <trkpt lat="44.51075" lon="6.82388">
        <ele>2117.44</ele>
        <time>2015-04-06T11:05:09Z</time>
      </trkpt>
      <trkpt lat="44.51076" lon="6.82388">
        <ele>2117.44</ele>
        <time>2015-04-06T11:05:15Z</time>
      </trkpt>
      <trkpt lat="44.51087" lon="6.82376">
        <ele>2116</ele>
        <time>2015-04-06T11:05:20Z</time>
      </trkpt>
      <trkpt lat="44.51094" lon="6.82355">
        <ele>2114.08</ele>
        <time>2015-04-06T11:05:24Z</time>
      </trkpt>
      <trkpt lat="44.51095" lon="6.82352">
        <ele>2114.56</ele>
        <time>2015-04-06T11:05:25Z</time>
      </trkpt>
      <trkpt lat="44.51105" lon="6.82344">
        <ele>2113.12</ele>
        <time>2015-04-06T11:05:30Z</time>
      </trkpt>
      <trkpt lat="44.51108" lon="6.82335">
        <ele>2112.63</ele>
        <time>2015-04-06T11:05:34Z</time>
      </trkpt>
      <trkpt lat="44.51117" lon="6.82328">
        <ele>2111.67</ele>
        <time>2015-04-06T11:05:39Z</time>
      </trkpt>
      <trkpt lat="44.51126" lon="6.82326">
        <ele>2109.75</ele>
        <time>2015-04-06T11:05:42Z</time>
      </trkpt>
      <trkpt lat="44.51133" lon="6.8232">
        <ele>2108.79</ele>
        <time>2015-04-06T11:05:44Z</time>
      </trkpt>
      <trkpt lat="44.51164" lon="6.82299">
        <ele>2105.42</ele>
        <time>2015-04-06T11:05:54Z</time>
      </trkpt>
      <trkpt lat="44.5117" lon="6.82293">
        <ele>2104.94</ele>
        <time>2015-04-06T11:05:56Z</time>
      </trkpt>
      <trkpt lat="44.51174" lon="6.82289">
        <ele>2103.98</ele>
        <time>2015-04-06T11:05:57Z</time>
      </trkpt>
      <trkpt lat="44.51179" lon="6.82284">
        <ele>2103.02</ele>
        <time>2015-04-06T11:05:58Z</time>
      </trkpt>
      <trkpt lat="44.51188" lon="6.82268">
        <ele>2102.06</ele>
        <time>2015-04-06T11:06:01Z</time>
      </trkpt>
      <trkpt lat="44.5119" lon="6.82262">
        <ele>2102.06</ele>
        <time>2015-04-06T11:06:02Z</time>
      </trkpt>
      <trkpt lat="44.51191" lon="6.82255">
        <ele>2101.58</ele>
        <time>2015-04-06T11:06:03Z</time>
      </trkpt>
      <trkpt lat="44.51193" lon="6.82249">
        <ele>2101.1</ele>
        <time>2015-04-06T11:06:04Z</time>
      </trkpt>
      <trkpt lat="44.51195" lon="6.82245">
        <ele>2101.1</ele>
        <time>2015-04-06T11:06:05Z</time>
      </trkpt>
      <trkpt lat="44.51197" lon="6.82242">
        <ele>2100.62</ele>
        <time>2015-04-06T11:06:06Z</time>
      </trkpt>
      <trkpt lat="44.51199" lon="6.8224">
        <ele>2100.62</ele>
        <time>2015-04-06T11:06:07Z</time>
      </trkpt>
      <trkpt lat="44.51201" lon="6.82239">
        <ele>2101.1</ele>
        <time>2015-04-06T11:06:08Z</time>
      </trkpt>
      <trkpt lat="44.51203" lon="6.82238">
        <ele>2101.1</ele>
        <time>2015-04-06T11:06:09Z</time>
      </trkpt>
      <trkpt lat="44.51205" lon="6.82237">
        <ele>2100.62</ele>
        <time>2015-04-06T11:06:10Z</time>
      </trkpt>
      <trkpt lat="44.51207" lon="6.82234">
        <ele>2100.62</ele>
        <time>2015-04-06T11:06:11Z</time>
      </trkpt>
      <trkpt lat="44.5121" lon="6.82232">
        <ele>2100.62</ele>
        <time>2015-04-06T11:06:12Z</time>
      </trkpt>
      <trkpt lat="44.51236" lon="6.822">
        <ele>2098.21</ele>
        <time>2015-04-06T11:06:23Z</time>
      </trkpt>
      <trkpt lat="44.51257" lon="6.82166">
        <ele>2094.85</ele>
        <time>2015-04-06T11:06:30Z</time>
      </trkpt>
      <trkpt lat="44.5126" lon="6.82162">
        <ele>2094.85</ele>
        <time>2015-04-06T11:06:31Z</time>
      </trkpt>
      <trkpt lat="44.51264" lon="6.82158">
        <ele>2094.37</ele>
        <time>2015-04-06T11:06:32Z</time>
      </trkpt>
      <trkpt lat="44.51268" lon="6.82155">
        <ele>2093.89</ele>
        <time>2015-04-06T11:06:33Z</time>
      </trkpt>
      <trkpt lat="44.51271" lon="6.8215">
        <ele>2093.89</ele>
        <time>2015-04-06T11:06:34Z</time>
      </trkpt>
      <trkpt lat="44.51285" lon="6.82136">
        <ele>2091.97</ele>
        <time>2015-04-06T11:06:37Z</time>
      </trkpt>
      <trkpt lat="44.51293" lon="6.82124">
        <ele>2090.04</ele>
        <time>2015-04-06T11:06:39Z</time>
      </trkpt>
      <trkpt lat="44.51296" lon="6.82117">
        <ele>2090.04</ele>
        <time>2015-04-06T11:06:40Z</time>
      </trkpt>
      <trkpt lat="44.51306" lon="6.82084">
        <ele>2088.12</ele>
        <time>2015-04-06T11:06:45Z</time>
      </trkpt>
      <trkpt lat="44.51309" lon="6.8208">
        <ele>2088.12</ele>
        <time>2015-04-06T11:06:46Z</time>
      </trkpt>
      <trkpt lat="44.51313" lon="6.82076">
        <ele>2087.64</ele>
        <time>2015-04-06T11:06:47Z</time>
      </trkpt>
      <trkpt lat="44.51317" lon="6.82072">
        <ele>2087.16</ele>
        <time>2015-04-06T11:06:48Z</time>
      </trkpt>
      <trkpt lat="44.5132" lon="6.82068">
        <ele>2086.68</ele>
        <time>2015-04-06T11:06:49Z</time>
      </trkpt>
      <trkpt lat="44.51323" lon="6.82063">
        <ele>2087.16</ele>
        <time>2015-04-06T11:06:50Z</time>
      </trkpt>
      <trkpt lat="44.51325" lon="6.82058">
        <ele>2086.68</ele>
        <time>2015-04-06T11:06:51Z</time>
      </trkpt>
      <trkpt lat="44.51343" lon="6.82026">
        <ele>2085.24</ele>
        <time>2015-04-06T11:06:59Z</time>
      </trkpt>
      <trkpt lat="44.51345" lon="6.8202">
        <ele>2084.76</ele>
        <time>2015-04-06T11:07:00Z</time>
      </trkpt>
      <trkpt lat="44.51351" lon="6.82001">
        <ele>2084.28</ele>
        <time>2015-04-06T11:07:04Z</time>
      </trkpt>
      <trkpt lat="44.51352" lon="6.81996">
        <ele>2083.79</ele>
        <time>2015-04-06T11:07:05Z</time>
      </trkpt>
      <trkpt lat="44.51353" lon="6.81992">
        <ele>2083.79</ele>
        <time>2015-04-06T11:07:06Z</time>
      </trkpt>
      <trkpt lat="44.51354" lon="6.81987">
        <ele>2083.31</ele>
        <time>2015-04-06T11:07:07Z</time>
      </trkpt>
      <trkpt lat="44.51355" lon="6.81983">
        <ele>2083.31</ele>
        <time>2015-04-06T11:07:08Z</time>
      </trkpt>
      <trkpt lat="44.51356" lon="6.81978">
        <ele>2083.31</ele>
        <time>2015-04-06T11:07:09Z</time>
      </trkpt>
      <trkpt lat="44.51357" lon="6.81974">
        <ele>2082.83</ele>
        <time>2015-04-06T11:07:10Z</time>
      </trkpt>
      <trkpt lat="44.51358" lon="6.8197">
        <ele>2082.83</ele>
        <time>2015-04-06T11:07:11Z</time>
      </trkpt>
      <trkpt lat="44.51359" lon="6.81966">
        <ele>2082.83</ele>
        <time>2015-04-06T11:07:12Z</time>
      </trkpt>
      <trkpt lat="44.51364" lon="6.81952">
        <ele>2082.83</ele>
        <time>2015-04-06T11:07:16Z</time>
      </trkpt>
      <trkpt lat="44.51366" lon="6.8195">
        <ele>2082.83</ele>
        <time>2015-04-06T11:07:17Z</time>
      </trkpt>
      <trkpt lat="44.51369" lon="6.81947">
        <ele>2082.83</ele>
        <time>2015-04-06T11:07:18Z</time>
      </trkpt>
      <trkpt lat="44.51371" lon="6.81945">
        <ele>2082.35</ele>
        <time>2015-04-06T11:07:19Z</time>
      </trkpt>
      <trkpt lat="44.51374" lon="6.81943">
        <ele>2082.35</ele>
        <time>2015-04-06T11:07:20Z</time>
      </trkpt>
      <trkpt lat="44.51376" lon="6.81941">
        <ele>2082.35</ele>
        <time>2015-04-06T11:07:21Z</time>
      </trkpt>
      <trkpt lat="44.5138" lon="6.81939">
        <ele>2081.87</ele>
        <time>2015-04-06T11:07:22Z</time>
      </trkpt>
      <trkpt lat="44.51413" lon="6.81926">
        <ele>2079.95</ele>
        <time>2015-04-06T11:07:32Z</time>
      </trkpt>
      <trkpt lat="44.51416" lon="6.81925">
        <ele>2080.43</ele>
        <time>2015-04-06T11:07:33Z</time>
      </trkpt>
      <trkpt lat="44.51419" lon="6.81924">
        <ele>2079.95</ele>
        <time>2015-04-06T11:07:34Z</time>
      </trkpt>
      <trkpt lat="44.51421" lon="6.81923">
        <ele>2080.43</ele>
        <time>2015-04-06T11:07:35Z</time>
      </trkpt>
      <trkpt lat="44.51424" lon="6.81922">
        <ele>2079.95</ele>
        <time>2015-04-06T11:07:36Z</time>
      </trkpt>
      <trkpt lat="44.51426" lon="6.81921">
        <ele>2080.43</ele>
        <time>2015-04-06T11:07:37Z</time>
      </trkpt>
      <trkpt lat="44.51428" lon="6.8192">
        <ele>2079.95</ele>
        <time>2015-04-06T11:07:38Z</time>
      </trkpt>
      <trkpt lat="44.5143" lon="6.81918">
        <ele>2079.95</ele>
        <time>2015-04-06T11:07:39Z</time>
      </trkpt>
      <trkpt lat="44.51432" lon="6.81917">
        <ele>2079.95</ele>
        <time>2015-04-06T11:07:40Z</time>
      </trkpt>
      <trkpt lat="44.51436" lon="6.81914">
        <ele>2079.47</ele>
        <time>2015-04-06T11:07:42Z</time>
      </trkpt>
      <trkpt lat="44.51438" lon="6.81912">
        <ele>2079.95</ele>
        <time>2015-04-06T11:07:43Z</time>
      </trkpt>
      <trkpt lat="44.5144" lon="6.81911">
        <ele>2079.47</ele>
        <time>2015-04-06T11:07:44Z</time>
      </trkpt>
      <trkpt lat="44.51442" lon="6.81909">
        <ele>2079.95</ele>
        <time>2015-04-06T11:07:45Z</time>
      </trkpt>
      <trkpt lat="44.51444" lon="6.81908">
        <ele>2079.47</ele>
        <time>2015-04-06T11:07:46Z</time>
      </trkpt>
      <trkpt lat="44.51447" lon="6.81907">
        <ele>2079.47</ele>
        <time>2015-04-06T11:07:47Z</time>
      </trkpt>
      <trkpt lat="44.51494" lon="6.8188">
        <ele>2077.07</ele>
        <time>2015-04-06T11:08:01Z</time>
      </trkpt>
      <trkpt lat="44.51532" lon="6.81853">
        <ele>2074.18</ele>
        <time>2015-04-06T11:08:13Z</time>
      </trkpt>
      <trkpt lat="44.51577" lon="6.8182">
        <ele>2071.3</ele>
        <time>2015-04-06T11:08:26Z</time>
      </trkpt>
      <trkpt lat="44.51615" lon="6.81795">
        <ele>2067.93</ele>
        <time>2015-04-06T11:08:34Z</time>
      </trkpt>
      <trkpt lat="44.5162" lon="6.8179">
        <ele>2067.45</ele>
        <time>2015-04-06T11:08:35Z</time>
      </trkpt>
      <trkpt lat="44.5163" lon="6.81775">
        <ele>2066.49</ele>
        <time>2015-04-06T11:08:38Z</time>
      </trkpt>
      <trkpt lat="44.51655" lon="6.81739">
        <ele>2063.13</ele>
        <time>2015-04-06T11:08:45Z</time>
      </trkpt>
      <trkpt lat="44.51659" lon="6.81732">
        <ele>2062.65</ele>
        <time>2015-04-06T11:08:46Z</time>
      </trkpt>
      <trkpt lat="44.51668" lon="6.81713">
        <ele>2061.68</ele>
        <time>2015-04-06T11:08:49Z</time>
      </trkpt>
      <trkpt lat="44.51672" lon="6.81709">
        <ele>2061.2</ele>
        <time>2015-04-06T11:08:50Z</time>
      </trkpt>
      <trkpt lat="44.51676" lon="6.81706">
        <ele>2059.76</ele>
        <time>2015-04-06T11:08:51Z</time>
      </trkpt>
      <trkpt lat="44.51679" lon="6.81703">
        <ele>2059.76</ele>
        <time>2015-04-06T11:08:52Z</time>
      </trkpt>
      <trkpt lat="44.51684" lon="6.817">
        <ele>2059.28</ele>
        <time>2015-04-06T11:08:53Z</time>
      </trkpt>
      <trkpt lat="44.51689" lon="6.81697">
        <ele>2058.32</ele>
        <time>2015-04-06T11:08:54Z</time>
      </trkpt>
      <trkpt lat="44.51697" lon="6.81692">
        <ele>2057.36</ele>
        <time>2015-04-06T11:08:56Z</time>
      </trkpt>
      <trkpt lat="44.51702" lon="6.81689">
        <ele>2057.36</ele>
        <time>2015-04-06T11:08:57Z</time>
      </trkpt>
      <trkpt lat="44.5171" lon="6.81684">
        <ele>2055.92</ele>
        <time>2015-04-06T11:08:59Z</time>
      </trkpt>
      <trkpt lat="44.51714" lon="6.81681">
        <ele>2055.44</ele>
        <time>2015-04-06T11:09:00Z</time>
      </trkpt>
      <trkpt lat="44.51717" lon="6.81677">
        <ele>2055.44</ele>
        <time>2015-04-06T11:09:01Z</time>
      </trkpt>
      <trkpt lat="44.5172" lon="6.81674">
        <ele>2055.44</ele>
        <time>2015-04-06T11:09:02Z</time>
      </trkpt>
      <trkpt lat="44.51722" lon="6.8167">
        <ele>2055.92</ele>
        <time>2015-04-06T11:09:03Z</time>
      </trkpt>
      <trkpt lat="44.51724" lon="6.81665">
        <ele>2055.44</ele>
        <time>2015-04-06T11:09:04Z</time>
      </trkpt>
      <trkpt lat="44.51726" lon="6.81659">
        <ele>2054.96</ele>
        <time>2015-04-06T11:09:05Z</time>
      </trkpt>
      <trkpt lat="44.51728" lon="6.81653">
        <ele>2054.47</ele>
        <time>2015-04-06T11:09:06Z</time>
      </trkpt>
      <trkpt lat="44.51732" lon="6.81648">
        <ele>2053.99</ele>
        <time>2015-04-06T11:09:07Z</time>
      </trkpt>
      <trkpt lat="44.51736" lon="6.81643">
        <ele>2053.51</ele>
        <time>2015-04-06T11:09:08Z</time>
      </trkpt>
      <trkpt lat="44.5174" lon="6.81638">
        <ele>2052.55</ele>
        <time>2015-04-06T11:09:09Z</time>
      </trkpt>
      <trkpt lat="44.51745" lon="6.81632">
        <ele>2051.59</ele>
        <time>2015-04-06T11:09:10Z</time>
      </trkpt>
      <trkpt lat="44.51748" lon="6.81625">
        <ele>2051.11</ele>
        <time>2015-04-06T11:09:11Z</time>
      </trkpt>
      <trkpt lat="44.51749" lon="6.81618">
        <ele>2050.63</ele>
        <time>2015-04-06T11:09:12Z</time>
      </trkpt>
      <trkpt lat="44.51755" lon="6.81587">
        <ele>2049.67</ele>
        <time>2015-04-06T11:09:19Z</time>
      </trkpt>
      <trkpt lat="44.51757" lon="6.81584">
        <ele>2049.19</ele>
        <time>2015-04-06T11:09:20Z</time>
      </trkpt>
      <trkpt lat="44.5176" lon="6.8158">
        <ele>2047.75</ele>
        <time>2015-04-06T11:09:21Z</time>
      </trkpt>
      <trkpt lat="44.51762" lon="6.81575">
        <ele>2047.26</ele>
        <time>2015-04-06T11:09:22Z</time>
      </trkpt>
      <trkpt lat="44.51764" lon="6.8157">
        <ele>2047.26</ele>
        <time>2015-04-06T11:09:23Z</time>
      </trkpt>
      <trkpt lat="44.51765" lon="6.81565">
        <ele>2047.26</ele>
        <time>2015-04-06T11:09:24Z</time>
      </trkpt>
      <trkpt lat="44.51771" lon="6.81545">
        <ele>2047.75</ele>
        <time>2015-04-06T11:09:33Z</time>
      </trkpt>
      <trkpt lat="44.51774" lon="6.81538">
        <ele>2047.26</ele>
        <time>2015-04-06T11:09:35Z</time>
      </trkpt>
      <trkpt lat="44.51778" lon="6.81534">
        <ele>2046.3</ele>
        <time>2015-04-06T11:09:36Z</time>
      </trkpt>
      <trkpt lat="44.51782" lon="6.81531">
        <ele>2045.82</ele>
        <time>2015-04-06T11:09:37Z</time>
      </trkpt>
      <trkpt lat="44.51789" lon="6.81527">
        <ele>2044.38</ele>
        <time>2015-04-06T11:09:39Z</time>
      </trkpt>
      <trkpt lat="44.51792" lon="6.81521">
        <ele>2043.9</ele>
        <time>2015-04-06T11:09:40Z</time>
      </trkpt>
      <trkpt lat="44.51794" lon="6.81517">
        <ele>2043.42</ele>
        <time>2015-04-06T11:09:41Z</time>
      </trkpt>
      <trkpt lat="44.51796" lon="6.81512">
        <ele>2043.42</ele>
        <time>2015-04-06T11:09:42Z</time>
      </trkpt>
      <trkpt lat="44.51797" lon="6.81508">
        <ele>2042.94</ele>
        <time>2015-04-06T11:09:43Z</time>
      </trkpt>
      <trkpt lat="44.518" lon="6.81503">
        <ele>2042.46</ele>
        <time>2015-04-06T11:09:44Z</time>
      </trkpt>
      <trkpt lat="44.51802" lon="6.81498">
        <ele>2041.5</ele>
        <time>2015-04-06T11:09:45Z</time>
      </trkpt>
      <trkpt lat="44.51811" lon="6.81486">
        <ele>2039.09</ele>
        <time>2015-04-06T11:09:48Z</time>
      </trkpt>
      <trkpt lat="44.51814" lon="6.81485">
        <ele>2039.09</ele>
        <time>2015-04-06T11:09:49Z</time>
      </trkpt>
      <trkpt lat="44.51811" lon="6.81482">
        <ele>2039.57</ele>
        <time>2015-04-06T11:10:00Z</time>
      </trkpt>
      <trkpt lat="44.51814" lon="6.81479">
        <ele>2038.61</ele>
        <time>2015-04-06T11:10:06Z</time>
      </trkpt>
      <trkpt lat="44.51816" lon="6.81475">
        <ele>2038.13</ele>
        <time>2015-04-06T11:10:07Z</time>
      </trkpt>
      <trkpt lat="44.51818" lon="6.81472">
        <ele>2038.13</ele>
        <time>2015-04-06T11:10:08Z</time>
      </trkpt>
      <trkpt lat="44.5182" lon="6.81469">
        <ele>2037.65</ele>
        <time>2015-04-06T11:10:09Z</time>
      </trkpt>
      <trkpt lat="44.51822" lon="6.81464">
        <ele>2037.17</ele>
        <time>2015-04-06T11:10:10Z</time>
      </trkpt>
      <trkpt lat="44.51824" lon="6.8146">
        <ele>2036.21</ele>
        <time>2015-04-06T11:10:11Z</time>
      </trkpt>
      <trkpt lat="44.51827" lon="6.81455">
        <ele>2035.73</ele>
        <time>2015-04-06T11:10:12Z</time>
      </trkpt>
      <trkpt lat="44.51828" lon="6.8145">
        <ele>2034.77</ele>
        <time>2015-04-06T11:10:13Z</time>
      </trkpt>
      <trkpt lat="44.51836" lon="6.81432">
        <ele>2032.84</ele>
        <time>2015-04-06T11:10:17Z</time>
      </trkpt>
      <trkpt lat="44.51838" lon="6.81427">
        <ele>2032.36</ele>
        <time>2015-04-06T11:10:18Z</time>
      </trkpt>
      <trkpt lat="44.51847" lon="6.81402">
        <ele>2029.96</ele>
        <time>2015-04-06T11:10:22Z</time>
      </trkpt>
      <trkpt lat="44.51852" lon="6.81388">
        <ele>2029.48</ele>
        <time>2015-04-06T11:10:24Z</time>
      </trkpt>
      <trkpt lat="44.51854" lon="6.81382">
        <ele>2029.48</ele>
        <time>2015-04-06T11:10:25Z</time>
      </trkpt>
      <trkpt lat="44.51857" lon="6.81378">
        <ele>2028.04</ele>
        <time>2015-04-06T11:10:26Z</time>
      </trkpt>
      <trkpt lat="44.51862" lon="6.81369">
        <ele>2027.08</ele>
        <time>2015-04-06T11:10:28Z</time>
      </trkpt>
      <trkpt lat="44.51865" lon="6.81366">
        <ele>2026.12</ele>
        <time>2015-04-06T11:10:29Z</time>
      </trkpt>
      <trkpt lat="44.51869" lon="6.81362">
        <ele>2025.15</ele>
        <time>2015-04-06T11:10:30Z</time>
      </trkpt>
      <trkpt lat="44.51881" lon="6.81344">
        <ele>2022.75</ele>
        <time>2015-04-06T11:10:33Z</time>
      </trkpt>
      <trkpt lat="44.51885" lon="6.81337">
        <ele>2021.79</ele>
        <time>2015-04-06T11:10:34Z</time>
      </trkpt>
      <trkpt lat="44.51902" lon="6.8131">
        <ele>2018.91</ele>
        <time>2015-04-06T11:10:38Z</time>
      </trkpt>
      <trkpt lat="44.51906" lon="6.81303">
        <ele>2018.43</ele>
        <time>2015-04-06T11:10:39Z</time>
      </trkpt>
      <trkpt lat="44.51933" lon="6.81246">
        <ele>2016.5</ele>
        <time>2015-04-06T11:10:50Z</time>
      </trkpt>
      <trkpt lat="44.5196" lon="6.81219">
        <ele>2015.54</ele>
        <time>2015-04-06T11:11:02Z</time>
      </trkpt>
      <trkpt lat="44.51986" lon="6.81177">
        <ele>2013.62</ele>
        <time>2015-04-06T11:11:14Z</time>
      </trkpt>
      <trkpt lat="44.51993" lon="6.81165">
        <ele>2012.66</ele>
        <time>2015-04-06T11:11:17Z</time>
      </trkpt>
      <trkpt lat="44.5201" lon="6.81142">
        <ele>2010.25</ele>
        <time>2015-04-06T11:11:23Z</time>
      </trkpt>
      <trkpt lat="44.52014" lon="6.81139">
        <ele>2009.77</ele>
        <time>2015-04-06T11:11:24Z</time>
      </trkpt>
      <trkpt lat="44.52019" lon="6.81136">
        <ele>2009.29</ele>
        <time>2015-04-06T11:11:25Z</time>
      </trkpt>
      <trkpt lat="44.52039" lon="6.81106">
        <ele>2007.85</ele>
        <time>2015-04-06T11:11:33Z</time>
      </trkpt>
      <trkpt lat="44.52041" lon="6.81102">
        <ele>2007.37</ele>
        <time>2015-04-06T11:11:34Z</time>
      </trkpt>
      <trkpt lat="44.52044" lon="6.811">
        <ele>2006.89</ele>
        <time>2015-04-06T11:11:35Z</time>
      </trkpt>
      <trkpt lat="44.5205" lon="6.81098">
        <ele>2006.41</ele>
        <time>2015-04-06T11:11:37Z</time>
      </trkpt>
      <trkpt lat="44.52057" lon="6.81098">
        <ele>2004.01</ele>
        <time>2015-04-06T11:11:39Z</time>
      </trkpt>
      <trkpt lat="44.5206" lon="6.81095">
        <ele>2004.01</ele>
        <time>2015-04-06T11:11:40Z</time>
      </trkpt>
      <trkpt lat="44.52064" lon="6.8109">
        <ele>2003.52</ele>
        <time>2015-04-06T11:11:41Z</time>
      </trkpt>
      <trkpt lat="44.52073" lon="6.8108">
        <ele>2001.6</ele>
        <time>2015-04-06T11:11:43Z</time>
      </trkpt>
      <trkpt lat="44.52076" lon="6.81074">
        <ele>2001.12</ele>
        <time>2015-04-06T11:11:44Z</time>
      </trkpt>
      <trkpt lat="44.52088" lon="6.81052">
        <ele>1997.28</ele>
        <time>2015-04-06T11:11:49Z</time>
      </trkpt>
      <trkpt lat="44.52095" lon="6.81042">
        <ele>1995.83</ele>
        <time>2015-04-06T11:11:51Z</time>
      </trkpt>
      <trkpt lat="44.52099" lon="6.81039">
        <ele>1994.87</ele>
        <time>2015-04-06T11:11:52Z</time>
      </trkpt>
      <trkpt lat="44.52101" lon="6.81036">
        <ele>1994.39</ele>
        <time>2015-04-06T11:11:53Z</time>
      </trkpt>
      <trkpt lat="44.52104" lon="6.81034">
        <ele>1993.91</ele>
        <time>2015-04-06T11:11:54Z</time>
      </trkpt>
      <trkpt lat="44.52109" lon="6.81033">
        <ele>1993.43</ele>
        <time>2015-04-06T11:11:55Z</time>
      </trkpt>
      <trkpt lat="44.52113" lon="6.81029">
        <ele>1992.47</ele>
        <time>2015-04-06T11:11:56Z</time>
      </trkpt>
      <trkpt lat="44.52117" lon="6.81025">
        <ele>1991.99</ele>
        <time>2015-04-06T11:11:57Z</time>
      </trkpt>
      <trkpt lat="44.5212" lon="6.8102">
        <ele>1991.03</ele>
        <time>2015-04-06T11:11:58Z</time>
      </trkpt>
      <trkpt lat="44.52123" lon="6.81016">
        <ele>1990.07</ele>
        <time>2015-04-06T11:11:59Z</time>
      </trkpt>
      <trkpt lat="44.52126" lon="6.8101">
        <ele>1989.59</ele>
        <time>2015-04-06T11:12:00Z</time>
      </trkpt>
      <trkpt lat="44.52129" lon="6.81004">
        <ele>1988.62</ele>
        <time>2015-04-06T11:12:01Z</time>
      </trkpt>
      <trkpt lat="44.5214" lon="6.80978">
        <ele>1984.78</ele>
        <time>2015-04-06T11:12:06Z</time>
      </trkpt>
      <trkpt lat="44.52143" lon="6.80978">
        <ele>1985.26</ele>
        <time>2015-04-06T11:12:08Z</time>
      </trkpt>
      <trkpt lat="44.52146" lon="6.80979">
        <ele>1984.78</ele>
        <time>2015-04-06T11:12:09Z</time>
      </trkpt>
      <trkpt lat="44.52149" lon="6.80979">
        <ele>1984.3</ele>
        <time>2015-04-06T11:12:10Z</time>
      </trkpt>
      <trkpt lat="44.52153" lon="6.80978">
        <ele>1984.3</ele>
        <time>2015-04-06T11:12:11Z</time>
      </trkpt>
      <trkpt lat="44.52156" lon="6.80975">
        <ele>1983.34</ele>
        <time>2015-04-06T11:12:12Z</time>
      </trkpt>
      <trkpt lat="44.52159" lon="6.80972">
        <ele>1983.34</ele>
        <time>2015-04-06T11:12:13Z</time>
      </trkpt>
      <trkpt lat="44.52162" lon="6.80968">
        <ele>1983.34</ele>
        <time>2015-04-06T11:12:14Z</time>
      </trkpt>
      <trkpt lat="44.5217" lon="6.80953">
        <ele>1981.41</ele>
        <time>2015-04-06T11:12:17Z</time>
      </trkpt>
      <trkpt lat="44.52171" lon="6.80946">
        <ele>1980.93</ele>
        <time>2015-04-06T11:12:18Z</time>
      </trkpt>
      <trkpt lat="44.52172" lon="6.8094">
        <ele>1980.45</ele>
        <time>2015-04-06T11:12:19Z</time>
      </trkpt>
      <trkpt lat="44.52174" lon="6.80937">
        <ele>1979.97</ele>
        <time>2015-04-06T11:12:20Z</time>
      </trkpt>
      <trkpt lat="44.52177" lon="6.80934">
        <ele>1979.49</ele>
        <time>2015-04-06T11:12:21Z</time>
      </trkpt>
      <trkpt lat="44.52181" lon="6.80931">
        <ele>1979.01</ele>
        <time>2015-04-06T11:12:22Z</time>
      </trkpt>
      <trkpt lat="44.52184" lon="6.80926">
        <ele>1978.05</ele>
        <time>2015-04-06T11:12:23Z</time>
      </trkpt>
      <trkpt lat="44.52187" lon="6.80921">
        <ele>1977.57</ele>
        <time>2015-04-06T11:12:24Z</time>
      </trkpt>
      <trkpt lat="44.52189" lon="6.80915">
        <ele>1977.09</ele>
        <time>2015-04-06T11:12:25Z</time>
      </trkpt>
      <trkpt lat="44.52193" lon="6.80911">
        <ele>1976.61</ele>
        <time>2015-04-06T11:12:26Z</time>
      </trkpt>
      <trkpt lat="44.522" lon="6.80903">
        <ele>1975.17</ele>
        <time>2015-04-06T11:12:28Z</time>
      </trkpt>
      <trkpt lat="44.52203" lon="6.80898">
        <ele>1974.69</ele>
        <time>2015-04-06T11:12:29Z</time>
      </trkpt>
      <trkpt lat="44.52209" lon="6.80888">
        <ele>1973.72</ele>
        <time>2015-04-06T11:12:31Z</time>
      </trkpt>
      <trkpt lat="44.52216" lon="6.80879">
        <ele>1972.76</ele>
        <time>2015-04-06T11:12:33Z</time>
      </trkpt>
      <trkpt lat="44.52218" lon="6.80873">
        <ele>1971.8</ele>
        <time>2015-04-06T11:12:34Z</time>
      </trkpt>
      <trkpt lat="44.5222" lon="6.80866">
        <ele>1971.32</ele>
        <time>2015-04-06T11:12:35Z</time>
      </trkpt>
      <trkpt lat="44.52221" lon="6.80859">
        <ele>1970.84</ele>
        <time>2015-04-06T11:12:36Z</time>
      </trkpt>
      <trkpt lat="44.52223" lon="6.80853">
        <ele>1970.84</ele>
        <time>2015-04-06T11:12:37Z</time>
      </trkpt>
      <trkpt lat="44.52227" lon="6.80849">
        <ele>1969.88</ele>
        <time>2015-04-06T11:12:38Z</time>
      </trkpt>
      <trkpt lat="44.52231" lon="6.80844">
        <ele>1968.44</ele>
        <time>2015-04-06T11:12:39Z</time>
      </trkpt>
      <trkpt lat="44.52234" lon="6.80838">
        <ele>1967.48</ele>
        <time>2015-04-06T11:12:40Z</time>
      </trkpt>
      <trkpt lat="44.52239" lon="6.80833">
        <ele>1966.51</ele>
        <time>2015-04-06T11:12:41Z</time>
      </trkpt>
      <trkpt lat="44.52243" lon="6.80827">
        <ele>1964.11</ele>
        <time>2015-04-06T11:12:42Z</time>
      </trkpt>
      <trkpt lat="44.52247" lon="6.8082">
        <ele>1963.63</ele>
        <time>2015-04-06T11:12:43Z</time>
      </trkpt>
      <trkpt lat="44.5225" lon="6.80814">
        <ele>1963.15</ele>
        <time>2015-04-06T11:12:44Z</time>
      </trkpt>
      <trkpt lat="44.52254" lon="6.80809">
        <ele>1962.19</ele>
        <time>2015-04-06T11:12:45Z</time>
      </trkpt>
      <trkpt lat="44.52258" lon="6.80806">
        <ele>1961.23</ele>
        <time>2015-04-06T11:12:46Z</time>
      </trkpt>
      <trkpt lat="44.52261" lon="6.80806">
        <ele>1960.75</ele>
        <time>2015-04-06T11:12:47Z</time>
      </trkpt>
      <trkpt lat="44.5226" lon="6.80809">
        <ele>1960.75</ele>
        <time>2015-04-06T11:12:56Z</time>
      </trkpt>
      <trkpt lat="44.52265" lon="6.80795">
        <ele>1959.3</ele>
        <time>2015-04-06T11:13:02Z</time>
      </trkpt>
      <trkpt lat="44.52268" lon="6.80793">
        <ele>1959.3</ele>
        <time>2015-04-06T11:13:03Z</time>
      </trkpt>
      <trkpt lat="44.52269" lon="6.80791">
        <ele>1957.86</ele>
        <time>2015-04-06T11:13:04Z</time>
      </trkpt>
      <trkpt lat="44.5227" lon="6.80788">
        <ele>1957.86</ele>
        <time>2015-04-06T11:13:05Z</time>
      </trkpt>
      <trkpt lat="44.5227" lon="6.80785">
        <ele>1956.9</ele>
        <time>2015-04-06T11:13:06Z</time>
      </trkpt>
      <trkpt lat="44.52271" lon="6.8078">
        <ele>1956.9</ele>
        <time>2015-04-06T11:13:08Z</time>
      </trkpt>
      <trkpt lat="44.52273" lon="6.80778">
        <ele>1956.42</ele>
        <time>2015-04-06T11:13:09Z</time>
      </trkpt>
      <trkpt lat="44.52293" lon="6.80748">
        <ele>1954.5</ele>
        <time>2015-04-06T11:13:20Z</time>
      </trkpt>
      <trkpt lat="44.52295" lon="6.80738">
        <ele>1954.02</ele>
        <time>2015-04-06T11:13:31Z</time>
      </trkpt>
      <trkpt lat="44.52304" lon="6.80711">
        <ele>1952.57</ele>
        <time>2015-04-06T11:13:44Z</time>
      </trkpt>
      <trkpt lat="44.52325" lon="6.8067">
        <ele>1949.69</ele>
        <time>2015-04-06T11:13:56Z</time>
      </trkpt>
      <trkpt lat="44.52343" lon="6.80645">
        <ele>1948.25</ele>
        <time>2015-04-06T11:14:08Z</time>
      </trkpt>
      <trkpt lat="44.5236" lon="6.80614">
        <ele>1945.85</ele>
        <time>2015-04-06T11:14:17Z</time>
      </trkpt>
      <trkpt lat="44.52367" lon="6.80602">
        <ele>1943.92</ele>
        <time>2015-04-06T11:14:20Z</time>
      </trkpt>
      <trkpt lat="44.52381" lon="6.80582">
        <ele>1941.52</ele>
        <time>2015-04-06T11:14:25Z</time>
      </trkpt>
      <trkpt lat="44.52381" lon="6.80577">
        <ele>1941.04</ele>
        <time>2015-04-06T11:14:26Z</time>
      </trkpt>
      <trkpt lat="44.52384" lon="6.80561">
        <ele>1939.6</ele>
        <time>2015-04-06T11:14:30Z</time>
      </trkpt>
      <trkpt lat="44.5239" lon="6.80551">
        <ele>1938.64</ele>
        <time>2015-04-06T11:14:33Z</time>
      </trkpt>
      <trkpt lat="44.52397" lon="6.80544">
        <ele>1936.23</ele>
        <time>2015-04-06T11:14:35Z</time>
      </trkpt>
      <trkpt lat="44.52404" lon="6.80532">
        <ele>1934.79</ele>
        <time>2015-04-06T11:14:37Z</time>
      </trkpt>
      <trkpt lat="44.52414" lon="6.80497">
        <ele>1931.91</ele>
        <time>2015-04-06T11:14:43Z</time>
      </trkpt>
      <trkpt lat="44.52415" lon="6.80491">
        <ele>1931.43</ele>
        <time>2015-04-06T11:14:44Z</time>
      </trkpt>
      <trkpt lat="44.52415" lon="6.80485">
        <ele>1930.95</ele>
        <time>2015-04-06T11:14:45Z</time>
      </trkpt>
      <trkpt lat="44.52415" lon="6.80479">
        <ele>1930.46</ele>
        <time>2015-04-06T11:14:46Z</time>
      </trkpt>
      <trkpt lat="44.52415" lon="6.80473">
        <ele>1930.46</ele>
        <time>2015-04-06T11:14:47Z</time>
      </trkpt>
      <trkpt lat="44.52411" lon="6.80419">
        <ele>1927.58</ele>
        <time>2015-04-06T11:14:57Z</time>
      </trkpt>
      <trkpt lat="44.5241" lon="6.80417">
        <ele>1927.1</ele>
        <time>2015-04-06T11:15:08Z</time>
      </trkpt>
      <trkpt lat="44.52409" lon="6.80417">
        <ele>1927.58</ele>
        <time>2015-04-06T11:15:24Z</time>
      </trkpt>
      <trkpt lat="44.52409" lon="6.80417">
        <ele>1927.58</ele>
        <time>2015-04-06T11:15:42Z</time>
      </trkpt>
      <trkpt lat="44.52405" lon="6.80415">
        <ele>1928.06</ele>
        <time>2015-04-06T11:15:57Z</time>
      </trkpt>
      <trkpt lat="44.52404" lon="6.80417">
        <ele>1928.54</ele>
        <time>2015-04-06T11:16:09Z</time>
      </trkpt>
      <trkpt lat="44.52405" lon="6.80417">
        <ele>1928.54</ele>
        <time>2015-04-06T11:16:24Z</time>
      </trkpt>
      <trkpt lat="44.52404" lon="6.80416">
        <ele>1928.06</ele>
        <time>2015-04-06T11:16:35Z</time>
      </trkpt>
      <trkpt lat="44.52407" lon="6.80414">
        <ele>1927.1</ele>
        <time>2015-04-06T11:16:46Z</time>
      </trkpt>
      <trkpt lat="44.52411" lon="6.80418">
        <ele>1927.58</ele>
        <time>2015-04-06T11:17:12Z</time>
      </trkpt>
    </trkseg>
  </trk>
</gpx>